ECMWFNIL_sfc_thetae_000.txt.gz
Theta_e
274 274 273 273 273 274 274 273 274 273 273 274 274 274 274 275 276 275 275 276 276 276 276 277 277 277 277 277 277 277 277 277 277 278 279 281 281 280 280 281 282 283
273 274 275 274 273 274 273 273 273 273 273 273 274 274 275 275 275 275 275 275 276 276 276 277 277 277 276 276 277 277 277 277 276 278 278 279 279 280 281 282 282 283
272 272 272 271 271 272 272 272 273 273 273 273 274 274 275 275 275 275 275 276 276 276 276 276 276 276 276 276 276 276 276 276 276 277 277 276 276 277 278 280 282 283
272 272 271 271 271 271 272 272 272 273 273 273 273 274 275 275 275 275 275 276 275 275 276 276 276 276 276 275 275 275 275 275 275 276 275 276 277 277 278 280 282 283
271 271 271 271 271 271 271 271 271 272 272 272 273 274 274 274 274 274 274 275 275 275 275 275 275 275 275 275 275 274 275 275 275 276 276 276 277 279 280 279 279 279
271 271 271 271 271 271 270 270 271 271 271 272 272 273 273 273 273 273 273 273 274 274 274 275 275 275 275 274 274 274 274 274 274 275 274 275 276 276 277 277 277 278
269 270 269 270 270 270 270 270 270 271 271 271 272 271 272 272 272 272 273 273 274 274 274 274 274 274 274 273 273 272 273 273 273 274 273 274 275 275 275 275 276 277
269 269 269 269 269 269 269 269 270 270 270 270 270 270 271 271 271 272 272 273 273 273 273 273 273 273 273 273 272 271 271 272 272 272 273 273 274 274 274 275 276 276
269 268 268 268 268 268 268 268 269 269 270 269 269 270 270 271 271 271 271 272 272 272 272 271 272 272 272 272 271 271 270 271 271 272 272 272 272 272 273 274 274 274
268 268 268 268 267 268 267 268 268 268 269 268 269 269 269 270 271 270 271 271 270 270 270 270 270 270 270 270 270 270 270 270 271 271 272 272 272 272 272 273 272 273
267 267 267 267 267 267 267 267 267 268 268 268 268 269 269 269 269 270 269 269 269 268 268 268 268 268 268 269 269 270 270 270 270 270 271 272 272 272 273 272 272 272
267 267 267 267 267 267 267 267 267 267 267 268 268 268 268 268 268 268 268 267 267 267 267 267 267 267 268 268 268 269 269 269 270 270 270 271 271 272 272 272 272 272
266 266 266 266 266 266 266 267 267 266 267 267 268 267 266 266 266 266 266 266 266 266 266 266 266 266 266 267 267 268 268 268 269 269 270 271 271 271 272 272 272 272
266 266 266 266 266 266 266 266 266 266 266 266 265 265 264 264 264 264 265 265 265 265 265 265 265 265 266 266 267 267 268 268 268 269 269 270 271 271 272 272 272 272
266 266 266 265 265 265 265 264 264 264 264 264 263 263 263 263 263 263 263 263 264 264 264 265 265 265 266 266 266 267 268 268 268 269 269 269 270 270 271 271 272 272
265 265 265 264 264 263 263 263 262 262 262 262 262 262 262 262 262 262 262 262 262 263 264 264 264 265 267 271 272 269 269 270 270 270 270 270 270 270 270 271 272 272
264 264 263 263 262 262 261 261 261 261 260 260 260 260 260 261 261 261 261 262 262 263 263 264 265 266 270 272 273 275 272 271 271 271 272 271 271 271 270 271 272 274
263 263 262 261 261 260 260 260 259 259 259 259 259 259 260 260 260 261 261 262 263 263 264 264 265 269 272 273 274 275 275 272 272 272 272 272 272 272 272 273 273 273
262 261 260 260 260 259 259 258 258 258 258 258 258 259 260 260 260 261 262 263 263 263 264 264 265 270 272 273 274 275 276 275 273 273 272 272 273 273 273 273 273 273
261 260 259 259 259 258 258 258 257 257 258 259 259 260 260 261 261 262 263 263 263 263 263 264 264 268 272 273 274 275 276 276 274 274 273 273 273 273 274 273 273 273
260 259 258 258 258 258 257 257 257 258 258 259 259 260 260 261 261 261 261 262 262 263 263 263 264 270 272 273 274 275 276 277 274 274 275 275 275 275 274 274 274 275
259 258 258 257 257 257 256 257 257 258 258 259 260 260 261 261 261 262 261 261 262 262 262 262 263 270 271 272 274 275 277 274 274 274 275 274 274 275 275 275 275 275
259 258 257 256 256 256 256 256 257 257 258 260 260 260 260 260 260 261 261 261 261 261 262 262 263 267 271 273 274 275 275 273 274 275 275 275 275 275 275 275 275 275
258 257 256 256 256 255 256 257 257 258 259 260 259 259 259 260 260 260 260 261 261 261 262 262 264 267 271 272 273 275 275 273 273 273 274 275 275 275 275 276 276 278
256 256 256 255 255 255 256 256 257 258 259 260 260 259 259 260 260 260 260 260 261 261 265 264 263 265 270 271 273 274 274 273 273 273 273 273 274 275 276 276 276 277
256 255 255 255 255 255 256 257 258 258 259 259 259 259 259 259 259 259 259 260 261 262 262 263 263 264 266 272 274 274 275 272 272 271 271 272 274 275 275 275 276 276

ECMWFNIL_sfc_thetae_003.txt.gz
Theta_e
276 276 275 275 275 276 275 275 274 274 274 274 274 275 275 276 276 276 277 277 277 277 277 277 278 278 278 278 278 278 278 278 278 278 278 278 278 278 277 277 278 278
275 275 276 276 275 275 274 274 273 273 273 274 274 274 275 275 276 276 276 276 277 277 277 277 277 278 278 278 278 277 277 277 277 278 277 277 277 278 277 278 278 278
274 274 274 273 273 273 273 273 273 273 273 273 274 274 275 275 275 276 276 276 276 276 276 277 277 277 277 277 277 277 276 276 276 277 277 276 277 277 277 277 277 277
274 273 273 273 272 272 272 272 272 273 273 273 273 274 274 274 275 275 275 275 275 275 275 276 276 276 276 276 277 276 276 276 276 276 276 276 276 276 276 276 276 276
273 272 272 272 272 272 272 271 271 272 272 272 272 273 273 273 273 274 274 274 274 274 274 275 275 275 276 276 276 275 276 276 276 276 275 275 276 276 276 276 276 276
272 272 272 272 271 271 271 271 271 271 271 271 272 272 272 273 272 272 272 272 273 273 273 274 274 274 275 275 275 275 275 275 275 275 275 274 274 275 275 275 275 275
271 271 271 271 271 271 270 270 271 271 271 271 272 271 272 271 271 271 272 272 272 272 273 273 273 273 274 275 274 274 274 274 274 274 274 273 273 273 274 274 274 274
271 271 271 270 270 270 270 270 270 270 271 271 270 271 271 270 270 271 271 272 271 272 272 272 272 273 273 273 273 272 272 273 273 273 273 272 272 272 272 273 273 273
270 270 270 270 269 269 269 270 270 270 270 270 269 270 270 270 270 271 271 271 271 271 271 271 271 271 272 271 271 271 271 271 272 272 271 271 271 271 271 272 272 272
269 269 269 269 269 269 269 269 269 269 269 269 269 269 269 270 270 270 270 270 269 269 269 269 269 270 270 270 269 269 269 269 270 270 270 270 270 270 271 271 271 271
269 269 268 268 268 269 268 269 269 269 269 268 269 269 269 269 269 269 268 268 267 267 267 267 267 268 268 268 268 268 268 268 268 268 269 269 270 270 271 270 270 271
268 268 268 268 268 268 268 268 268 268 268 268 268 267 267 267 267 266 266 266 266 266 266 266 266 266 266 266 267 267 267 267 267 267 268 268 269 269 269 270 270 270
268 267 268 267 268 267 267 267 267 267 266 266 266 265 265 265 265 265 265 265 265 265 265 265 265 265 265 265 266 266 266 266 266 266 267 267 268 268 269 270 270 270
267 267 267 267 267 267 266 266 266 265 265 265 264 264 263 263 263 263 263 264 264 264 264 264 264 264 265 265 265 266 266 266 266 266 267 267 268 268 269 270 270 271
267 267 267 267 266 265 265 264 264 263 263 263 263 262 263 263 263 263 263 263 263 263 264 264 264 264 265 265 265 266 266 267 267 268 268 268 268 269 269 270 270 271
266 266 266 265 265 264 263 263 262 262 261 261 261 262 262 262 262 262 262 262 262 263 263 264 264 265 267 270 271 269 268 269 269 269 269 270 270 270 269 270 271 271
266 265 265 264 263 263 262 261 261 260 260 260 260 261 261 261 262 262 262 263 263 263 263 264 264 265 269 271 273 273 271 269 269 269 270 270 270 270 271 271 272 272
265 264 263 262 262 261 261 260 260 259 259 260 260 260 261 261 261 262 263 263 263 264 263 264 264 268 270 271 272 273 273 270 269 269 270 271 271 271 272 272 272 273
263 262 262 261 261 260 259 259 259 259 259 259 259 260 261 261 262 262 262 263 263 263 263 263 264 268 270 271 272 273 274 273 270 270 270 271 272 272 272 273 273 273
262 261 260 260 260 259 259 259 258 258 259 260 260 260 261 261 261 262 262 262 262 262 263 263 263 267 270 271 272 273 274 273 270 271 271 271 272 272 273 274 274 273
261 260 259 259 259 258 258 258 258 258 259 260 260 260 260 260 261 261 261 261 262 262 262 262 263 268 270 272 272 273 274 274 271 271 271 271 272 273 273 274 275 275
260 259 259 258 258 258 257 258 258 258 258 259 260 260 261 261 261 261 261 261 261 261 261 261 262 269 270 271 273 274 275 271 270 270 270 271 272 273 273 274 275 275
260 259 257 257 257 257 257 257 258 258 258 260 259 260 260 260 260 260 261 261 261 261 261 261 262 266 270 272 273 274 272 269 270 270 270 270 270 271 272 273 274 275
259 258 257 257 256 256 256 257 258 258 259 259 259 259 259 260 260 260 261 261 261 261 261 261 262 266 270 271 272 273 273 270 270 269 269 269 270 271 272 273 274 276
258 257 257 256 256 256 256 256 257 258 258 259 259 259 259 260 260 260 260 261 261 261 264 264 263 265 269 271 272 273 272 270 269 269 268 269 269 270 271 272 273 274
257 256 256 255 256 256 256 257 258 258 258 259 259 259 259 259 260 260 259 260 262 262 263 264 264 264 266 271 273 273 274 270 270 268 268 268 269 269 270 271 272 273

ECMWFNIL_sfc_thetae_006.txt.gz
Theta_e
282 282 281 282 282 282 281 281 281 280 280 280 280 280 280 281 281 281 281 281 281 281 281 281 281 281 282 282 282 281 281 281 281 281 281 281 281 281 280 280 280 280
281 281 281 281 280 280 280 280 280 279 279 279 279 279 280 280 280 280 280 280 280 280 280 280 281 281 280 280 281 280 280 281 280 282 281 281 280 280 280 280 280 280
280 280 279 279 279 279 279 279 278 278 278 279 279 279 279 279 279 279 279 279 279 279 280 280 280 280 280 280 280 280 279 279 279 280 280 280 280 280 280 280 279 280
279 279 279 279 278 278 278 277 277 278 278 278 278 279 278 278 278 278 278 278 278 278 278 278 278 279 279 279 279 279 279 279 279 279 279 279 279 279 279 279 279 279
278 278 278 278 277 277 277 276 276 277 277 277 277 277 277 277 277 277 277 277 277 277 277 277 278 278 278 278 278 278 278 278 278 279 278 278 278 278 278 278 278 277
278 278 277 277 277 276 276 276 276 276 276 276 276 277 277 276 276 276 276 276 276 276 276 276 277 277 277 277 277 277 277 277 277 278 277 277 277 278 278 278 277 277
277 277 276 276 276 276 276 276 276 276 276 276 276 275 276 275 275 275 275 275 275 275 275 275 276 276 276 276 275 275 276 276 276 276 276 276 276 276 277 277 276 276
276 276 276 276 275 275 275 275 275 275 275 275 274 275 275 274 274 274 275 275 275 275 275 275 275 275 275 275 274 274 274 275 275 275 274 274 274 274 274 275 276 275
276 276 275 275 275 275 275 275 275 275 275 274 274 274 274 274 274 274 274 274 274 274 274 273 273 273 273 273 272 272 272 272 273 273 272 272 272 272 272 273 273 273
275 275 275 274 274 275 274 274 274 274 274 273 273 273 273 273 273 273 273 272 272 272 272 272 271 271 271 271 271 271 270 270 271 271 271 271 271 271 271 271 271 271
275 275 274 274 274 274 274 274 273 273 273 272 272 272 272 272 272 272 271 271 270 270 270 270 270 270 269 269 269 270 269 269 269 269 270 270 270 270 271 270 270 270
274 274 274 274 274 273 273 273 273 272 272 272 271 271 270 270 270 270 270 269 269 269 269 269 269 269 269 268 269 269 269 269 269 269 269 269 269 269 269 269 269 269
274 274 274 273 273 273 273 272 272 271 270 270 270 269 268 268 269 268 268 268 268 268 268 268 268 268 268 268 268 268 269 268 268 269 269 268 268 269 269 269 269 269
274 274 273 273 273 272 271 271 270 269 269 269 268 267 267 267 267 267 267 267 267 268 268 268 268 268 268 268 268 268 268 268 268 268 268 268 268 269 269 269 269 270
273 273 272 272 271 271 270 269 268 268 267 267 266 266 266 266 266 266 266 266 267 267 268 268 268 268 268 268 268 268 269 269 269 269 270 269 270 270 270 271 271 271
272 272 271 271 270 269 269 268 267 266 266 265 265 265 266 266 266 266 266 266 267 267 268 268 268 268 269 271 272 270 270 270 270 270 270 270 269 269 270 270 271 271
271 271 270 269 269 268 267 266 265 265 264 264 264 264 264 265 265 266 266 267 267 267 267 267 268 268 270 272 273 274 272 270 269 270 270 270 270 270 269 270 271 271
271 270 269 268 267 266 265 265 264 263 263 264 264 264 264 265 265 266 266 267 267 267 267 267 267 269 271 272 273 274 274 271 271 270 270 270 270 270 270 271 271 271
269 268 267 266 266 265 264 263 263 263 263 263 263 264 264 264 265 265 266 266 266 266 266 266 267 269 271 272 273 274 275 274 271 271 271 271 271 271 271 271 271 271
267 267 266 266 265 264 263 263 262 262 263 264 264 264 264 264 265 265 265 265 266 265 266 266 266 268 271 273 273 274 275 274 272 271 271 271 271 271 271 271 271 271
266 266 265 265 264 263 262 262 262 263 263 264 264 264 264 264 264 264 264 264 264 265 265 265 266 270 272 273 273 274 275 275 271 271 270 270 271 271 271 271 272 272
265 265 264 263 263 262 262 262 263 263 262 263 263 264 264 265 264 264 264 264 264 264 264 264 266 270 271 272 273 274 275 271 271 271 271 271 271 271 271 271 271 271
265 264 263 262 262 261 261 261 262 262 263 264 263 263 263 263 263 264 264 264 264 264 264 264 265 268 271 272 273 274 273 271 271 271 270 270 270 271 271 271 272 272
264 263 262 262 261 261 261 262 262 263 263 263 262 262 263 263 263 263 264 264 264 264 264 264 265 268 271 273 273 274 274 271 271 270 270 270 270 271 271 271 272 274
263 262 262 261 260 261 261 260 261 262 262 263 263 263 263 263 263 263 263 264 264 264 266 266 266 268 271 272 273 275 273 271 271 270 270 270 270 270 271 272 272 273
262 261 261 260 260 260 260 261 262 262 262 262 262 263 263 263 263 263 262 263 264 265 266 267 267 268 269 273 274 275 275 272 272 271 270 270 271 271 270 271 272 272

ECMWFNIL_sfc_thetae_009.txt.gz
Theta_e
287 287 286 286 286 286 285 285 285 284 284 284 283 284 284 284 284 283 283 283 283 282 282 282 283 282 283 283 283 282 282 282 282 282 282 282 281 281 281 281 282 281
285 285 285 285 285 285 285 285 284 283 283 283 283 283 283 283 283 282 282 282 282 282 282 282 282 282 282 281 282 281 281 281 280 282 281 281 281 281 281 281 281 281
285 284 284 283 283 283 283 283 283 283 282 282 282 282 282 282 281 281 281 281 281 281 281 281 281 281 281 280 280 280 280 280 280 280 280 280 280 280 281 281 281 281
284 283 283 283 282 282 282 281 281 281 281 281 281 281 281 281 281 280 280 280 280 280 280 280 280 280 280 279 279 279 279 279 279 280 279 280 280 280 280 280 280 280
283 282 282 282 282 282 281 280 280 280 280 280 281 280 280 280 279 279 279 279 279 279 279 279 279 279 279 279 279 278 278 278 279 279 278 278 279 279 279 279 279 279
282 282 282 281 281 280 279 279 279 279 279 279 279 279 279 279 279 278 278 278 278 278 278 278 278 278 278 278 278 278 278 278 278 278 277 277 277 278 279 279 278 278
281 281 280 280 279 279 279 279 279 279 279 279 279 278 278 278 278 278 277 277 277 277 277 277 277 277 277 277 277 276 277 277 276 276 276 276 276 276 277 277 277 277
280 280 280 279 279 279 278 278 278 278 278 278 277 277 277 277 277 277 277 276 276 276 276 276 276 276 276 276 275 275 275 275 275 275 274 274 274 274 275 276 276 275
280 279 279 278 278 278 278 278 278 278 278 277 277 277 277 276 276 276 276 276 276 276 276 275 275 275 275 274 274 273 273 273 273 273 272 272 272 273 273 274 273 273
279 279 278 278 277 278 277 277 277 277 277 276 276 276 275 276 276 275 275 275 274 274 274 274 274 273 273 273 273 272 272 271 272 271 271 271 271 271 271 271 271 271
278 278 277 277 277 277 277 277 277 276 276 276 275 275 275 275 275 275 274 273 273 273 273 272 272 272 272 271 271 271 271 271 271 270 270 270 270 270 271 271 270 270
278 277 277 277 277 277 277 277 276 276 275 275 275 274 274 274 273 273 273 272 272 272 271 271 271 271 271 270 270 271 270 270 270 270 270 270 270 270 270 270 270 270
277 277 277 277 277 277 276 276 275 275 275 274 274 273 272 272 272 271 272 271 271 271 270 270 270 270 270 270 270 270 270 270 270 270 270 270 270 271 271 271 271 271
277 277 277 277 277 276 276 275 275 274 273 273 272 271 271 270 270 270 270 270 270 270 270 270 270 270 270 270 270 270 270 270 270 270 270 270 271 271 271 271 271 272
277 277 277 276 276 275 274 274 273 272 272 271 270 270 270 270 269 269 269 269 269 269 269 270 269 269 270 270 270 270 270 270 271 271 271 271 271 271 271 271 271 272
277 276 275 275 274 273 273 272 272 271 270 269 269 269 268 268 268 268 268 268 268 269 269 269 269 270 271 272 273 271 271 272 272 272 272 271 271 271 271 272 272 272
275 275 274 273 273 273 272 271 270 269 268 268 268 267 267 267 267 267 267 268 268 269 269 269 269 270 272 273 274 275 273 272 272 272 272 272 272 272 271 271 272 273
274 274 273 272 272 271 270 269 268 267 267 266 266 266 266 267 267 267 268 268 268 268 268 269 269 271 272 273 274 275 275 273 273 273 272 272 272 272 272 272 272 272
274 272 272 271 270 269 268 267 266 266 265 265 265 266 266 266 266 267 268 268 268 268 268 268 268 271 272 273 274 275 276 275 273 273 272 272 272 272 272 271 271 271
272 271 270 270 269 268 267 266 265 265 265 266 266 266 266 266 267 267 267 267 267 267 267 267 268 270 272 273 274 275 276 276 273 273 272 272 272 271 271 271 272 271
271 270 269 268 267 266 266 265 265 265 265 266 266 266 266 266 266 266 266 266 266 266 266 266 267 270 272 273 274 275 276 276 273 272 272 271 272 272 272 272 272 272
270 269 268 267 266 265 265 265 265 265 265 266 266 266 267 267 266 267 266 265 266 266 266 265 267 270 272 273 274 275 276 273 272 272 272 272 272 272 273 273 273 273
269 268 267 266 265 264 264 264 265 265 265 266 265 266 266 266 266 266 266 266 265 265 265 265 266 268 271 273 274 275 274 272 272 272 272 271 272 273 273 273 273 273
269 267 266 265 264 264 264 265 265 265 265 266 265 265 265 265 265 265 265 266 265 265 265 265 265 268 272 273 274 275 275 272 272 271 271 272 272 273 273 274 274 276
267 267 266 265 264 264 264 264 264 264 265 265 265 265 265 265 265 265 265 265 265 265 267 267 267 269 271 273 274 275 274 272 272 271 271 271 272 272 273 273 274 274
266 266 265 264 264 264 264 264 264 264 264 264 264 265 265 265 265 265 264 264 265 266 266 267 267 268 269 273 274 274 275 273 272 271 271 271 272 272 272 272 272 272

ECMWFNIL_sfc_thetae_012.txt.gz
Theta_e
285 285 284 284 283 283 283 282 282 281 281 281 281 281 281 281 282 281 280 280 280 279 279 279 279 279 280 279 279 279 279 278 278 278 278 278 278 278 279 278 278 278
284 284 284 283 282 283 282 282 281 281 280 280 280 280 281 281 280 280 279 279 279 279 279 279 278 278 278 278 278 277 277 277 277 279 278 277 277 277 278 278 278 278
283 283 283 283 282 281 281 281 280 280 280 279 279 279 280 280 279 279 279 278 278 278 278 278 277 277 277 277 277 277 276 276 276 276 277 277 277 277 277 277 277 277
283 283 283 282 281 281 281 280 279 279 279 279 278 279 279 280 278 278 278 279 277 276 276 276 277 276 277 276 276 276 276 276 276 276 276 276 277 277 277 277 277 277
282 282 282 281 281 280 280 280 279 278 278 278 278 278 278 278 277 277 277 276 276 276 276 276 276 276 276 276 276 275 276 276 276 275 275 275 276 276 277 277 276 276
282 281 281 281 280 279 279 278 278 277 277 277 277 278 277 277 276 276 276 276 276 276 275 275 275 275 275 275 275 275 275 275 275 275 274 274 275 275 276 276 275 275
281 280 280 279 278 278 278 277 277 277 276 276 277 276 276 276 276 276 276 276 275 275 275 274 274 274 275 275 274 274 274 274 274 274 274 274 274 274 275 274 274 274
281 280 279 279 278 277 277 276 276 276 276 276 275 275 275 275 275 275 275 275 274 274 274 274 274 274 274 274 274 274 273 274 274 273 273 273 273 272 272 273 273 273
280 279 278 278 277 277 276 276 276 275 275 275 274 274 275 275 274 274 274 274 274 274 274 273 274 273 273 273 273 272 272 272 272 272 271 271 271 271 271 272 271 271
279 278 277 277 277 276 276 275 275 275 275 274 274 274 274 274 274 274 274 274 273 273 273 273 273 272 272 272 272 271 271 271 271 271 271 270 270 270 270 270 270 270
278 278 277 276 276 276 275 275 275 275 275 274 274 273 273 273 273 273 273 273 273 272 272 272 272 272 271 271 271 271 270 270 270 270 270 270 270 270 271 270 270 270
278 277 277 276 276 276 275 275 275 274 274 274 273 273 273 273 273 272 272 272 271 271 270 270 270 270 270 270 270 270 270 270 270 269 269 269 269 270 270 270 270 270
278 277 277 276 276 276 275 275 274 274 274 273 273 273 272 271 271 271 271 271 270 270 270 270 270 270 269 268 268 268 269 269 269 269 269 269 269 270 270 270 270 271
277 277 276 276 276 275 275 274 274 273 273 273 272 272 271 271 270 270 270 271 270 270 270 270 269 269 268 268 268 268 268 269 269 269 269 269 270 271 271 272 272 272
277 276 276 276 275 275 274 273 273 273 272 272 272 271 271 271 271 271 270 270 270 270 269 270 269 269 269 268 268 268 268 268 269 269 270 270 271 272 272 272 272 273
276 276 275 275 274 274 273 273 272 272 271 271 271 271 270 270 270 270 269 269 269 269 269 269 269 269 270 273 273 269 268 269 270 271 272 272 272 272 272 273 273 273
276 275 275 274 274 273 272 272 272 271 270 270 269 269 268 268 269 268 268 268 268 268 268 269 269 270 272 274 275 276 274 272 272 272 272 272 273 272 272 272 273 273
275 274 274 273 272 272 272 271 270 269 269 268 267 267 267 268 268 268 268 268 268 268 269 269 269 271 273 274 275 276 276 274 273 273 273 273 273 273 272 272 272 272
274 273 272 272 271 271 270 269 268 268 268 267 267 267 267 267 267 267 267 268 268 268 268 269 269 271 273 274 275 275 276 275 274 274 273 273 273 273 272 272 272 272
273 273 272 271 270 269 269 268 267 267 267 267 267 267 267 267 267 267 268 268 268 268 268 268 268 270 273 273 274 275 276 276 274 274 274 273 272 272 272 272 272 272
273 272 271 270 269 268 267 267 267 266 266 267 267 267 266 266 266 267 267 268 268 268 268 267 267 271 272 273 274 275 276 276 274 273 272 272 272 272 272 272 273 273
273 272 271 269 268 267 267 267 266 266 266 267 267 267 267 267 267 267 267 267 267 267 266 266 267 270 272 273 274 274 276 274 273 272 272 272 272 273 273 273 273 273
273 272 270 268 267 267 266 266 266 266 266 267 266 267 266 267 267 267 267 267 266 266 266 266 266 268 271 272 273 275 275 273 273 272 272 271 272 272 273 273 273 274
272 270 269 268 267 266 266 266 266 267 266 267 266 266 266 267 267 266 267 266 266 266 266 265 265 267 271 272 274 274 275 273 272 271 271 272 272 273 273 273 274 276
271 270 268 267 266 266 266 266 266 266 266 266 266 267 266 267 266 266 266 266 266 266 267 267 265 267 271 272 273 274 274 272 272 271 271 271 271 272 273 273 273 274
270 269 268 267 266 266 266 266 267 266 266 265 266 266 265 266 266 265 265 265 266 265 265 266 266 266 268 272 273 274 274 273 272 271 270 271 271 271 271 272 272 271

ECMWFNIL_sfc_thetae_015.txt.gz
Theta_e
286 286 286 285 285 285 284 284 284 283 283 283 282 282 282 282 282 282 281 281 280 280 279 279 279 279 280 279 279 279 278 277 277 277 277 277 277 276 278 277 277 277
285 285 286 285 284 284 284 284 283 283 282 282 282 282 281 281 281 281 280 280 280 279 279 278 278 278 278 278 278 278 277 277 276 279 277 276 277 276 277 276 276 276
285 284 285 284 284 284 283 283 283 282 282 281 281 281 281 281 280 280 280 279 279 278 278 278 278 278 278 277 277 278 277 276 276 276 277 276 276 276 276 276 276 276
284 285 285 285 284 283 283 282 281 281 281 280 280 280 281 281 280 279 279 279 278 278 277 277 277 277 277 277 277 276 276 276 276 276 276 276 276 276 276 276 276 276
284 284 284 284 284 283 282 282 281 281 280 280 280 280 280 279 278 278 278 277 277 277 277 277 277 277 277 276 276 276 275 276 275 275 275 275 275 276 276 276 275 275
283 284 284 284 283 282 282 282 281 280 280 279 279 279 279 279 278 278 277 277 277 277 276 276 276 276 276 276 275 275 275 275 275 275 275 275 274 275 276 275 274 274
283 283 283 283 282 282 282 281 281 280 280 279 279 278 278 278 277 277 277 277 276 276 276 276 275 275 276 275 275 274 274 275 274 274 274 274 274 274 274 274 274 274
282 282 282 282 281 281 281 280 280 280 279 278 278 278 278 277 277 277 276 276 276 276 275 275 275 275 275 275 274 274 274 274 274 274 274 273 273 273 273 273 273 273
282 281 281 281 280 280 280 280 279 278 278 278 278 277 277 277 276 276 276 276 275 275 275 275 274 274 274 274 274 274 273 273 274 273 273 272 272 272 272 272 272 272
281 281 280 280 280 280 279 279 278 278 278 278 277 276 276 276 276 276 275 275 275 274 274 274 274 274 274 274 273 273 273 273 273 272 272 272 272 271 271 271 270 270
281 280 280 279 279 279 278 277 277 277 277 277 276 276 275 275 275 275 275 274 274 274 273 273 273 273 273 273 272 272 272 272 272 272 271 271 271 271 271 271 270 270
280 279 279 279 278 278 277 277 276 276 276 276 276 275 274 275 274 274 274 274 273 273 273 273 273 273 272 272 271 271 271 271 271 271 271 270 270 270 270 270 270 270
280 279 279 278 278 277 276 276 276 276 275 275 275 274 274 273 273 273 273 273 272 272 272 272 272 271 270 270 270 269 270 270 270 270 270 270 270 270 270 270 270 270
280 279 279 278 278 276 276 275 275 275 275 274 274 273 273 273 272 272 272 272 271 271 271 271 270 270 269 269 269 269 269 270 270 270 270 270 270 270 270 270 271 271
280 279 278 278 277 276 275 275 274 274 274 273 273 273 273 272 272 272 271 271 270 270 270 270 270 270 269 269 268 269 269 269 269 269 270 269 270 270 271 272 272 273
279 278 277 277 276 275 275 274 274 273 273 272 272 272 272 271 271 271 270 270 269 269 270 270 270 270 272 274 272 269 269 269 269 270 270 270 270 271 272 273 273 273
278 277 276 276 276 275 274 274 273 273 272 272 271 271 270 270 270 270 269 269 269 269 269 269 270 270 274 275 276 275 271 269 269 270 270 271 272 272 272 273 274 274
277 276 276 275 275 274 274 273 273 272 272 271 270 269 269 269 269 269 269 269 269 269 269 269 269 272 275 276 277 277 275 270 271 271 272 273 273 273 273 273 273 273
277 276 275 275 274 274 273 273 272 271 270 269 269 269 268 268 269 269 269 269 269 269 269 269 269 274 276 277 277 277 278 276 274 274 273 273 274 274 273 273 273 272
276 276 275 275 274 273 273 272 271 271 270 269 268 268 268 269 269 269 269 269 269 269 269 270 269 273 276 277 277 277 278 278 275 274 274 274 274 274 273 272 272 271
276 276 275 274 273 273 272 271 271 270 269 269 268 268 268 268 267 267 268 268 268 269 269 269 269 274 276 276 276 277 277 277 275 274 274 273 273 272 272 272 272 272
276 275 275 273 272 271 271 271 270 270 269 268 268 267 267 267 268 268 267 268 269 269 269 268 269 274 275 275 276 277 277 275 274 274 272 272 271 272 272 273 273 273
276 275 274 272 272 271 270 270 270 269 268 268 267 267 267 267 267 267 268 268 269 268 268 268 268 272 275 275 276 277 276 274 273 272 272 272 272 272 272 272 273 273
276 275 274 272 271 271 271 271 270 269 268 268 267 266 267 267 268 268 268 268 268 268 268 267 267 270 274 275 275 276 276 273 273 272 271 271 271 272 272 272 273 275
275 274 274 272 271 271 271 270 269 268 268 268 268 268 267 268 268 267 267 267 268 267 269 267 267 269 273 274 275 276 275 273 272 270 270 271 271 271 272 272 273 274
275 274 274 272 271 271 270 269 269 267 267 267 267 267 267 267 267 267 266 266 267 267 268 268 267 267 269 274 275 276 276 273 271 271 270 270 271 271 271 272 273 272

ECMWFNIL_sfc_thetae_018.txt.gz
Theta_e
287 287 287 286 286 286 285 285 285 285 285 285 284 284 284 284 284 283 283 282 281 281 281 280 280 280 280 279 279 279 279 278 278 278 278 278 277 277 277 276 276 276
286 286 286 286 285 285 285 285 285 285 284 284 284 284 284 284 283 283 282 281 281 280 280 280 280 280 279 279 279 278 278 278 277 279 277 277 277 277 277 276 276 276
286 285 285 285 285 284 284 284 284 284 284 284 283 283 283 283 282 282 282 281 281 280 280 280 279 279 279 278 278 278 278 277 277 277 277 277 276 276 276 276 276 276
286 286 286 285 285 284 283 283 283 283 283 282 283 283 283 283 282 282 281 281 280 279 279 279 279 279 278 278 278 277 277 277 277 277 277 276 276 276 275 276 276 276
286 285 285 285 285 284 282 283 282 283 282 282 282 281 282 281 281 281 281 280 280 279 279 279 278 278 278 278 277 277 277 276 276 276 276 275 276 276 276 276 275 275
285 285 285 285 284 283 282 282 283 282 282 281 281 281 281 281 281 280 280 280 279 279 278 278 278 278 278 277 277 277 276 276 276 276 275 275 275 275 276 276 275 274
285 285 284 284 283 283 283 282 282 282 282 281 280 281 281 280 280 280 280 280 279 279 278 278 277 277 277 277 276 276 276 275 275 275 275 274 274 274 275 275 274 274
285 284 284 283 283 282 282 282 282 281 281 280 280 280 280 280 280 280 279 279 278 278 278 277 277 277 277 276 276 275 275 275 275 275 274 274 274 273 274 274 274 273
285 283 283 283 282 282 282 282 281 281 280 280 280 280 280 280 280 279 279 278 278 278 277 277 277 276 276 276 275 275 274 274 274 274 274 273 273 273 273 273 272 272
284 283 282 282 282 282 282 282 281 281 280 280 280 280 279 279 279 279 278 278 277 277 276 276 276 276 275 275 275 275 274 274 274 274 273 273 273 272 272 272 271 271
283 283 282 282 282 282 282 281 281 280 279 279 279 279 279 278 278 278 277 277 277 276 276 275 275 275 275 274 274 274 274 274 273 273 273 272 272 272 273 271 271 270
283 283 282 282 282 282 282 281 281 280 279 279 279 278 278 278 277 277 277 276 276 275 275 275 275 275 274 274 274 274 273 273 273 272 272 271 271 271 271 271 270 270
283 283 283 282 282 282 282 281 280 279 279 279 278 278 277 277 277 276 276 276 275 275 275 274 274 274 274 273 273 272 272 272 271 271 271 270 270 270 271 271 271 271
283 283 283 282 282 282 281 281 280 279 279 279 278 277 277 277 276 276 275 275 275 274 274 274 273 273 273 272 272 271 271 271 270 270 270 270 270 271 271 271 271 271
283 283 282 281 281 281 280 280 279 279 278 278 277 277 277 277 276 276 275 274 274 273 273 273 273 272 272 272 271 271 270 270 270 270 270 269 270 270 271 271 271 271
282 282 281 281 281 280 280 279 278 278 278 277 277 277 276 276 275 275 274 274 273 272 272 272 272 272 274 276 275 271 270 270 269 269 270 270 270 270 270 271 271 272
281 281 281 280 280 280 279 278 278 277 277 276 276 276 275 274 274 274 273 273 272 272 271 271 272 272 277 278 278 276 271 269 269 269 270 270 270 270 271 272 272 273
281 281 280 280 279 279 278 278 277 276 276 276 275 274 274 273 273 273 273 272 272 272 271 271 271 275 279 280 279 278 274 270 270 270 270 270 271 271 272 273 273 274
281 280 279 279 279 278 277 276 276 275 275 274 274 274 273 272 273 273 272 272 272 271 271 271 270 276 280 280 280 279 277 273 271 271 271 271 272 272 273 273 274 274
280 280 279 279 278 277 276 275 275 275 275 275 274 273 273 273 273 272 272 271 271 271 271 271 270 276 280 281 281 280 278 275 271 272 272 273 273 273 274 274 274 273
279 279 278 278 277 277 275 275 274 275 274 274 274 273 273 272 272 271 271 271 270 271 270 270 270 277 281 282 282 281 279 276 272 273 273 273 274 274 274 274 274 273
278 278 278 277 276 275 275 275 274 274 274 274 273 273 273 272 272 271 270 270 270 270 269 269 270 278 281 282 282 282 282 275 273 273 273 273 274 274 274 274 273 272
278 278 277 276 275 274 274 274 274 274 274 273 272 272 272 271 271 271 270 269 269 269 269 269 269 277 281 281 282 282 281 275 274 273 273 273 273 273 273 273 272 272
278 277 277 276 275 274 274 275 275 275 274 273 272 271 271 270 270 269 269 269 269 269 269 269 269 276 281 281 281 282 279 274 274 273 272 272 272 272 272 271 272 274
277 277 277 276 275 275 275 275 274 274 273 272 272 271 270 270 269 269 268 269 269 269 272 270 269 275 281 281 281 281 278 274 273 272 271 271 271 271 272 271 271 273
276 277 277 276 275 275 275 275 274 273 271 271 271 270 270 269 269 269 268 268 269 269 270 270 270 273 277 280 280 281 280 274 273 272 270 271 271 270 270 271 271 272

ECMWFNIL_sfc_thetae_021.txt.gz
Theta_e
288 288 288 287 287 288 287 286 286 286 286 286 286 286 285 285 285 284 284 283 283 282 282 282 282 281 281 281 281 281 280 280 280 279 279 279 278 278 278 277 277 277
287 287 287 287 286 287 287 286 286 286 286 286 286 286 285 285 285 284 284 283 283 282 282 281 281 281 281 281 280 280 279 279 279 279 278 278 278 278 278 277 277 277
287 286 286 286 287 286 286 285 285 285 285 285 285 285 285 285 284 284 284 283 282 282 281 281 281 281 281 280 280 280 279 279 278 278 278 278 277 277 277 277 277 277
287 287 287 287 287 286 285 284 284 285 285 284 285 285 285 285 284 283 283 283 282 281 281 281 281 280 280 280 280 279 279 279 279 278 278 277 277 277 277 277 277 276
287 287 287 287 286 286 284 284 284 284 284 285 284 284 284 283 283 283 283 282 282 281 281 280 280 280 280 279 279 279 278 278 278 278 277 277 277 277 277 276 276 276
287 287 287 287 286 285 284 284 284 284 284 283 284 284 283 283 283 283 282 282 281 281 280 280 280 280 279 279 278 278 278 277 277 277 277 276 276 276 276 276 276 275
286 286 286 286 285 285 284 284 284 284 284 284 283 282 283 283 282 282 282 282 281 281 280 280 279 279 279 278 278 277 277 277 276 277 276 276 276 275 276 275 275 275
286 286 286 285 285 284 284 284 283 283 283 282 282 282 283 282 282 282 282 281 281 280 280 280 279 279 278 278 278 277 276 276 276 276 276 275 275 275 275 275 275 274
286 285 285 284 284 284 284 284 283 283 283 282 282 282 282 282 282 282 281 281 280 280 279 279 279 278 278 278 277 277 276 276 276 276 276 275 275 275 275 275 274 274
285 285 284 284 284 284 284 284 284 283 282 282 282 282 281 282 282 281 281 280 280 279 279 279 278 278 278 278 277 277 276 276 276 276 276 275 275 275 274 274 274 273
284 284 284 284 284 284 284 284 283 283 282 282 281 281 281 281 281 281 280 280 280 279 279 278 278 278 277 277 277 277 277 276 276 276 275 275 275 275 275 274 273 273
284 284 284 284 284 284 284 284 283 283 281 281 281 281 281 281 280 280 280 280 280 279 279 278 278 278 277 277 277 277 276 276 276 275 275 275 274 274 274 273 273 272
284 284 284 284 284 284 284 283 283 282 281 281 281 281 280 280 280 280 280 280 280 279 279 278 278 277 277 277 276 276 276 275 275 274 274 274 274 273 273 272 272 271
284 284 284 285 284 284 283 283 282 282 281 281 280 280 280 280 280 280 280 280 280 279 279 278 277 277 277 276 276 276 275 274 274 273 273 273 272 272 272 272 271 271
284 284 284 284 283 283 282 282 282 282 281 280 280 280 280 280 280 280 279 279 279 279 278 278 277 277 277 276 275 275 275 274 273 273 272 272 271 271 271 271 270 270
283 283 283 283 283 282 282 282 282 281 280 280 280 280 280 280 279 279 279 278 278 277 277 277 277 277 278 280 279 275 274 273 273 272 272 271 271 270 270 270 270 270
282 282 282 282 283 283 282 281 281 280 280 279 279 279 279 278 279 278 278 278 278 277 276 276 276 276 280 282 281 280 275 273 272 272 272 271 271 270 269 270 270 270
282 282 281 282 282 282 282 281 281 280 279 279 278 278 278 278 278 278 278 278 278 277 276 276 276 279 281 282 282 281 278 273 272 272 271 271 271 270 270 270 270 270
281 281 281 281 281 282 281 281 280 280 279 278 278 278 278 278 278 278 278 278 277 276 276 276 275 280 282 283 282 282 280 275 272 272 271 271 271 271 271 271 271 271
281 281 281 281 281 281 280 280 279 279 279 279 278 278 278 278 277 277 277 277 276 276 276 275 275 279 282 283 283 282 281 277 271 271 271 271 271 271 272 273 273 273
280 280 280 280 280 280 280 279 279 278 278 278 278 278 278 277 277 276 276 276 276 275 275 274 274 280 282 283 283 283 282 277 271 271 271 271 272 273 273 274 274 274
278 279 279 279 279 279 279 279 278 278 278 278 277 277 277 277 276 276 276 275 275 275 274 273 273 280 282 283 284 283 282 273 271 271 271 272 272 273 274 274 275 275
279 279 279 278 278 278 278 278 278 277 277 277 276 276 276 275 275 275 276 275 274 274 273 273 273 279 282 283 284 284 280 271 271 271 271 272 272 273 274 274 275 274
279 279 279 278 277 277 277 277 276 276 276 276 276 275 274 274 275 274 274 274 273 273 273 272 272 277 282 283 284 284 279 271 271 271 271 272 272 274 274 274 275 276
278 278 279 278 277 277 276 276 276 276 276 274 274 275 274 274 273 273 273 272 273 273 275 273 272 276 282 283 284 284 278 272 272 272 272 272 272 273 273 273 273 275
277 277 277 277 277 276 275 275 274 272 272 273 273 273 272 272 271 272 271 271 272 272 272 273 271 273 279 283 284 284 280 273 273 272 271 272 272 272 271 272 272 273

ECMWFNIL_sfc_thetae_024.txt.gz
Theta_e
288 288 289 289 289 289 288 287 287 287 287 287 287 287 287 287 286 285 284 284 284 284 283 283 283 282 282 281 281 281 280 280 280 280 280 280 279 279 279 278 278 278
288 288 288 288 288 288 288 287 287 287 287 287 287 287 287 286 286 285 284 284 284 283 283 282 282 282 282 281 281 280 280 280 279 280 279 279 279 279 279 279 278 278
287 287 287 287 288 287 287 286 286 286 286 286 286 286 286 286 285 285 285 284 283 283 283 282 282 282 281 281 281 280 280 279 279 279 279 279 278 278 278 278 278 278
287 287 287 287 287 286 286 285 285 285 285 285 286 286 286 286 285 284 284 284 283 283 282 282 281 281 281 281 280 280 280 279 279 278 278 278 278 278 277 277 278 277
287 287 287 287 286 284 283 284 284 285 285 286 285 285 285 285 284 284 284 284 283 283 282 281 281 281 281 280 280 280 279 279 278 278 278 278 277 278 277 277 277 277
286 287 287 286 286 285 284 284 285 284 284 283 285 285 284 284 284 284 284 283 283 283 282 281 281 281 280 280 280 280 279 279 278 278 278 277 277 277 277 277 277 276
286 286 286 285 284 284 285 284 284 284 284 285 283 284 284 284 284 284 284 284 283 283 282 281 281 280 280 280 280 279 279 279 278 278 278 277 277 276 277 277 277 276
285 284 284 284 284 284 284 284 284 284 284 283 283 284 284 284 284 284 284 283 283 282 282 281 281 281 280 280 279 279 278 278 278 277 277 277 277 276 276 276 276 276
284 284 284 284 284 284 284 285 284 284 284 284 284 284 284 284 284 284 284 283 283 282 282 281 281 281 280 280 280 279 278 278 278 278 277 277 276 276 276 276 276 275
284 284 284 284 284 285 285 285 285 285 284 284 284 284 283 283 284 284 283 283 282 282 282 281 281 281 280 280 280 279 279 278 278 277 278 277 277 277 276 276 275 275
284 284 284 284 284 285 285 285 285 285 284 284 283 283 283 283 283 283 283 282 282 282 281 281 281 281 280 279 279 279 279 278 278 277 278 278 277 277 278 276 275 275
284 284 284 284 285 285 285 285 286 285 284 283 283 283 282 282 282 282 283 282 282 282 282 281 281 280 280 279 279 279 279 278 278 277 277 277 277 277 277 276 275 275
283 283 284 284 285 285 286 285 285 284 284 283 283 283 282 282 282 282 282 283 282 282 282 281 281 280 280 279 279 278 278 278 277 277 277 277 277 276 276 276 276 275
283 284 284 284 285 285 285 285 284 284 284 284 283 282 282 282 282 282 282 282 282 282 282 281 280 280 279 279 279 278 278 277 277 277 276 276 276 275 275 275 275 275
284 284 285 285 285 284 284 284 284 284 284 284 283 282 283 282 282 282 281 281 281 281 281 281 280 280 279 279 278 278 278 277 277 277 276 275 275 274 275 275 274 274
283 283 284 284 284 284 284 284 284 283 283 283 282 282 282 282 281 281 281 281 281 281 281 281 280 280 281 283 282 278 277 277 277 276 276 275 274 274 273 273 273 273
283 282 282 283 283 284 284 284 284 283 283 282 282 281 281 280 280 280 280 281 281 280 280 280 280 280 283 284 284 284 279 277 276 276 275 275 274 273 273 273 272 273
282 282 281 281 282 282 283 284 283 283 282 282 281 280 280 280 280 280 280 280 280 280 280 280 280 282 284 285 285 285 282 278 277 276 275 275 274 274 273 273 272 271
282 281 281 280 281 281 281 281 281 281 281 281 280 281 280 280 280 280 280 280 280 280 279 280 279 283 284 285 285 285 284 280 277 276 275 275 274 274 273 273 272 271
283 282 280 280 279 279 279 279 279 280 281 281 280 280 279 280 280 279 280 279 279 279 279 279 279 282 284 285 285 286 285 282 277 276 275 275 274 274 273 273 272 271
282 281 281 280 279 278 277 277 278 279 279 279 279 280 280 279 279 279 279 279 279 279 279 279 278 282 284 285 285 286 286 283 276 275 275 274 274 274 273 272 272 272
282 281 280 280 279 278 276 277 277 277 278 278 278 278 279 279 279 279 279 279 279 279 278 278 278 282 284 285 286 286 286 280 275 274 274 273 273 273 273 273 273 273
282 281 280 280 279 278 277 277 277 277 277 277 276 277 278 278 279 279 279 279 278 278 277 277 277 281 283 285 285 286 285 278 275 274 273 273 272 273 273 273 273 274
282 282 281 281 279 278 278 278 277 277 278 277 277 277 278 278 278 278 278 277 277 277 277 277 276 279 283 284 285 286 284 277 274 273 272 272 272 272 273 273 274 276
282 282 282 281 280 280 279 278 278 279 279 277 277 278 278 278 276 277 276 276 276 277 278 277 276 277 282 284 285 286 283 275 273 272 271 271 272 272 273 274 274 276
283 282 282 281 281 281 280 280 279 277 277 277 277 276 276 276 275 275 275 275 275 275 275 276 275 275 279 284 285 285 284 274 273 272 271 271 272 272 272 273 274 275

ECMWFNIL_sfc_thetae_027.txt.gz
Theta_e
290 290 291 292 292 293 292 291 291 291 291 291 291 290 290 291 291 289 289 290 289 289 289 288 288 288 287 287 286 286 286 286 286 286 285 285 285 285 284 284 285 285
289 289 289 290 290 291 290 290 290 290 290 291 291 291 291 291 290 290 289 289 289 289 288 288 288 287 287 286 286 285 285 285 285 285 285 284 284 284 284 284 284 284
288 288 288 289 289 289 289 289 289 289 289 290 290 290 290 290 290 289 289 289 288 288 288 288 287 287 287 286 286 285 285 285 284 285 284 284 284 283 284 284 284 284
287 287 288 288 288 288 288 288 288 288 288 289 289 289 289 289 289 288 288 287 288 287 287 287 287 286 286 286 285 285 285 284 285 284 284 284 284 284 283 283 283 283
287 287 287 288 288 288 288 288 287 287 287 288 288 288 288 288 288 288 288 287 287 287 287 286 286 286 286 285 285 284 284 284 284 283 283 283 283 283 283 282 282 281
287 287 287 288 288 288 287 287 287 287 287 287 288 288 288 288 288 288 287 287 287 287 286 286 286 285 285 285 284 284 284 283 283 283 282 282 282 282 282 282 282 281
286 286 286 287 287 287 287 287 287 287 287 287 287 287 287 287 287 287 287 287 287 286 286 285 285 285 285 284 284 283 283 283 282 282 282 282 282 281 281 281 281 281
286 285 286 286 286 286 286 286 286 286 287 286 286 287 287 287 287 287 287 287 287 286 286 286 285 285 284 284 283 283 283 283 282 281 281 282 281 280 280 280 281 280
285 285 285 285 285 286 286 286 287 286 286 286 286 286 286 287 287 287 287 287 286 286 286 285 285 284 284 283 283 283 283 282 282 281 281 281 281 280 280 280 280 280
284 284 284 285 285 285 285 286 287 287 286 285 286 286 285 286 286 287 286 286 286 286 286 285 285 284 284 283 283 283 283 282 282 281 281 282 281 280 280 280 279 279
285 285 284 284 284 285 285 286 286 287 286 286 285 285 285 285 285 286 286 286 285 285 285 285 285 284 284 283 283 283 283 283 282 282 281 281 281 281 281 280 279 279
285 285 285 285 285 285 285 286 286 286 286 286 286 285 285 285 285 285 285 285 285 286 286 285 285 285 284 284 283 283 283 283 282 282 281 281 281 281 281 280 280 280
285 284 284 284 284 285 285 285 285 286 286 286 286 286 285 285 285 284 285 285 285 285 285 285 285 285 284 284 283 283 283 282 282 282 281 281 281 281 281 280 280 280
285 285 285 284 284 284 285 285 285 285 285 285 286 285 285 285 285 284 284 284 285 285 285 285 285 284 284 284 283 283 283 282 282 282 281 281 281 281 281 280 280 280
285 285 285 285 285 284 284 284 285 285 285 285 285 285 285 285 285 285 284 283 284 284 284 285 284 284 284 284 283 283 283 282 282 282 281 280 280 280 280 280 280 280
285 284 284 284 284 284 284 284 284 284 285 285 285 285 285 285 285 284 284 284 283 283 284 284 284 284 285 285 285 283 282 282 282 281 281 280 280 280 279 279 279 279
284 284 284 283 284 284 284 284 283 284 284 284 284 284 284 284 284 284 284 284 283 283 283 283 284 284 286 287 287 286 283 282 281 281 281 280 280 280 279 279 278 279
284 284 283 283 283 283 283 283 283 283 283 283 283 283 283 283 282 283 283 284 283 283 283 283 283 285 286 287 287 287 286 282 282 281 280 280 280 279 279 279 278 278
283 283 283 283 283 283 282 282 281 282 282 282 282 283 283 282 282 282 282 283 283 283 283 283 283 286 286 287 287 287 287 285 282 281 280 280 280 279 279 278 278 277
283 283 282 282 283 283 282 281 280 280 281 281 282 282 282 282 282 282 282 282 282 282 282 283 283 285 286 287 287 287 288 286 282 281 280 280 279 279 279 278 277 277
282 282 282 282 282 282 282 281 281 280 280 281 281 281 281 282 282 281 281 281 282 282 282 282 282 285 286 286 287 287 288 287 283 281 280 280 280 279 279 278 277 277
281 281 281 282 282 282 282 282 282 281 281 280 280 280 280 280 280 280 280 281 281 281 281 281 281 284 285 286 287 287 288 286 284 281 280 279 279 279 278 278 277 276
279 279 279 281 282 282 282 281 282 281 281 281 279 279 279 279 279 280 280 280 280 280 280 280 280 283 285 285 286 287 287 285 284 281 280 279 278 278 278 277 276 276
278 278 279 281 282 282 281 281 281 281 281 280 279 279 278 278 279 279 279 279 279 279 279 279 280 281 283 285 286 286 286 284 283 282 279 278 278 278 277 277 276 277
276 277 279 281 281 281 280 279 279 280 280 280 279 278 278 278 278 278 278 278 278 279 280 280 279 280 283 284 285 286 286 285 283 281 279 278 277 276 276 276 275 276
275 276 279 280 279 278 278 278 279 279 279 279 279 278 277 277 277 277 276 277 277 277 277 278 279 279 280 283 284 285 286 285 283 280 278 277 276 275 274 274 274 275

ECMWFNIL_sfc_thetae_033.txt.gz
Theta_e
295 295 295 296 296 297 297 298 299 299 299 299 299 299 300 300 300 300 299 299 299 299 299 299 299 298 298 298 297 296 296 296 295 295 295 294 294 293 293 294 295 295
293 294 294 295 295 296 296 297 297 297 297 298 298 299 299 300 301 300 299 299 299 298 299 299 298 298 297 297 297 296 295 294 294 295 294 293 293 293 293 293 293 294
292 293 293 293 293 294 294 295 296 296 296 297 297 298 298 299 299 300 299 299 298 298 298 298 298 297 297 296 296 295 294 294 293 294 293 293 293 292 292 293 293 293
292 292 292 292 293 293 293 294 294 295 295 295 296 297 297 298 298 298 299 297 297 297 297 297 297 297 296 296 295 294 294 294 293 294 293 293 293 292 292 292 292 292
291 291 292 292 292 292 293 292 292 293 293 294 295 295 295 296 296 296 296 297 297 296 296 296 296 296 295 295 295 294 294 293 293 293 292 292 292 292 292 291 291 290
290 290 291 291 291 292 291 291 291 291 291 292 293 293 293 294 294 294 295 295 295 295 295 295 295 295 295 294 294 293 293 292 292 292 291 291 291 291 291 291 290 290
289 289 289 289 290 291 290 290 291 291 291 291 291 292 292 292 292 293 293 294 294 294 294 294 294 294 294 294 293 292 292 292 292 291 291 291 291 290 291 290 290 289
289 289 289 289 288 288 288 289 289 290 291 291 290 291 291 291 291 292 292 292 292 293 293 294 294 294 293 293 292 292 291 292 291 291 290 290 290 289 290 290 290 289
288 288 288 288 288 288 287 288 288 288 290 289 290 290 290 290 290 291 291 291 291 292 292 292 293 293 293 292 292 291 291 291 291 290 289 289 289 289 289 289 289 288
287 287 287 286 286 287 287 288 288 288 289 288 289 289 288 289 289 289 290 290 290 290 290 291 291 292 292 292 291 291 290 290 290 289 289 289 289 288 289 288 288 287
287 286 286 286 286 287 287 287 288 288 288 288 288 288 289 288 288 288 288 288 288 289 289 289 289 290 290 290 291 290 290 290 289 289 289 289 288 288 288 288 288 287
286 286 286 286 286 286 286 287 287 287 287 287 288 287 288 288 288 288 287 287 287 287 287 288 288 288 288 289 289 289 289 289 289 289 288 288 288 288 288 288 288 287
285 285 286 286 286 286 287 287 287 287 287 286 287 287 287 287 287 288 288 288 288 288 287 287 287 287 287 287 288 288 288 288 288 288 288 288 288 288 288 288 288 287
285 286 286 286 286 286 286 286 286 287 287 287 287 286 286 286 286 286 287 287 287 287 288 288 287 286 286 287 288 288 287 287 287 287 287 287 287 288 288 287 287 287
285 286 286 285 285 285 285 285 285 286 287 287 286 286 287 286 286 286 286 286 287 287 287 287 287 287 287 286 286 286 287 287 287 287 287 286 286 287 287 287 287 287
285 285 285 285 285 284 284 284 284 285 286 286 286 286 286 286 286 285 285 285 286 286 286 287 287 288 287 288 288 286 286 286 286 286 286 286 286 286 286 286 286 286
284 284 284 284 284 284 283 283 283 284 285 285 285 285 285 285 285 285 285 285 285 285 285 286 287 287 288 290 290 290 288 286 285 285 286 285 285 285 285 286 286 286
283 283 283 283 283 282 282 281 282 283 284 285 285 285 284 284 284 284 284 284 284 284 284 285 285 287 288 289 289 289 289 287 286 286 285 285 285 285 285 285 285 286
283 282 282 282 282 281 281 280 280 281 282 284 284 284 284 283 283 283 283 284 284 283 283 284 285 287 287 288 288 288 288 288 287 286 286 285 285 285 285 285 285 285
282 282 281 281 281 280 280 279 279 279 281 283 284 284 283 282 282 282 283 283 283 283 283 283 283 285 287 287 287 288 288 288 286 286 286 286 286 285 285 285 285 285
281 281 281 281 280 280 279 278 278 278 279 281 282 282 281 280 281 281 282 282 282 282 282 282 283 285 286 287 287 287 287 287 286 286 286 286 286 286 286 285 285 285
280 280 280 280 279 279 278 277 277 277 277 279 281 281 280 280 280 280 280 280 280 281 281 281 282 285 285 286 287 287 287 285 285 285 285 285 285 286 286 286 286 285
280 279 279 279 278 277 276 276 276 276 277 278 279 279 278 278 277 277 278 279 279 279 279 280 281 283 285 285 286 286 286 284 284 284 284 284 285 285 286 286 286 286
279 279 278 278 277 276 276 276 276 276 276 277 277 276 276 276 276 276 276 277 278 278 279 279 280 282 284 284 285 285 285 283 283 283 283 283 284 285 285 286 286 286
278 278 278 277 276 276 275 274 274 274 275 276 276 275 274 275 275 274 274 275 276 277 279 279 280 281 283 283 284 285 284 283 283 282 282 282 283 283 285 285 285 286
277 276 276 276 275 274 274 274 274 274 274 274 274 274 273 273 273 273 272 273 275 276 276 277 277 278 280 283 283 284 285 283 283 282 281 281 282 283 283 284 285 285

ECMWFNIL_sfc_thetae_036.txt.gz
Theta_e
289 289 290 290 290 291 291 290 291 292 292 292 292 293 293 294 294 293 293 293 293 293 293 293 293 292 294 293 292 292 291 290 290 290 290 290 289 289 289 288 288 288
287 288 288 288 288 289 289 290 290 290 291 291 292 291 293 293 293 293 293 292 292 292 292 292 292 292 292 292 291 290 290 289 289 290 289 288 288 288 288 287 287 288
287 286 287 286 287 286 287 289 289 289 289 290 290 291 292 292 292 292 293 292 291 291 292 292 291 291 291 289 289 289 289 288 288 287 287 287 287 287 287 287 287 286
286 286 286 286 287 286 286 286 286 287 287 287 288 290 291 291 291 290 291 291 291 290 289 289 289 289 289 289 288 289 288 288 288 287 287 287 287 287 287 286 286 286
285 286 286 286 286 286 285 285 285 285 285 286 287 287 288 288 288 288 288 288 288 288 289 288 287 288 288 288 287 288 287 288 286 286 286 286 286 286 287 286 286 286
284 285 285 285 285 285 285 285 285 285 285 285 286 286 286 286 286 286 287 286 287 287 287 287 287 287 288 288 288 288 288 288 287 286 286 286 286 286 287 286 286 286
283 283 284 284 284 284 284 284 284 285 285 285 286 286 286 286 285 286 286 286 286 287 286 287 286 287 287 286 287 287 287 286 286 286 286 286 286 286 285 285 285 286
282 282 283 283 282 283 283 283 284 284 285 285 285 286 286 286 286 285 285 286 286 286 287 288 288 287 286 286 287 286 286 287 287 286 286 285 285 285 285 286 286 285
281 281 281 280 280 281 281 282 283 283 284 284 284 285 285 285 285 285 285 285 285 285 285 286 287 287 287 287 287 286 286 286 286 285 285 285 285 285 285 285 285 285
281 280 281 280 280 280 281 281 282 282 283 283 283 284 284 285 285 285 285 285 285 285 285 285 285 285 285 286 286 286 286 286 285 285 285 285 285 285 284 284 284 285
280 280 280 280 280 280 280 280 281 282 282 282 282 282 283 283 284 284 285 285 285 285 285 285 285 284 284 284 285 285 286 286 286 285 285 285 285 285 286 284 284 284
279 279 279 279 279 279 279 280 280 280 281 282 281 282 282 282 282 283 283 284 284 284 284 284 284 284 284 284 284 284 285 285 285 285 285 285 285 285 285 285 285 285
278 278 279 279 279 279 280 279 279 279 280 281 281 281 281 281 281 281 282 283 283 284 284 284 284 284 284 284 284 284 284 284 284 285 285 285 285 285 285 284 285 284
279 279 279 280 279 279 279 279 279 278 279 280 280 280 281 280 280 281 281 281 282 282 283 284 284 284 284 284 284 284 284 284 284 284 284 284 284 285 285 285 285 285
278 278 279 278 278 278 278 278 278 277 278 279 280 280 282 281 281 281 280 280 281 281 281 282 283 284 284 284 284 284 284 283 284 284 284 284 284 284 284 285 285 285
278 277 278 278 278 278 278 278 278 277 278 278 279 280 281 281 281 280 279 280 280 280 280 281 282 283 285 287 288 286 284 284 284 284 283 283 283 283 284 284 285 285
277 277 278 277 278 278 277 277 277 277 276 277 277 278 279 280 281 280 280 280 279 279 279 280 281 282 285 288 288 289 287 284 284 284 283 283 283 283 283 284 284 285
278 278 277 278 277 277 277 277 276 276 276 276 276 276 278 279 279 280 280 280 280 279 279 280 280 284 286 286 287 288 288 285 283 283 283 283 283 283 283 284 284 284
277 277 277 278 278 278 277 277 277 276 276 276 276 277 277 277 278 279 279 279 278 278 279 279 279 283 285 285 286 287 287 287 283 283 282 282 283 283 283 283 283 284
278 277 277 278 278 278 277 277 276 276 276 276 276 276 276 276 277 278 278 278 278 278 278 279 279 282 284 284 285 286 287 286 283 282 282 282 282 282 283 283 283 283
278 277 277 278 277 277 277 277 277 276 276 275 275 275 275 276 276 277 278 278 278 277 277 277 278 282 283 284 284 285 286 286 283 282 282 281 282 282 282 283 283 284
277 277 277 277 277 276 276 276 276 276 276 276 275 275 275 275 276 276 276 276 277 276 276 276 277 281 282 283 284 284 285 283 282 281 281 280 280 281 281 282 282 283
277 276 276 276 275 275 275 275 275 275 275 275 274 274 274 274 274 274 275 275 275 275 275 275 275 278 281 282 283 284 283 281 281 280 280 279 280 280 281 281 282 282
275 275 274 273 273 272 273 273 274 274 274 274 273 272 272 273 273 273 273 274 274 273 274 273 274 277 279 280 281 282 282 280 280 279 278 278 279 279 280 280 281 283
273 273 272 271 271 271 271 271 271 272 272 273 272 272 272 272 272 272 272 273 273 272 274 273 272 274 278 279 280 281 280 279 279 278 278 278 278 278 279 280 280 282
270 270 270 269 269 269 269 269 270 270 270 270 270 271 270 271 271 271 270 271 271 271 271 271 271 271 273 277 278 279 280 278 277 276 276 277 278 278 278 278 279 280

ECMWFNIL_sfc_thetae_039.txt.gz
Theta_e
285 286 286 286 286 287 287 287 288 288 288 288 288 289 289 290 290 290 290 291 291 290 290 289 289 289 291 289 289 290 290 289 289 288 288 288 288 287 289 288 287 288
283 284 285 285 285 285 285 286 286 286 286 287 288 288 289 289 290 289 289 289 290 290 290 289 288 288 288 288 288 287 288 288 288 289 287 286 286 286 287 286 286 286
283 283 283 283 283 283 283 284 285 285 285 285 286 287 288 288 288 288 288 288 289 289 289 289 288 288 287 286 286 286 287 287 287 288 286 286 286 285 286 286 286 286
283 283 283 283 283 283 283 283 283 284 284 284 284 285 286 286 286 286 287 287 287 287 287 287 288 288 286 286 285 286 286 286 287 286 286 286 285 285 285 285 285 285
282 283 283 283 282 282 282 282 282 283 283 283 284 284 285 285 285 284 284 285 285 286 286 286 286 287 287 287 286 287 286 287 286 285 285 286 286 286 286 285 284 284
282 282 282 282 282 282 282 282 282 283 283 283 283 283 284 284 284 284 284 284 284 285 285 285 286 286 286 286 286 287 287 287 287 284 285 285 286 286 286 285 284 284
281 281 281 281 280 280 280 281 282 282 282 282 282 282 283 283 283 283 283 283 283 284 284 285 285 286 286 286 286 286 286 286 286 285 285 285 285 285 285 284 284 284
281 281 281 281 280 280 280 280 281 281 281 282 282 282 282 282 282 283 283 283 283 283 284 284 284 284 285 286 286 286 286 287 287 286 285 285 285 285 285 285 285 284
280 280 280 280 280 279 279 279 279 279 280 280 281 281 282 282 282 282 282 282 282 282 282 283 283 283 284 284 285 285 285 286 286 286 285 285 285 285 285 285 285 284
279 279 279 279 279 279 279 278 279 279 279 279 280 281 281 282 281 281 281 281 281 281 281 282 282 283 283 283 283 283 284 284 284 285 285 285 285 285 285 285 285 284
278 278 278 279 279 279 278 278 278 278 278 278 279 279 280 280 281 281 281 281 281 280 281 281 281 282 282 282 283 283 283 283 283 284 284 284 285 285 286 285 285 284
276 277 278 278 279 279 278 279 279 279 278 278 278 279 279 279 279 280 280 280 280 280 280 280 280 281 281 282 282 282 282 282 282 282 283 283 284 284 284 284 285 285
277 277 277 277 278 278 278 278 279 278 278 278 278 278 278 279 279 279 280 279 280 280 280 280 280 280 280 280 281 281 281 282 282 282 282 282 283 283 283 283 284 284
277 277 278 278 278 278 278 278 278 278 278 278 277 277 278 278 278 279 279 279 280 280 280 280 279 279 279 280 280 280 281 281 281 281 282 282 282 282 282 283 283 284
278 278 279 278 278 278 278 278 278 278 278 277 277 277 278 278 278 278 279 279 279 279 279 279 279 280 280 279 279 280 280 280 281 281 281 282 282 282 282 282 283 283
276 277 277 277 278 278 278 278 278 278 278 278 277 277 277 277 277 277 278 278 278 279 279 279 279 280 282 284 285 282 281 281 281 281 281 281 281 281 281 282 282 282
276 277 277 277 278 278 277 277 278 278 278 277 277 277 277 277 277 276 277 277 277 277 278 279 279 280 283 285 285 286 284 282 281 281 280 281 281 281 281 281 281 282
277 277 277 278 278 278 278 278 277 277 277 277 277 277 277 276 276 276 277 277 277 277 277 277 278 281 283 284 285 285 286 283 282 281 281 280 280 280 280 280 281 281
277 277 277 277 277 277 277 277 277 277 277 277 276 276 276 276 276 276 276 276 276 276 276 277 277 281 282 283 284 284 285 284 282 281 280 280 280 280 280 280 280 280
276 276 276 276 276 275 276 275 275 275 275 275 275 275 275 275 275 275 275 275 275 275 275 276 276 279 282 282 283 283 284 284 281 281 280 280 280 280 280 280 280 280
274 274 273 273 273 274 273 273 273 273 273 274 274 274 274 274 274 274 274 274 274 275 274 275 275 279 281 281 282 282 283 283 280 280 280 280 280 280 280 280 280 281
272 271 271 271 271 271 270 270 270 271 271 271 272 272 272 272 273 273 273 273 273 273 273 273 274 278 279 280 280 281 282 279 278 278 278 278 278 279 279 280 280 280
270 269 268 268 268 267 267 268 268 268 268 269 268 269 269 269 269 270 271 271 271 271 271 271 272 275 278 278 279 280 280 277 276 276 276 276 276 277 278 278 279 280
267 266 265 265 265 265 265 265 265 265 265 267 266 266 266 267 268 268 269 269 270 270 270 270 271 274 277 278 279 279 279 275 275 274 274 274 275 276 277 278 279 281
264 263 263 263 262 263 262 262 262 263 264 264 264 265 264 265 266 265 266 266 267 268 270 270 269 271 275 276 277 277 276 273 273 272 272 272 273 273 275 275 276 279
262 262 261 261 261 261 261 261 262 262 262 262 262 262 262 262 263 263 263 264 265 266 266 267 267 268 270 274 275 276 277 273 272 272 271 271 272 272 272 273 274 275

ECMWFNIL_sfc_thetae_042.txt.gz
Theta_e
284 284 283 283 283 284 284 284 284 284 284 284 284 284 285 285 286 286 286 287 287 287 288 288 288 288 289 289 289 289 289 289 288 288 287 286 286 286 287 287 288 288
283 283 283 282 283 283 284 284 284 284 283 284 284 284 284 285 285 285 285 285 286 286 287 287 287 287 287 287 287 287 287 287 288 289 287 286 286 285 285 285 285 286
281 281 282 281 281 281 283 284 284 284 284 284 284 284 284 285 284 284 284 285 285 285 286 286 286 286 286 286 286 286 286 286 287 288 286 286 286 285 285 285 285 284
280 280 281 281 281 281 281 282 283 284 284 283 283 284 284 284 284 284 284 284 283 283 284 284 285 285 285 286 286 286 286 286 286 286 286 286 286 286 286 285 285 284
281 280 280 279 280 281 281 282 282 282 282 283 283 283 283 283 283 283 283 283 282 283 283 283 283 284 284 284 284 284 285 285 286 286 286 286 287 286 287 286 285 285
280 279 279 281 281 280 280 280 280 280 280 281 282 283 283 283 282 282 282 282 282 281 281 282 282 282 283 283 283 283 283 284 284 285 285 285 285 286 286 286 285 285
279 279 279 280 280 281 280 281 281 281 281 280 280 280 282 281 281 281 282 282 282 282 281 281 280 280 281 281 281 282 282 282 283 283 283 284 284 285 285 285 285 285
278 278 278 278 278 278 278 279 279 280 280 280 280 280 280 280 280 281 281 281 281 281 281 281 281 280 280 280 280 280 280 282 282 281 282 282 283 283 284 285 284 284
277 277 277 277 277 277 277 277 277 278 279 279 279 279 279 280 280 280 280 280 280 280 280 280 280 280 280 280 280 279 279 280 280 280 280 280 281 281 282 283 283 283
276 276 276 276 277 277 277 277 278 278 278 278 279 279 279 280 280 280 280 280 280 280 280 280 280 279 279 279 279 280 280 280 280 280 280 279 280 280 281 281 282 282
276 276 276 276 276 276 277 277 277 278 278 277 278 278 279 279 279 279 279 279 280 279 280 280 280 280 280 279 279 279 279 279 280 279 279 279 280 280 281 280 280 281
276 275 275 275 276 276 276 277 277 277 277 277 277 277 278 278 278 278 279 279 279 279 279 279 279 280 280 280 280 280 279 279 279 279 279 279 279 280 280 280 280 280
275 275 276 276 276 276 277 276 276 276 276 276 276 276 276 276 277 277 277 278 278 278 279 279 279 279 279 279 279 279 279 279 279 279 279 279 279 279 280 280 280 280
276 276 276 277 277 277 277 277 277 277 277 277 276 276 276 276 277 277 277 277 277 277 277 278 278 278 278 278 278 278 278 278 278 278 278 279 279 279 279 280 280 280
276 277 278 277 278 278 278 278 278 278 278 278 277 277 278 277 277 277 276 276 277 277 277 277 277 277 278 278 277 278 278 278 278 279 279 279 279 279 280 280 280 280
276 276 277 277 277 277 277 277 276 276 276 276 276 276 276 277 277 277 276 276 276 276 276 277 277 277 279 281 281 280 279 280 280 279 279 279 279 279 279 280 280 280
276 276 276 275 276 275 275 275 275 275 274 274 275 275 275 275 275 275 275 275 275 275 275 275 276 276 280 281 282 282 281 279 279 279 279 279 279 279 279 279 279 280
274 274 274 274 273 273 272 272 272 272 272 272 272 272 272 273 272 273 273 273 274 274 274 274 274 278 280 280 281 282 282 279 278 278 278 278 278 278 279 279 279 279
273 272 271 271 270 270 270 270 269 269 269 269 269 270 271 270 271 271 271 271 271 271 271 272 273 276 278 279 280 281 281 280 278 277 277 277 277 277 278 278 278 278
270 269 269 268 268 268 268 267 267 267 267 268 268 269 269 268 268 269 269 269 269 269 269 270 270 274 276 278 279 279 280 279 276 276 276 276 276 276 276 277 277 277
268 267 266 266 265 265 265 265 265 265 266 266 266 266 266 265 266 266 266 267 267 267 267 268 269 273 275 276 277 278 278 278 275 275 274 274 275 275 275 276 276 276
265 264 264 263 263 263 262 263 263 263 263 264 264 264 264 264 264 265 264 265 265 265 265 265 266 271 273 274 275 276 277 274 274 274 273 273 274 274 275 275 275 275
264 263 262 261 261 261 261 261 261 261 261 262 261 262 262 262 262 262 263 262 262 263 263 263 263 267 271 272 273 274 273 270 271 271 272 272 272 273 273 273 274 274
262 261 260 260 260 259 259 260 260 261 260 261 261 260 260 261 261 261 261 261 261 261 262 262 262 266 270 271 272 272 272 269 269 269 270 270 271 272 273 273 273 275
261 260 260 259 259 259 259 259 259 259 260 260 260 260 260 260 260 260 260 260 261 261 263 262 262 264 268 270 271 272 270 269 269 269 268 269 269 270 272 272 272 274
260 259 259 258 258 258 258 259 259 259 259 259 259 259 259 259 259 259 259 259 260 260 261 261 261 262 264 269 270 271 272 269 268 267 267 267 268 268 268 270 271 271

ECMWFNIL_sfc_thetae_045.txt.gz
Theta_e
281 281 281 281 281 282 281 281 281 281 281 282 282 282 283 284 285 284 284 284 284 283 284 284 284 284 285 285 286 286 286 286 286 287 286 286 286 286 286 286 286 286
280 281 281 281 281 281 281 281 281 281 281 281 282 282 282 283 284 284 284 284 284 284 284 284 283 283 283 284 285 284 284 285 285 287 286 286 286 286 286 286 285 285
279 279 280 279 279 279 280 280 280 280 280 280 281 282 282 283 283 283 283 283 283 283 283 283 283 283 283 283 283 283 283 284 283 285 285 285 286 286 286 286 286 285
278 279 279 279 279 279 279 279 279 279 279 279 279 280 281 282 282 282 282 283 282 282 282 282 282 283 282 282 283 282 282 283 283 284 284 284 284 285 285 285 286 286
279 279 280 279 279 279 279 278 278 279 279 278 278 279 280 279 279 279 280 280 280 280 280 281 281 282 282 282 282 281 282 282 282 283 282 282 283 284 284 285 284 285
280 280 280 279 279 278 279 278 278 279 279 279 279 279 279 279 279 278 279 278 279 279 279 279 279 280 281 281 281 281 281 281 281 281 281 281 281 282 283 284 283 283
278 279 279 279 279 278 278 278 278 279 279 278 278 279 278 279 278 278 279 279 278 279 278 278 279 279 279 279 279 280 280 280 281 281 280 280 281 281 281 281 282 281
278 278 278 277 277 278 278 278 278 278 278 279 279 279 278 278 278 278 278 278 278 278 279 279 279 279 278 278 278 278 279 280 280 280 279 279 280 279 280 281 281 281
276 277 276 276 277 277 277 278 278 279 278 278 278 278 279 278 278 278 278 278 278 278 278 278 278 278 278 278 278 278 278 278 279 278 278 278 279 279 279 279 279 280
276 276 276 276 276 276 276 277 277 277 277 277 278 277 278 278 278 278 278 277 277 278 278 277 278 278 278 278 278 278 278 278 278 278 278 278 278 278 279 279 278 279
276 275 275 275 275 275 276 276 276 277 276 276 276 276 276 276 277 276 276 276 277 277 277 277 277 277 277 277 278 277 277 277 277 277 277 277 277 278 280 278 278 278
275 275 275 275 275 275 276 276 276 276 275 275 275 276 276 275 276 276 276 276 276 276 276 276 276 276 276 277 277 277 277 277 277 277 277 277 277 277 277 278 278 278
275 275 275 274 275 275 275 275 275 275 275 275 276 275 275 275 275 275 275 275 275 275 275 275 276 276 276 276 276 276 276 276 276 276 277 277 277 278 278 278 278 278
275 274 275 275 275 275 275 275 275 274 274 274 274 274 274 274 274 274 274 274 274 274 274 275 275 275 275 275 275 275 275 276 276 276 277 277 277 278 278 278 278 278
275 275 275 274 274 274 273 273 272 272 272 272 272 272 272 272 272 272 272 272 272 272 272 273 273 273 274 274 275 275 276 276 276 277 277 276 277 277 278 278 278 278
274 273 273 272 272 271 271 271 270 270 270 270 270 270 269 270 270 270 270 270 270 270 270 271 271 272 273 276 277 276 275 276 276 276 276 276 276 276 276 277 277 278
272 271 271 270 270 270 269 268 268 268 267 267 267 267 268 268 268 268 268 268 268 268 268 268 269 270 273 275 277 278 276 275 275 275 275 275 275 275 275 276 276 277
270 269 268 268 267 267 266 266 266 265 265 265 265 266 266 266 266 266 266 266 266 266 266 266 267 270 273 274 275 276 276 274 274 273 274 274 274 274 274 274 275 275
268 266 266 265 265 264 264 264 263 263 263 263 263 264 264 264 264 264 264 265 265 264 264 265 265 268 271 273 274 275 275 274 272 273 273 273 273 273 273 273 274 274
266 263 263 263 263 263 262 262 262 262 262 263 263 263 263 262 262 263 263 263 263 263 263 263 263 266 271 272 273 274 275 274 271 271 271 271 271 271 271 271 271 272
264 263 262 262 262 261 261 260 261 261 261 261 261 261 261 261 261 261 261 262 261 261 261 261 262 268 270 271 272 273 274 274 270 270 269 269 269 269 269 270 270 271
262 261 261 260 261 260 259 260 260 260 260 260 260 260 260 261 261 261 260 260 260 260 260 260 261 268 269 270 272 273 274 270 268 268 268 268 268 269 269 269 270 270
262 261 260 260 260 259 258 259 259 259 259 260 259 259 260 259 259 259 260 260 259 260 259 260 260 264 268 270 271 272 271 267 267 267 267 267 267 268 269 269 269 270
261 259 259 259 258 258 258 259 259 259 258 259 259 258 258 258 259 259 259 259 259 259 259 259 260 263 268 269 270 271 270 267 267 266 266 267 267 268 268 268 269 271
259 259 259 258 257 258 257 257 258 258 258 258 258 258 258 258 258 258 258 258 258 259 261 260 260 262 266 268 270 270 269 267 267 267 266 266 266 266 267 268 268 269
258 258 258 257 257 257 257 257 258 257 257 258 258 257 257 257 258 257 257 257 258 258 259 259 259 259 262 268 269 270 271 268 267 266 265 266 266 266 266 267 267 268

ECMWFNIL_sfc_thetae_048.txt.gz
Theta_e
280 280 280 280 280 280 279 279 279 279 280 280 280 280 281 282 282 282 283 283 283 282 283 282 282 282 283 282 283 283 283 283 283 285 284 284 284 285 285 285 285 285
279 280 281 279 279 280 279 278 278 278 278 278 279 279 279 280 280 280 280 280 281 281 282 282 282 282 282 282 282 281 281 281 281 284 282 282 283 284 284 284 285 285
278 278 278 278 278 278 278 278 278 278 278 278 278 279 279 280 278 278 278 278 278 279 279 280 281 281 281 281 281 281 280 280 280 281 281 281 281 282 282 283 284 284
279 279 278 278 278 278 278 278 278 278 278 278 278 279 279 280 278 278 278 279 278 278 278 278 278 279 279 280 280 280 280 280 280 280 280 280 280 280 280 281 282 282
279 279 279 278 277 277 278 278 278 278 278 278 278 279 279 279 278 278 279 278 278 278 278 278 278 278 278 278 278 277 278 278 279 279 278 278 279 280 280 280 280 280
278 277 278 278 278 278 278 278 278 278 278 278 278 278 278 278 277 277 278 278 278 278 278 278 278 278 278 277 277 277 277 277 278 278 277 277 278 279 279 279 279 279
277 277 277 277 277 277 277 277 278 278 277 277 277 277 277 277 277 277 277 277 277 277 277 277 277 277 277 277 276 276 277 277 277 277 276 276 277 277 278 278 278 278
276 276 276 276 276 276 276 277 277 277 277 277 277 277 277 277 277 277 277 277 276 276 276 276 276 276 276 276 276 276 276 277 277 276 276 276 276 276 276 277 277 277
275 275 275 275 275 276 276 276 276 276 277 276 276 276 277 276 276 276 276 276 276 276 275 275 276 275 276 276 275 275 275 275 276 275 275 275 275 275 275 276 276 276
275 275 275 275 275 275 275 275 276 276 276 276 276 276 275 276 276 275 275 275 275 275 275 275 275 275 275 275 275 275 275 275 275 275 275 275 275 275 275 275 275 275
275 275 275 275 275 275 275 275 275 275 275 274 275 274 274 274 274 274 274 274 274 273 273 273 274 274 274 274 274 274 274 274 274 275 275 275 275 275 277 275 275 275
275 275 275 275 275 275 274 274 274 274 273 273 273 273 273 273 272 272 272 272 272 272 272 272 272 272 272 273 273 273 274 274 274 274 274 275 275 275 276 276 276 276
274 274 274 274 274 274 274 273 272 272 272 271 272 271 271 271 271 271 271 271 271 271 271 271 271 271 271 271 272 272 272 273 273 274 274 275 275 275 275 276 276 276
274 274 274 274 273 273 272 271 271 270 270 270 269 269 269 269 269 269 269 270 270 269 269 270 269 269 270 270 271 271 272 272 273 273 273 273 274 274 274 275 275 275
273 273 272 272 271 270 270 269 269 268 268 268 268 268 268 268 268 268 268 267 268 268 268 268 268 268 269 269 270 271 272 272 272 272 272 272 272 273 273 274 274 274
271 270 270 270 269 268 267 267 266 266 266 266 266 266 266 266 266 266 266 265 265 266 266 266 266 267 269 272 274 272 272 272 272 272 272 272 271 271 271 272 272 273
269 268 268 267 267 266 264 264 265 264 263 264 263 264 264 264 264 264 264 264 264 264 264 265 265 266 270 272 274 275 273 272 271 271 271 271 271 271 271 271 272 272
267 266 265 265 264 263 263 262 261 261 261 262 261 262 263 262 263 263 263 263 263 263 263 263 263 266 270 272 273 274 274 272 272 271 271 271 270 270 270 270 270 270
265 263 263 262 262 261 261 260 260 261 260 260 260 261 261 261 262 262 262 262 262 262 262 262 262 266 269 271 273 274 274 273 271 271 270 270 269 269 268 268 268 268
264 262 262 261 261 260 260 259 259 259 260 260 260 260 260 260 260 261 261 261 261 261 261 261 261 265 270 271 272 273 274 274 271 270 269 268 268 268 268 268 268 268
263 262 260 261 260 259 258 258 259 259 259 260 259 260 260 259 259 259 259 260 260 260 260 260 261 267 269 271 271 273 274 273 270 268 267 267 268 268 268 268 268 268
261 260 259 259 260 258 258 259 259 258 258 259 258 259 258 259 259 259 259 259 259 259 259 259 260 266 268 270 271 272 273 270 268 267 267 267 267 267 268 268 268 268
262 260 259 258 258 258 257 257 259 258 258 257 257 258 258 258 258 258 258 258 258 258 258 258 259 263 268 269 271 272 271 268 268 267 266 266 266 267 268 268 268 268
261 259 258 257 256 256 256 258 257 257 256 257 257 257 257 257 258 257 258 258 258 257 258 258 259 262 267 269 270 271 271 268 267 266 266 266 266 267 267 268 268 270
259 258 258 257 256 257 256 256 256 256 257 256 257 256 257 257 257 257 257 257 257 258 260 260 259 261 265 267 269 271 270 268 268 267 266 266 266 266 267 268 268 269
258 258 257 256 257 256 255 256 256 255 255 256 256 256 256 256 256 256 256 256 257 257 258 258 258 259 261 267 269 270 272 269 268 267 265 266 266 267 266 267 268 268

ECMWFNIL_sfc_thetae_054.txt.gz
Theta_e
289 289 289 289 289 289 289 288 288 288 287 287 287 286 286 286 286 286 286 286 286 285 285 286 286 286 286 286 286 286 286 286 286 286 285 286 285 286 286 285 286 286
288 288 288 288 288 288 287 287 287 287 286 286 287 286 286 286 286 286 285 285 285 285 285 285 285 284 284 285 285 285 285 285 285 286 284 285 285 285 285 285 285 285
287 288 288 287 286 286 286 287 287 287 286 286 286 286 286 286 285 285 285 285 285 284 284 284 284 284 284 284 284 284 283 283 283 284 284 284 284 284 284 284 284 284
287 287 287 287 286 286 287 286 286 286 286 285 285 285 285 285 285 284 284 284 284 283 283 283 283 283 283 283 283 283 283 283 283 283 283 283 283 283 283 283 283 283
287 287 287 286 286 287 287 286 285 285 285 284 284 284 284 284 284 284 283 283 283 283 283 283 283 282 282 282 282 282 282 282 283 282 282 282 283 282 282 282 282 281
287 286 286 286 286 286 285 285 285 284 284 283 283 283 283 283 283 282 282 282 282 282 281 282 281 281 281 281 281 281 281 281 281 281 280 281 281 282 282 281 281 281
285 286 285 286 285 285 284 284 283 283 283 283 282 282 282 282 281 281 281 281 281 281 280 280 280 280 280 280 280 280 280 280 280 280 279 279 280 280 281 280 280 280
285 285 285 285 284 284 283 282 282 282 282 281 281 281 281 280 280 280 279 279 279 279 279 279 279 279 279 278 278 278 278 279 279 278 278 278 278 278 279 279 279 279
285 284 284 283 283 282 281 281 280 280 280 279 279 279 280 279 278 278 278 278 278 278 278 278 277 277 277 277 277 277 276 277 277 277 277 277 277 277 278 278 278 278
284 283 283 283 282 281 280 279 279 279 279 278 278 278 277 278 277 277 277 277 276 277 276 276 276 276 276 276 276 276 275 276 276 276 277 277 276 277 277 277 277 276
283 283 283 282 281 280 278 278 278 278 277 277 277 276 276 276 276 276 276 276 275 275 275 275 275 275 275 275 275 275 275 275 276 276 276 276 276 276 276 276 276 276
283 283 282 281 280 278 277 277 277 276 276 276 275 275 275 275 275 275 275 274 274 274 274 274 274 274 274 274 274 274 275 276 276 276 276 276 276 276 276 276 275 275
282 282 281 280 279 278 277 276 275 275 274 274 274 274 274 274 273 273 274 273 273 273 273 273 273 273 273 273 273 274 275 276 276 276 275 276 276 275 275 276 275 275
281 280 279 278 277 276 275 275 274 274 273 273 273 273 272 272 272 272 272 272 272 272 272 272 272 272 273 273 274 275 275 275 275 275 275 275 275 275 275 275 275 275
279 278 277 276 275 274 274 273 273 272 272 272 272 272 271 271 271 271 271 271 271 271 271 271 271 271 271 272 273 274 275 274 274 274 274 274 274 274 275 275 275 275
278 277 276 275 274 273 272 272 272 271 271 271 270 270 270 270 270 270 270 270 270 270 270 270 271 271 270 272 274 274 274 274 274 274 274 274 273 273 274 274 274 274
276 275 274 273 273 272 271 270 270 270 270 269 269 269 268 268 269 269 269 269 269 269 269 270 270 270 270 273 274 275 274 274 274 273 274 273 273 273 273 273 273 273
275 274 273 272 271 270 269 269 268 268 268 268 268 268 268 268 268 268 268 269 268 268 269 269 269 269 271 272 273 274 275 274 273 273 273 273 273 273 272 272 271 271
274 273 272 270 270 269 268 267 267 268 267 267 267 267 267 267 268 267 267 268 267 267 267 268 268 269 270 272 273 274 274 274 273 273 273 272 272 272 271 271 270 270
272 272 271 270 269 268 268 267 267 267 267 267 267 267 267 266 266 266 266 266 266 266 266 267 267 268 270 271 273 273 274 275 274 273 272 272 271 271 270 270 270 270
271 271 270 269 267 267 267 267 267 267 266 267 267 267 266 266 266 265 265 264 265 265 265 265 266 268 270 271 272 273 274 274 273 272 271 270 271 271 270 270 270 270
271 270 269 268 267 267 266 267 266 266 266 266 265 266 266 265 265 265 264 264 264 264 264 264 266 268 269 270 271 273 274 272 271 270 270 270 270 270 270 271 271 271
271 270 268 268 267 266 266 266 266 265 265 265 264 265 265 265 264 264 264 263 263 263 262 263 264 266 268 270 271 272 272 270 270 270 270 269 270 270 271 271 271 271
270 269 268 267 266 266 266 267 266 266 265 264 264 264 264 264 263 263 263 263 262 262 262 262 262 265 267 269 270 271 271 270 270 269 269 269 270 270 271 271 272 273
269 268 267 266 266 266 265 265 265 264 265 264 263 263 263 263 262 262 262 262 262 262 262 262 262 264 266 268 270 271 271 270 270 269 269 269 270 270 271 271 272 273
268 266 266 265 265 265 264 264 264 263 262 263 263 263 263 263 262 262 261 261 262 261 261 262 262 263 264 268 269 271 272 271 270 269 269 269 270 270 270 271 272 272

ECMWFNIL_sfc_thetae_057.txt.gz
Theta_e
292 292 292 291 291 291 290 290 289 289 289 288 288 287 287 287 287 287 287 287 287 286 286 286 286 286 286 286 286 286 286 286 286 286 285 286 286 285 286 285 285 285
291 291 291 290 290 290 290 289 289 288 288 288 288 287 287 287 287 287 286 287 287 286 286 286 286 285 285 285 285 285 285 285 284 286 284 285 285 285 284 284 285 285
290 290 290 289 289 288 289 289 289 288 288 287 288 287 287 287 287 287 286 286 285 285 285 285 285 284 284 284 284 285 284 284 284 284 284 284 284 284 284 284 283 284
290 289 289 288 288 288 289 288 288 288 288 287 286 286 287 287 286 286 285 285 285 284 284 284 284 284 283 283 284 284 283 283 284 283 283 283 283 283 283 283 282 282
289 288 289 288 289 289 288 287 287 287 286 286 286 286 285 285 285 284 284 283 284 283 283 283 283 283 283 282 283 282 282 283 283 282 281 281 282 282 282 282 281 281
288 288 288 288 288 288 287 286 286 286 285 285 284 284 284 284 283 282 282 282 282 282 282 282 281 281 281 281 281 281 281 281 281 281 280 280 280 281 282 281 280 280
287 288 287 288 287 287 286 285 285 285 284 284 284 283 283 283 282 282 281 281 281 281 280 280 280 280 280 280 280 279 279 280 280 279 279 279 279 279 280 280 280 279
287 287 287 287 286 286 285 284 284 283 283 283 282 282 282 281 281 281 280 280 280 280 280 279 279 279 279 279 278 278 278 279 279 278 278 278 278 278 278 279 279 278
287 286 286 286 285 284 283 283 282 282 282 281 281 281 281 280 280 279 279 279 279 279 279 278 278 278 278 278 277 277 276 277 277 277 277 277 277 277 277 278 277 277
286 286 285 284 284 283 282 282 281 281 281 280 280 280 279 279 279 278 278 278 278 278 277 277 277 277 277 277 277 276 276 276 276 277 277 277 277 277 277 277 276 276
285 284 284 284 283 282 281 280 280 279 279 279 279 278 278 278 278 278 277 277 277 276 276 276 276 276 276 276 276 276 275 276 276 277 277 277 277 277 277 276 276 275
284 284 284 283 282 281 280 279 279 278 278 278 277 277 277 277 276 276 276 275 276 275 275 275 275 275 275 275 275 275 275 276 276 276 276 276 276 276 276 276 275 275
284 284 283 282 281 280 279 278 278 277 277 277 277 276 276 276 275 275 275 275 275 275 274 274 274 274 274 274 274 275 276 276 276 276 276 276 276 276 276 276 276 275
284 284 283 282 280 279 278 277 277 276 276 276 275 275 275 274 274 274 274 274 274 274 274 274 274 274 274 274 274 275 275 275 275 275 275 275 275 276 276 276 275 275
283 282 281 280 278 278 277 276 276 275 275 275 275 274 274 274 274 273 273 273 274 273 273 273 273 273 273 272 273 274 275 274 274 275 274 274 274 275 275 275 275 275
281 280 279 278 277 277 276 275 275 274 274 274 273 273 273 273 273 273 273 273 273 273 273 273 273 273 272 272 274 275 274 275 274 274 274 274 274 274 274 275 275 275
280 279 278 277 277 276 275 275 274 274 273 273 273 272 272 271 272 272 272 272 272 272 272 272 272 272 272 273 275 276 275 274 274 274 274 274 274 273 273 274 274 274
280 278 278 277 276 275 274 274 273 272 272 272 271 271 271 271 271 272 272 272 271 271 271 272 272 273 273 274 274 275 276 275 274 274 274 274 274 273 273 273 273 272
279 278 277 275 275 274 273 272 271 271 271 271 270 271 271 270 271 271 270 271 270 270 270 271 271 272 273 273 274 275 275 275 274 274 273 273 273 273 273 272 272 271
278 277 276 275 274 272 271 271 270 270 271 271 270 270 270 270 270 269 270 269 269 269 269 270 270 271 272 273 274 274 275 275 274 273 273 273 273 272 272 271 271 271
277 276 275 274 272 271 271 270 270 270 270 270 270 270 270 269 269 268 269 268 268 268 268 268 269 271 272 273 273 274 275 275 273 273 272 272 272 272 272 271 271 271
276 275 274 273 271 271 270 270 270 270 269 270 270 270 270 269 269 268 267 267 267 266 266 266 268 271 272 272 273 273 274 273 272 271 271 271 271 271 271 271 271 271
276 275 274 272 271 270 270 270 270 269 269 270 268 269 268 268 267 267 267 266 266 265 265 265 266 268 270 271 272 273 273 271 271 270 270 270 270 271 271 272 272 272
276 275 273 272 271 270 270 270 270 270 269 269 268 268 268 267 267 266 266 266 265 264 265 264 265 267 269 271 272 272 272 271 271 270 269 270 270 271 271 272 272 273
276 274 273 272 271 271 270 270 270 269 269 267 267 268 267 267 266 265 265 265 265 264 265 265 264 265 268 270 271 272 272 271 270 270 269 269 270 270 271 272 272 273
275 273 273 271 271 270 269 269 269 268 267 266 266 266 266 266 265 265 264 264 264 264 263 264 264 264 266 269 270 271 272 271 271 270 269 269 270 270 270 272 272 273

ECMWFNIL_sfc_thetae_060.txt.gz
Theta_e
288 288 288 287 287 287 286 285 285 285 284 284 283 283 282 283 283 282 283 282 282 282 282 282 281 281 282 281 281 281 281 281 281 281 280 280 280 279 281 279 279 279
287 287 287 286 286 286 285 285 285 284 284 283 284 283 283 282 283 282 282 282 281 281 281 281 281 280 280 280 280 279 279 279 278 282 279 279 279 278 278 278 278 279
286 285 285 284 285 284 285 285 284 284 283 283 283 283 284 283 282 281 281 281 280 280 280 280 279 279 279 278 279 278 278 278 278 278 278 278 278 278 278 278 277 277
285 285 285 284 284 284 284 284 283 283 283 282 282 283 283 283 281 280 280 281 279 279 278 278 278 278 278 277 278 278 277 277 277 277 277 278 278 277 277 277 278 277
284 284 284 284 284 284 283 282 282 282 281 281 281 281 281 280 279 278 278 278 277 277 277 277 277 277 277 277 277 276 277 277 276 276 276 276 277 277 277 277 276 276
284 284 284 284 283 283 282 281 281 281 280 279 280 280 279 278 278 277 277 277 277 277 276 276 276 276 276 276 275 275 275 276 276 275 275 274 275 276 278 277 275 275
283 283 283 283 282 282 281 281 281 281 279 279 279 278 278 277 277 276 276 276 276 276 276 276 275 275 275 275 275 274 274 275 275 275 274 274 274 274 275 275 275 274
283 282 282 282 281 281 280 280 279 279 279 278 277 277 277 277 276 276 276 276 276 275 275 275 275 275 274 274 274 274 273 276 276 273 273 273 273 273 273 276 274 273
282 282 282 281 280 279 279 279 278 278 278 277 277 277 276 276 275 275 276 275 275 275 274 275 275 274 274 274 273 273 272 272 274 273 273 273 273 273 273 273 273 273
281 281 281 280 279 278 278 277 277 277 277 277 276 276 276 275 275 275 275 274 274 274 274 273 273 273 273 273 273 273 272 272 272 272 273 273 273 272 272 273 272 272
281 281 280 279 278 277 277 276 276 276 276 275 275 275 275 274 275 274 274 274 274 273 273 273 273 273 273 272 272 272 272 272 272 273 273 273 273 273 275 272 272 272
280 280 279 278 277 276 276 276 275 275 275 274 274 274 273 273 272 273 273 272 272 272 272 272 272 272 272 271 271 272 272 272 273 273 273 273 272 273 273 272 272 272
280 279 279 278 277 276 275 275 275 275 274 273 273 273 272 272 272 272 273 271 272 272 271 271 272 271 271 271 271 272 272 273 273 272 273 272 273 273 273 273 272 272
280 279 278 278 276 276 275 276 275 274 273 273 273 272 272 272 271 272 271 271 271 271 271 271 271 271 271 270 271 272 272 272 272 272 272 272 272 273 272 272 273 272
280 279 278 277 276 275 275 274 274 273 273 272 272 272 273 271 271 271 271 271 271 271 271 271 271 271 271 270 270 272 273 273 273 272 272 272 272 272 272 272 272 273
280 279 278 277 276 276 275 274 273 272 272 271 271 270 270 270 270 270 270 270 270 270 270 271 271 271 273 274 275 274 273 274 274 273 272 272 271 271 271 272 272 272
279 277 276 276 276 275 274 273 272 271 270 270 269 268 269 269 269 270 269 270 270 269 269 270 270 271 274 275 276 276 275 274 273 273 273 273 272 271 270 271 271 272
278 277 277 276 275 274 273 272 271 270 270 269 268 268 268 267 268 269 269 269 269 269 268 269 269 274 275 275 276 276 276 275 274 273 273 273 273 272 272 271 270 270
279 278 277 275 274 273 271 270 270 270 269 268 268 268 267 267 269 269 268 268 268 268 267 267 268 273 275 275 275 276 276 276 274 273 272 272 273 273 272 271 270 269
278 277 276 275 273 271 270 269 269 269 268 268 268 268 268 267 266 267 267 267 267 267 266 267 267 271 274 275 275 276 276 276 274 273 273 272 272 272 271 270 269 269
278 276 275 273 272 270 269 269 268 268 268 268 268 268 267 267 267 266 266 265 264 265 265 265 266 272 274 275 275 276 276 276 274 273 272 272 272 271 270 269 269 270
277 275 274 272 271 270 269 269 268 268 268 268 267 267 266 266 266 266 266 265 264 263 263 264 265 272 273 274 275 275 275 273 272 271 271 270 269 270 270 270 270 270
277 275 273 272 270 269 268 268 268 267 267 267 266 268 267 266 265 265 264 264 263 263 263 263 263 268 272 274 274 275 274 271 270 270 270 269 270 270 271 271 270 270
277 275 274 272 270 270 269 269 269 268 267 267 267 266 267 265 264 263 262 263 263 263 263 261 262 266 271 273 274 274 273 271 270 269 269 269 269 270 270 270 270 273
276 275 274 272 271 271 270 269 269 268 267 266 266 265 265 264 264 263 261 261 262 262 266 264 262 265 270 272 274 274 273 271 270 269 268 269 269 269 271 271 271 273
275 275 274 273 272 270 269 269 268 266 266 266 265 265 264 263 262 262 262 262 262 262 262 263 263 262 264 270 272 273 274 272 270 269 268 268 269 269 269 271 271 271

ECMWFNIL_sfc_thetae_063.txt.gz
Theta_e
286 286 286 286 285 285 284 283 283 282 282 281 281 281 281 281 281 281 281 281 280 280 280 279 279 279 280 279 278 279 279 278 279 278 277 278 277 277 279 277 276 276
285 286 285 285 284 284 283 283 283 282 282 281 281 281 281 281 280 280 280 280 280 279 279 279 279 278 278 278 277 278 277 277 277 279 277 276 276 276 277 276 276 276
284 284 284 284 284 283 283 283 282 282 282 281 281 281 281 280 280 279 279 279 279 279 278 278 277 277 277 276 276 277 277 276 276 276 277 276 276 276 276 276 276 276
283 284 283 283 283 283 282 282 281 281 281 281 281 282 282 281 279 279 278 279 278 277 277 277 277 276 276 276 276 276 276 276 275 275 275 275 276 275 275 276 276 275
283 283 283 283 283 282 282 282 281 281 281 281 280 280 280 279 278 277 277 277 277 276 276 276 276 276 275 275 275 275 276 275 275 275 274 274 274 275 276 276 274 274
283 283 283 283 282 282 281 281 281 281 280 279 279 279 278 277 277 277 276 276 276 276 276 275 275 275 275 274 275 274 274 275 274 274 273 273 274 274 276 275 274 273
282 282 282 282 281 281 281 280 280 280 279 279 278 278 277 277 277 276 276 276 276 276 275 275 274 274 274 274 274 273 273 274 273 273 273 273 273 273 274 274 273 273
282 282 282 281 281 280 280 280 279 279 278 278 277 277 277 277 276 276 276 276 275 275 274 274 273 274 273 273 273 273 272 274 273 272 272 272 272 272 273 275 273 273
282 281 281 281 280 280 279 279 278 278 278 277 277 276 276 276 276 276 275 275 275 274 274 273 273 272 272 272 272 271 271 271 272 272 272 272 272 272 272 272 272 272
281 281 280 280 280 279 278 278 278 277 277 277 276 276 276 275 275 275 275 274 274 273 273 272 272 272 272 272 272 271 271 272 271 272 272 272 272 272 272 272 272 272
281 280 280 279 279 278 278 277 277 276 276 276 275 275 275 275 274 274 274 274 274 273 272 272 272 271 272 271 271 271 271 271 271 272 272 272 272 272 275 272 272 272
280 280 280 279 278 277 277 276 276 276 276 275 275 275 274 274 274 274 274 273 272 272 271 271 270 270 270 270 270 270 271 272 272 272 272 272 272 272 272 272 272 271
280 280 279 278 278 277 276 275 275 275 275 275 275 274 274 273 273 273 272 272 271 271 271 271 270 270 270 269 270 271 271 272 271 271 272 272 272 272 272 272 272 271
280 280 279 278 277 276 275 275 275 274 274 274 274 274 273 273 272 272 271 271 270 270 270 269 269 269 269 270 270 270 270 270 271 271 271 271 271 272 272 272 272 272
280 280 278 277 276 275 275 274 274 274 273 273 273 273 273 272 271 271 271 270 270 270 269 270 270 270 270 270 270 270 270 271 271 270 270 270 270 270 270 270 270 271
281 280 279 278 276 275 275 275 274 273 273 273 274 274 273 271 270 270 270 270 270 269 269 270 270 270 273 276 275 271 271 272 273 272 271 270 269 269 269 270 270 270
280 279 278 277 277 276 275 274 274 273 274 274 273 272 271 270 270 270 269 269 269 269 269 269 270 270 275 277 278 277 274 273 272 271 272 272 271 270 269 269 269 270
280 279 278 277 277 276 275 275 274 274 273 272 271 270 269 268 268 269 269 269 269 268 268 269 269 274 277 278 278 278 277 274 273 273 272 272 272 271 270 269 269 269
280 279 278 278 277 276 275 274 273 273 272 271 271 271 268 268 269 269 268 268 268 268 268 268 268 275 277 278 278 278 278 277 274 273 272 272 272 272 272 271 269 269
280 279 279 278 277 276 274 273 273 272 272 271 270 269 269 268 267 267 267 267 268 267 267 267 267 273 277 278 278 278 278 277 274 273 272 272 272 272 272 271 269 268
280 279 279 278 276 275 274 273 273 272 271 270 270 270 269 268 268 267 267 267 266 266 266 266 267 274 276 278 278 278 278 277 274 273 272 272 272 272 271 269 268 269
279 279 279 277 276 274 273 273 272 271 271 270 269 268 266 266 265 265 266 266 266 265 265 266 266 274 276 277 278 278 278 275 274 272 271 271 270 270 269 269 269 269
279 279 278 277 275 274 273 273 272 271 270 269 268 268 268 267 266 266 266 266 265 264 265 265 264 270 275 277 278 278 277 273 272 270 269 268 268 269 270 269 269 269
279 279 278 276 275 274 273 274 273 272 270 269 269 268 267 267 266 265 265 265 265 264 265 264 264 267 273 276 277 278 276 271 271 269 268 268 268 269 269 269 269 272
280 279 278 276 275 275 274 273 272 271 270 268 268 268 268 266 265 265 263 263 263 264 266 265 263 265 272 275 277 277 276 272 270 268 268 268 268 268 269 269 269 271
280 279 278 277 276 275 274 273 271 268 268 268 267 266 266 265 265 264 264 263 263 262 263 265 264 263 265 273 276 277 277 273 270 268 267 267 268 268 267 268 269 269

ECMWFNIL_sfc_thetae_066.txt.gz
Theta_e
285 284 284 283 283 283 282 282 281 281 280 280 280 279 280 280 280 279 279 279 279 278 278 278 278 278 279 278 278 278 278 277 277 276 277 277 277 277 277 276 276 276
284 284 284 283 283 283 282 282 281 281 280 280 280 280 280 280 280 279 279 279 278 278 278 278 277 277 277 278 277 277 276 276 276 278 276 276 276 276 276 276 275 275
283 283 283 283 283 282 281 281 281 281 281 280 280 280 280 280 279 279 279 278 278 277 277 277 277 276 277 277 277 276 276 275 275 275 276 275 275 275 275 275 275 275
283 283 283 282 282 281 281 281 280 280 280 280 280 280 280 280 279 279 279 279 277 277 276 276 276 276 276 276 276 276 275 275 275 275 275 275 276 275 275 275 275 274
283 283 282 282 282 281 281 281 280 280 280 280 280 280 280 279 278 278 277 277 277 276 276 276 275 275 275 275 275 275 275 275 274 274 274 274 274 275 275 275 274 273
283 283 282 282 282 281 281 281 281 280 280 279 280 279 278 278 278 277 277 276 276 276 275 275 275 275 275 274 274 274 275 274 274 273 273 273 273 274 275 274 273 273
282 282 282 282 281 281 281 280 280 280 280 279 279 278 278 278 277 277 277 276 276 276 275 275 274 274 274 274 274 273 274 273 273 273 272 273 273 273 273 273 273 273
282 282 281 281 281 280 280 280 280 280 279 278 278 277 277 277 277 277 276 276 276 275 275 274 274 274 273 273 273 272 272 273 272 272 272 272 272 272 272 274 272 272
282 281 281 280 280 280 279 279 279 278 278 278 277 277 277 277 277 276 276 276 275 275 274 273 273 273 272 272 272 272 271 271 272 272 272 271 271 271 271 272 271 271
281 281 281 280 280 280 279 279 278 278 278 277 277 277 276 276 277 277 276 275 274 274 273 273 272 272 272 272 272 271 271 272 271 272 271 271 271 271 271 271 270 270
281 281 281 280 280 279 279 278 278 277 277 277 277 277 276 276 276 276 275 275 274 273 273 272 272 272 272 271 271 271 271 271 271 271 271 271 271 271 274 270 270 270
281 281 280 280 280 280 280 279 278 277 277 277 277 277 276 275 275 275 275 274 273 273 272 272 271 271 271 270 270 271 271 271 271 271 271 271 271 271 270 271 270 270
281 281 281 281 280 280 279 278 277 277 277 276 277 277 275 274 274 274 274 273 273 272 272 272 272 271 270 269 270 270 271 271 271 270 270 270 270 270 271 271 270 270
281 281 281 281 281 280 279 278 277 277 277 276 276 276 275 275 275 275 274 273 273 273 273 272 271 270 269 269 270 271 271 270 270 270 270 270 270 270 270 270 270 270
281 282 282 281 280 279 278 278 277 277 277 276 276 275 276 275 275 275 273 273 273 273 272 272 271 270 270 270 270 270 271 271 270 270 270 269 269 269 269 269 269 269
282 282 281 280 279 278 278 277 277 276 276 276 276 275 275 274 274 274 274 273 273 272 271 270 270 270 273 276 275 271 270 271 271 270 270 269 269 268 269 269 269 269
282 281 281 280 279 279 278 277 276 276 276 276 275 275 274 274 274 274 273 272 272 272 271 271 270 271 276 278 278 278 272 271 270 269 270 270 269 269 269 269 269 269
281 281 280 280 279 278 278 277 276 276 275 275 275 274 274 273 273 273 273 272 272 271 271 270 270 274 278 279 280 279 276 271 270 269 270 271 271 270 269 269 269 269
281 280 280 279 279 278 277 276 276 275 275 275 274 274 273 272 273 273 272 271 271 271 270 269 269 276 278 280 280 281 280 275 271 271 271 271 271 271 270 270 269 269
280 280 279 279 279 278 277 276 275 275 275 275 274 274 273 273 273 272 272 271 271 270 270 269 269 274 279 280 281 281 281 279 272 272 272 272 272 271 270 270 270 269
280 280 279 279 278 278 276 276 275 275 275 274 274 274 273 273 272 272 271 271 270 270 269 268 268 275 278 280 281 281 281 280 274 274 272 272 272 272 271 271 270 270
280 280 280 279 278 277 276 276 276 275 275 274 273 273 273 273 272 271 271 270 270 268 268 268 268 276 278 279 281 281 282 277 274 274 272 272 271 272 272 272 271 269
280 280 279 279 278 277 276 276 276 275 275 274 272 273 273 272 271 270 270 269 268 268 267 268 266 273 278 279 280 281 280 274 273 273 272 271 270 270 270 270 269 269
281 281 280 279 278 277 277 277 277 276 275 274 273 273 272 272 271 270 269 269 268 267 267 267 266 270 277 279 279 280 279 273 273 272 271 270 269 270 269 269 268 271
281 281 281 280 279 278 278 277 277 276 275 273 273 273 273 272 269 269 268 267 267 267 269 268 266 268 275 278 279 280 279 273 272 271 270 269 268 267 268 268 268 270
281 280 280 279 278 278 278 277 277 275 274 273 272 272 272 270 268 268 267 266 265 265 266 267 266 265 268 277 278 279 280 274 272 270 269 268 267 267 267 268 268 267

ECMWFNIL_sfc_thetae_069.txt.gz
Theta_e
283 283 283 282 282 282 281 281 280 280 279 279 279 279 279 279 279 279 279 278 278 279 279 279 279 279 279 278 278 278 277 277 277 277 277 277 276 276 277 276 275 276
282 283 283 282 282 282 281 281 280 280 279 279 279 279 279 279 279 279 279 279 278 278 278 278 278 278 277 277 277 277 277 277 277 278 276 276 276 276 275 275 275 275
282 282 282 281 281 281 280 280 280 279 279 278 279 279 279 279 279 278 278 278 278 278 278 278 278 277 277 276 276 276 276 276 276 276 276 275 275 275 275 275 274 274
282 282 282 281 281 281 280 280 279 279 279 279 279 279 280 280 278 278 278 279 278 277 277 277 277 277 276 276 276 275 275 275 275 275 275 275 276 275 274 274 275 274
282 282 282 282 281 281 280 280 279 279 279 279 279 279 279 278 278 278 277 277 277 277 277 276 276 276 276 275 275 275 275 275 274 274 274 274 275 275 274 274 273 273
282 282 282 281 281 280 280 280 280 279 279 279 279 279 279 278 278 277 277 277 276 277 276 276 276 275 275 275 275 275 274 274 274 274 274 274 274 274 274 274 273 273
282 282 281 281 280 280 280 280 280 280 280 279 279 279 278 278 277 277 277 276 276 276 276 276 275 275 275 274 274 274 273 273 273 273 273 273 273 273 273 273 272 272
282 281 281 281 280 280 280 280 280 280 280 279 279 278 278 278 277 277 276 276 276 276 275 275 275 274 274 274 274 273 273 273 273 273 273 272 272 272 272 273 272 272
282 281 281 280 280 280 280 280 280 279 279 279 278 278 277 277 277 276 276 277 276 275 275 274 274 274 274 273 273 273 273 273 273 273 272 272 271 271 272 272 271 271
282 281 281 281 280 280 280 280 280 279 279 279 278 277 277 277 277 277 277 277 276 275 274 274 274 275 274 273 273 273 273 274 273 272 272 271 271 271 271 271 270 270
282 281 281 281 280 280 280 280 280 279 279 278 277 277 277 277 277 277 277 276 276 275 274 274 274 274 274 273 273 273 273 273 272 271 271 271 271 271 273 270 270 270
282 281 281 281 280 280 280 280 280 279 279 278 278 277 277 277 277 277 277 276 275 275 275 275 274 274 274 274 273 272 271 272 272 272 271 271 271 271 271 270 270 270
282 282 282 281 281 280 280 280 280 279 279 278 278 278 277 277 277 276 276 276 275 274 274 274 274 274 274 273 272 272 272 273 272 271 271 271 270 270 270 270 270 270
282 282 281 281 281 280 280 280 280 279 279 278 278 277 277 277 276 276 276 276 275 274 274 274 274 274 273 272 272 273 273 273 272 271 271 270 270 270 270 270 270 270
282 281 281 281 280 280 280 279 279 279 278 278 278 277 277 277 277 276 275 275 275 275 274 274 274 273 273 272 272 273 273 272 272 271 271 271 270 270 270 270 270 270
281 281 281 280 281 280 280 279 279 279 278 277 277 277 277 276 276 276 275 275 274 274 274 273 273 273 275 277 276 273 272 272 272 271 271 271 270 270 270 270 270 270
281 281 281 281 281 281 280 279 279 278 277 277 277 276 276 275 275 275 275 275 274 274 273 273 273 273 277 279 280 279 274 272 272 271 270 270 270 270 269 270 270 270
282 282 282 281 281 280 280 279 278 278 277 277 276 275 275 275 275 275 274 274 274 274 273 273 273 276 279 280 281 281 278 272 271 270 270 270 270 270 269 269 269 269
282 282 282 281 281 280 279 278 278 277 277 276 276 275 275 274 275 275 274 274 273 273 273 273 273 277 279 281 282 282 281 275 270 270 270 269 270 270 269 269 269 269
282 282 281 281 280 280 279 278 277 277 277 277 276 275 275 275 274 274 274 273 273 273 273 273 272 276 280 281 282 283 283 279 269 270 270 269 270 270 270 270 269 269
282 282 281 281 280 279 278 278 277 277 277 276 276 276 275 274 274 274 274 274 273 273 273 272 272 276 280 282 282 283 283 282 272 272 271 271 271 271 271 270 269 269
282 281 281 281 280 279 278 278 277 277 276 276 276 276 275 275 275 275 274 274 273 273 272 272 272 277 279 281 283 283 284 280 274 273 272 272 271 272 271 271 270 270
282 281 281 280 279 278 277 277 277 277 277 276 275 276 275 275 274 274 274 274 273 272 272 272 272 276 279 281 282 283 283 278 273 273 273 272 272 272 272 271 271 270
282 281 280 280 279 278 277 278 278 277 277 276 276 275 275 275 275 274 274 274 273 272 272 272 272 274 279 281 282 283 282 277 274 273 273 273 272 272 272 271 271 272
281 281 280 279 279 278 278 278 278 277 277 277 276 276 276 276 275 275 274 273 272 272 273 272 272 273 277 280 282 282 282 276 273 272 272 272 272 271 271 270 270 271
281 281 280 280 279 279 278 279 279 278 277 276 276 276 276 276 274 274 273 273 271 270 270 271 270 269 272 279 281 282 283 277 272 272 272 272 272 271 269 269 269 267

ECMWFNIL_sfc_thetae_072.txt.gz
Theta_e
286 285 284 283 282 282 281 281 280 280 280 280 280 279 279 279 279 279 279 279 279 279 279 279 278 278 279 278 278 278 278 277 277 277 277 277 276 276 276 276 276 276
285 285 284 283 282 282 280 281 280 280 280 279 279 279 279 279 279 279 279 279 279 279 278 278 278 278 278 277 277 277 277 277 277 278 277 276 276 276 276 276 275 275
284 283 283 281 281 280 280 280 280 279 279 278 278 279 279 279 279 279 279 279 278 278 278 278 278 277 277 277 277 278 277 277 276 276 276 276 276 275 275 275 275 275
283 282 282 281 281 280 280 280 279 279 278 278 278 279 280 280 279 279 278 279 278 278 278 277 277 277 277 277 277 277 276 276 276 276 276 275 275 275 275 275 275 275
282 281 281 281 280 280 280 280 279 279 278 279 279 279 279 279 278 278 278 278 278 277 277 277 277 276 276 276 276 276 276 275 275 276 275 275 274 275 275 275 274 273
282 281 281 280 280 280 280 280 279 279 279 278 279 279 279 278 278 278 278 277 277 277 277 276 276 276 276 276 276 276 275 275 275 275 275 274 274 274 274 274 273 273
281 281 280 280 280 280 280 280 279 279 279 279 279 278 278 278 278 278 277 277 277 277 276 276 276 275 275 275 275 275 275 275 274 274 274 274 275 274 273 273 273 273
281 281 281 280 280 280 279 279 279 279 278 278 278 278 278 278 278 277 277 277 276 276 276 276 275 275 275 275 275 275 274 274 274 274 274 273 274 273 273 273 273 272
281 281 280 280 280 279 279 279 278 278 278 278 278 277 277 277 277 277 277 277 276 276 277 276 276 275 276 276 275 275 274 274 275 275 274 274 273 273 273 272 271 271
281 281 280 280 279 279 279 278 278 278 278 278 278 277 277 277 277 277 277 277 277 276 276 276 276 276 275 276 275 275 275 274 274 274 274 274 274 273 272 272 271 271
281 280 280 280 279 279 278 278 279 279 279 278 278 277 278 278 277 277 277 277 277 276 276 276 276 275 275 275 275 275 275 275 274 274 274 274 273 273 274 272 271 271
281 280 280 280 280 279 279 279 279 279 279 278 278 278 278 278 277 277 277 277 277 276 276 276 276 275 275 275 274 275 275 275 274 274 274 273 273 273 273 271 271 271
281 281 281 280 280 280 280 280 279 279 279 278 278 278 277 277 277 277 277 277 277 276 276 276 275 275 275 275 274 274 274 274 274 274 273 273 273 272 272 271 271 271
282 281 281 281 281 280 280 280 279 279 279 278 278 278 278 278 277 277 277 277 276 276 276 275 275 275 275 274 274 274 274 274 274 274 273 273 272 272 272 271 271 271
282 282 282 281 281 280 280 279 279 279 279 278 278 278 278 278 278 277 277 276 276 275 275 275 275 275 274 274 274 274 274 274 274 273 273 273 272 272 271 271 271 271
282 282 282 281 281 280 280 280 279 279 279 278 278 278 278 277 277 277 276 276 275 275 275 275 275 275 276 278 277 275 274 274 274 274 273 273 273 272 271 271 271 271
282 282 282 281 281 280 280 280 279 279 279 278 278 277 277 277 276 276 276 276 275 275 274 274 274 274 278 280 280 279 275 274 274 273 273 273 273 272 271 272 272 272
282 282 281 281 281 280 280 280 279 279 278 278 277 277 277 276 276 276 276 275 275 275 274 274 274 277 280 281 282 281 278 274 274 273 273 273 272 272 272 271 271 271
282 282 281 281 281 280 280 280 279 279 278 277 277 277 276 275 276 276 275 275 275 274 274 274 274 278 281 282 283 283 282 277 274 274 273 273 272 272 271 271 270 270
282 282 281 281 281 281 280 279 279 278 278 278 278 277 276 276 276 276 276 275 275 274 274 274 274 278 281 283 283 284 284 280 273 273 273 272 272 271 271 270 270 269
282 282 281 281 281 281 280 279 279 278 278 278 277 277 276 276 276 276 275 275 275 275 274 274 274 278 281 283 284 284 284 283 274 273 272 272 271 271 271 270 270 270
282 282 282 282 281 280 280 279 279 279 278 278 277 277 277 277 276 276 276 275 275 274 274 274 274 279 281 283 284 284 285 283 275 274 272 271 270 271 271 271 270 270
283 282 282 281 281 280 279 279 279 278 278 278 277 277 277 276 276 276 276 275 275 274 274 274 274 278 281 282 283 285 284 282 277 275 274 272 272 272 272 271 271 270
283 282 282 281 281 280 280 280 280 279 279 279 278 277 277 277 276 276 275 275 275 274 274 274 275 277 281 282 283 284 284 281 278 275 274 274 273 274 273 272 272 273
282 282 282 282 281 281 281 280 280 280 279 279 278 278 277 276 275 275 275 275 275 275 276 275 276 277 280 282 283 284 283 281 278 276 275 274 273 273 273 273 272 273
283 283 283 282 282 281 281 281 280 279 278 277 277 277 276 276 276 275 275 275 275 274 275 275 275 275 277 281 282 283 284 281 278 276 275 274 273 273 272 272 272 271

ECMWFNIL_sfc_thetae_075.txt.gz
Theta_e
289 288 287 287 287 287 286 285 284 284 284 284 284 284 283 283 283 283 283 282 282 282 282 282 282 282 283 282 282 282 282 281 281 281 281 281 281 281 281 281 281 281
288 288 287 287 287 287 286 285 284 284 284 284 284 284 283 282 282 282 282 282 282 282 282 282 282 282 282 282 282 281 281 281 280 281 281 281 281 281 280 281 280 281
288 287 287 286 286 285 285 285 285 284 284 283 283 283 283 282 282 282 282 282 282 281 282 282 282 282 282 281 281 281 281 280 280 280 281 280 280 280 280 280 280 280
287 287 286 286 285 284 284 283 283 283 283 282 282 282 282 282 282 282 282 282 282 281 281 282 281 281 281 281 281 281 281 280 280 280 280 280 280 280 279 280 279 279
286 286 286 285 285 284 283 283 283 283 283 283 282 282 282 282 281 281 281 281 281 281 281 281 281 280 280 280 280 279 279 279 279 280 279 279 279 279 278 278 278 278
286 286 285 285 284 283 283 283 283 282 282 281 282 282 282 281 281 281 281 281 281 281 281 280 280 280 280 279 279 279 279 279 279 279 278 278 278 278 278 278 278 277
285 285 284 284 283 283 283 283 282 282 282 282 282 281 281 281 281 281 281 281 280 280 280 279 279 279 279 279 279 278 278 278 278 278 278 278 278 277 277 277 277 277
285 284 284 283 283 282 282 282 281 281 281 281 281 281 281 281 281 280 280 280 280 280 279 279 279 279 278 278 278 278 277 278 278 278 277 277 277 276 276 276 276 276
284 284 283 282 282 282 281 281 281 280 281 281 280 280 281 280 280 280 279 280 279 279 279 278 279 278 278 277 278 278 277 277 277 277 277 276 276 276 276 276 275 276
284 283 282 282 281 282 281 280 280 280 280 280 280 280 280 280 280 279 279 279 279 279 278 278 278 278 277 277 278 278 277 277 277 277 277 277 277 276 275 275 275 275
283 283 282 281 281 281 280 280 280 280 280 280 280 279 280 279 279 279 279 279 279 279 278 278 278 277 277 277 277 278 277 277 277 277 277 277 276 276 276 275 276 276
283 282 282 281 281 281 280 280 280 280 280 280 280 279 279 279 279 279 279 279 279 279 278 278 278 277 277 277 277 277 277 277 277 276 276 276 276 276 276 276 276 276
283 282 282 282 281 281 280 280 280 280 280 280 280 279 279 279 279 279 279 279 278 278 278 278 277 277 277 276 276 276 276 276 276 276 276 276 276 276 276 276 276 276
283 283 282 282 281 281 280 280 280 280 280 280 280 279 279 279 278 278 278 278 278 278 278 277 277 277 276 276 276 276 276 276 276 276 276 276 275 276 276 275 275 275
283 283 283 282 282 281 281 280 281 281 280 280 280 279 279 279 279 279 278 277 277 277 277 277 277 276 276 276 275 276 276 276 276 276 276 275 275 275 275 275 275 275
283 283 282 282 282 281 281 281 281 280 280 280 279 279 279 279 279 278 278 277 277 277 276 276 276 276 277 279 278 276 276 276 276 276 276 276 275 275 275 275 274 275
283 283 283 282 282 282 282 281 281 280 280 280 279 279 279 278 278 278 277 277 277 276 276 276 276 276 279 281 281 280 277 277 276 276 276 276 276 275 275 275 274 275
283 283 282 282 282 282 281 281 281 280 280 280 279 279 278 278 278 278 278 277 277 276 276 275 276 278 281 282 282 282 280 277 277 276 276 276 276 275 275 275 274 274
284 283 283 283 282 282 281 281 280 280 279 279 279 279 278 278 278 278 277 277 276 276 275 276 275 280 281 283 283 283 282 279 277 277 276 276 276 275 275 275 274 274
284 283 283 283 282 282 281 280 280 279 280 280 279 279 278 278 278 278 277 276 276 276 276 276 275 279 282 283 284 284 284 281 277 277 277 276 276 275 275 275 274 273
284 283 283 283 282 282 281 280 280 280 280 280 279 279 278 278 278 277 277 277 277 276 276 275 275 280 283 284 285 285 285 283 277 277 276 276 276 275 275 275 274 273
284 283 283 282 282 281 281 280 280 280 279 280 279 279 279 278 278 278 277 277 277 276 276 275 275 281 283 284 285 286 286 284 279 277 276 275 275 275 275 274 274 274
284 283 283 282 282 281 281 280 280 280 280 279 279 279 278 278 278 278 278 277 277 276 276 276 276 280 283 284 285 286 286 283 281 278 277 276 275 275 274 274 273 273
284 284 283 283 282 281 281 281 281 281 280 279 279 278 278 278 278 277 277 277 277 276 276 276 276 278 282 284 285 286 285 283 282 279 278 277 277 276 274 274 274 274
284 284 283 283 282 282 281 281 281 281 280 279 279 279 278 278 278 277 277 277 277 277 278 277 277 278 282 283 284 286 285 283 282 280 279 278 277 277 276 275 274 275
284 283 283 283 282 282 282 281 281 280 280 279 279 279 279 278 278 278 277 277 277 277 277 277 277 277 278 283 284 285 286 284 282 280 279 278 277 277 277 276 275 274

ECMWFNIL_sfc_thetae_078.txt.gz
Theta_e
294 294 295 296 295 296 295 294 294 294 293 293 292 293 292 292 290 290 291 290 291 290 290 290 290 290 290 290 291 291 291 290 289 290 290 290 290 290 290 290 291 289
294 293 293 293 293 293 295 295 293 293 293 293 293 293 292 290 290 290 289 289 289 290 289 290 290 289 289 290 290 290 289 289 287 288 289 289 288 289 289 289 289 288
293 292 292 292 291 291 291 292 292 293 293 293 292 292 290 290 289 289 289 289 289 289 289 289 289 289 289 290 290 289 289 288 287 287 288 288 288 288 287 287 288 288
293 292 292 292 291 291 291 290 290 291 291 291 290 290 290 289 289 288 288 288 289 288 288 289 289 288 289 289 289 288 288 287 287 287 286 286 286 286 286 286 286 286
294 292 291 290 290 290 289 288 288 289 290 289 289 289 288 288 288 288 288 288 288 288 288 288 288 288 288 288 288 287 286 285 286 286 286 285 285 285 285 285 284 284
293 292 291 290 289 288 287 287 288 289 289 288 288 287 288 288 288 287 287 287 288 287 287 287 287 286 287 286 286 285 285 284 284 284 284 283 283 284 283 284 284 283
292 291 290 289 288 288 287 288 288 288 288 287 287 287 288 288 287 287 287 287 287 287 286 286 286 285 285 284 284 284 284 284 283 283 283 283 283 282 282 283 282 281
291 290 290 289 287 287 287 287 287 287 287 286 286 287 287 287 287 287 287 287 287 286 285 285 285 284 284 284 284 283 282 282 282 283 283 283 283 282 281 281 280 279
290 289 289 289 288 287 286 286 286 285 286 285 286 286 287 287 287 286 286 286 286 285 285 284 284 283 283 283 283 283 282 282 283 283 283 282 281 280 279 279 279 279
290 288 287 286 286 286 285 285 284 284 285 285 285 286 286 286 286 286 286 285 284 284 283 283 282 282 282 282 282 282 282 282 282 282 282 281 280 279 278 278 279 279
290 288 286 285 285 285 285 284 284 284 284 284 285 285 285 285 285 285 284 284 283 283 283 282 282 282 282 281 282 282 282 281 281 281 280 280 280 279 279 278 279 280
289 288 287 285 284 284 284 284 284 283 283 284 285 285 285 284 284 284 284 284 283 283 283 283 283 282 281 281 281 281 280 280 280 280 280 279 279 278 278 279 279 280
289 288 287 286 285 285 284 283 283 283 283 283 284 285 284 283 283 283 283 284 284 283 283 283 282 281 280 280 280 280 280 280 280 280 279 279 278 278 279 279 280 280
288 288 287 286 285 285 284 284 283 283 283 284 284 284 283 283 282 282 283 284 283 283 283 282 281 279 279 279 279 280 280 280 280 279 279 278 277 278 279 279 279 280
288 287 286 285 285 284 283 283 283 283 283 283 284 284 284 283 283 283 282 282 282 282 281 281 280 279 279 279 279 279 280 279 279 278 278 277 277 278 278 279 279 279
288 287 286 286 285 284 283 283 283 283 283 283 283 284 284 283 282 282 282 282 281 281 280 279 279 279 280 282 281 280 279 279 279 278 278 278 278 277 277 278 278 279
288 287 286 285 285 284 284 283 283 283 283 283 283 283 283 282 282 281 281 281 280 280 279 279 279 279 282 283 283 282 279 279 279 279 279 278 278 278 277 278 278 279
287 286 285 285 284 284 283 283 283 282 282 282 283 282 282 282 281 281 281 280 280 279 279 279 278 281 283 284 284 283 281 279 280 279 279 278 278 278 278 279 279 279
287 286 285 284 284 284 283 283 283 282 282 282 282 282 282 281 281 280 280 280 279 279 278 278 278 282 283 284 284 284 283 281 280 280 279 279 279 278 278 279 280 279
287 286 285 285 284 284 284 283 282 282 282 282 282 282 281 281 280 280 280 279 279 279 279 278 278 281 284 285 285 285 284 282 280 280 280 280 279 279 279 280 280 279
286 286 285 285 284 284 284 283 282 282 282 282 282 281 280 280 280 279 279 280 279 279 279 278 278 282 284 285 285 286 285 283 280 280 280 280 279 279 279 280 280 279
287 286 285 285 284 284 283 283 282 282 282 282 282 281 281 281 280 281 280 279 279 279 279 279 279 282 284 285 286 286 286 283 280 279 279 280 279 280 280 280 280 279
287 286 285 284 284 283 283 283 282 282 282 282 282 282 281 280 281 280 280 279 279 279 279 280 279 281 284 285 286 286 286 284 281 279 279 279 279 280 280 280 280 279
287 286 285 284 284 283 283 283 283 283 282 283 282 281 281 281 281 280 280 280 279 279 279 279 278 280 284 285 286 287 285 284 283 281 280 279 279 280 280 280 280 280
287 286 286 285 284 284 284 283 283 283 283 282 282 283 281 281 280 280 280 280 279 279 280 279 278 279 284 285 286 286 286 285 284 283 281 281 280 280 281 280 280 280
286 285 285 285 284 284 284 284 284 283 283 282 282 282 281 281 280 279 279 279 279 278 278 279 278 278 281 285 286 286 286 285 284 283 283 282 282 282 282 282 281 280

ECMWFNIL_sfc_thetae_081.txt.gz
Theta_e
306 303 302 301 301 301 299 298 297 296 296 295 295 294 294 294 295 294 294 295 296 296 296 296 296 296 296 296 297 296 296 295 293 294 295 294 293 293 292 293 292 290
303 303 301 300 300 300 299 300 299 301 299 297 296 296 295 295 294 294 294 294 294 295 295 295 295 295 295 295 295 294 292 292 291 293 292 292 291 292 291 291 290 289
301 301 300 300 301 299 299 299 299 299 298 298 298 298 296 295 293 293 293 293 293 293 293 293 293 293 293 293 293 292 291 290 290 291 291 290 290 289 289 289 289 288
301 301 300 299 300 300 300 299 300 299 297 297 296 296 295 294 293 292 292 291 292 292 292 292 292 292 292 292 292 291 290 290 290 290 289 289 289 288 288 288 287 286
300 299 297 297 299 298 297 297 296 296 295 296 294 293 292 292 292 291 290 291 291 290 290 290 291 291 291 291 291 290 289 289 289 289 288 287 287 287 286 286 286 285
298 298 297 296 296 295 294 294 294 293 293 292 292 291 290 291 290 290 290 290 290 290 289 289 289 289 289 290 289 289 288 287 288 288 286 285 285 285 285 285 284 283
297 298 296 295 296 294 293 292 292 292 291 291 289 289 289 289 289 289 289 289 289 289 288 288 288 288 289 288 288 287 286 286 286 285 284 283 284 283 284 284 283 282
297 296 298 295 294 292 291 291 290 290 290 289 288 288 289 289 289 289 289 289 289 288 288 288 288 287 287 287 286 285 284 285 284 284 283 283 282 282 282 283 282 280
296 296 296 294 294 291 290 290 290 289 289 288 288 288 289 289 289 288 288 289 288 288 288 287 287 286 286 285 285 284 283 284 285 284 283 282 282 282 281 281 280 280
296 295 294 294 294 292 290 289 289 288 288 288 287 287 287 288 289 288 288 288 287 287 286 286 285 285 284 285 284 284 283 283 283 283 283 282 282 281 280 280 280 279
295 295 295 293 292 290 289 289 288 287 287 287 287 286 287 287 287 287 287 287 287 286 286 285 284 284 284 284 284 284 283 283 283 283 283 282 281 280 281 280 280 279
295 293 293 291 291 289 289 288 287 286 286 286 286 286 286 286 286 286 286 286 286 285 285 284 284 284 284 283 283 283 283 283 283 282 282 281 280 280 280 280 280 280
294 293 292 291 291 290 289 287 286 286 286 285 286 286 285 285 285 285 285 285 285 285 284 284 284 284 284 283 283 283 282 282 281 281 281 280 280 279 279 279 280 280
294 293 292 291 290 290 288 287 286 286 285 286 286 285 285 285 284 284 285 285 285 284 284 284 284 283 283 283 282 282 282 281 281 280 280 279 279 279 279 279 279 280
294 293 292 291 290 289 287 286 285 285 285 285 285 285 285 285 284 284 284 284 284 284 284 284 283 283 283 282 281 281 282 281 281 280 279 278 278 278 279 279 279 280
294 293 291 290 289 288 287 286 285 285 284 284 284 284 284 284 284 284 284 284 283 283 283 283 282 283 283 285 284 282 281 282 281 280 279 279 278 278 278 279 279 280
292 291 290 290 289 288 287 286 286 285 284 284 284 284 284 284 283 283 284 284 283 283 282 282 282 281 284 286 286 286 282 281 280 280 280 279 278 278 277 278 279 280
291 291 290 290 289 287 286 286 285 285 285 284 284 284 284 284 283 283 283 283 283 282 282 281 281 283 286 286 286 286 284 281 281 280 279 279 279 278 278 279 279 279
291 290 290 289 288 287 286 286 285 285 284 284 284 284 284 283 283 283 282 282 282 281 281 281 280 285 286 287 287 286 285 283 281 280 279 279 279 279 279 279 279 279
291 290 289 289 288 287 286 285 285 284 284 284 284 284 283 283 283 282 282 282 281 281 281 280 280 284 286 287 287 286 286 284 281 280 280 280 279 279 279 279 280 280
290 290 289 289 287 286 285 285 284 284 284 284 284 283 283 282 282 282 282 282 281 281 280 280 279 284 286 287 287 287 286 283 281 281 280 280 279 279 279 280 280 280
290 290 289 288 286 285 285 284 284 284 284 284 283 283 283 283 282 282 282 281 281 280 280 279 279 284 286 286 287 287 287 282 281 280 280 280 279 279 280 280 281 281
289 289 288 286 286 285 284 284 284 284 284 284 283 282 282 282 282 281 282 281 281 280 280 279 279 283 285 286 287 287 286 283 281 280 280 279 279 280 279 280 280 280
289 289 287 286 285 285 285 284 284 284 284 284 282 282 281 281 282 281 282 282 281 280 280 280 280 281 285 286 287 287 286 282 280 279 279 279 280 280 280 280 280 282
289 288 287 286 285 285 285 284 284 284 284 284 283 283 282 282 282 281 281 281 281 280 281 280 280 281 284 286 286 287 286 283 281 280 280 279 279 279 280 280 280 281
288 287 286 285 285 285 285 285 285 285 284 283 283 283 283 282 282 281 281 281 281 280 280 280 279 279 282 285 286 287 286 284 283 280 280 279 280 280 280 280 280 281

ECMWFNIL_sfc_thetae_084.txt.gz
Theta_e
308 308 307 305 304 304 301 300 298 298 297 297 297 296 295 295 295 295 296 297 297 298 298 298 297 297 298 298 298 297 296 295 293 293 292 290 288 287 287 285 284 284
306 306 304 303 302 302 300 301 299 299 298 298 298 297 297 295 294 294 295 295 295 295 295 296 296 296 295 295 295 294 291 290 290 291 289 288 287 286 285 284 283 283
305 305 303 302 301 300 300 300 300 300 300 299 298 298 296 295 294 294 294 294 294 294 294 294 294 294 294 293 292 290 288 288 288 287 287 287 286 285 284 283 283 282
304 304 303 302 301 300 299 299 299 299 300 298 298 297 295 294 294 294 294 293 293 292 292 293 293 292 292 290 288 287 287 287 287 286 286 285 285 284 283 283 282 282
302 302 302 302 301 301 299 298 298 298 298 298 297 296 294 293 292 291 291 291 291 290 290 290 290 290 290 289 287 286 285 285 285 285 285 284 283 284 283 282 282 281
300 301 301 301 300 300 299 298 297 297 297 295 295 294 293 292 291 290 290 290 290 290 289 289 289 289 289 287 286 285 285 284 284 284 283 283 282 283 283 282 281 280
297 299 299 299 299 299 297 297 297 296 295 294 291 291 291 291 290 290 289 289 289 289 289 288 288 288 287 286 285 284 284 284 283 283 282 282 282 281 281 281 281 281
297 297 297 295 295 296 295 294 294 294 294 292 290 289 290 290 290 289 289 288 288 288 288 288 288 288 286 285 284 283 283 284 283 282 281 281 281 280 280 280 280 279
295 295 294 293 293 293 293 293 293 293 292 291 290 289 288 289 289 288 288 288 287 287 287 287 287 287 286 284 283 283 283 282 282 281 281 280 280 280 279 279 278 278
294 293 293 293 292 292 292 292 292 291 290 291 290 289 288 288 288 288 288 287 287 286 286 286 286 286 285 283 283 282 282 282 281 280 280 280 279 279 279 279 278 277
293 292 293 293 293 293 292 291 291 290 289 290 289 288 288 287 287 287 287 287 286 286 285 285 285 285 284 282 282 282 282 281 280 280 279 279 279 279 280 278 278 278
293 292 292 293 293 293 292 291 290 289 289 289 289 288 287 287 287 287 287 287 286 286 285 285 284 284 283 282 281 281 280 280 280 280 279 279 278 278 278 278 278 278
293 293 293 292 292 292 291 290 289 289 288 288 288 288 287 286 286 286 286 286 286 285 285 284 283 283 283 281 280 280 280 280 280 279 279 278 278 278 277 278 278 278
293 293 292 292 292 291 290 289 288 288 288 288 287 287 287 286 286 286 286 286 285 285 285 284 282 282 282 281 280 280 280 280 280 279 278 278 277 277 278 278 278 279
292 292 291 291 291 290 289 288 288 287 286 287 286 287 287 286 286 286 285 285 284 284 284 283 282 282 282 281 280 280 280 280 280 279 278 277 277 278 278 278 279 279
291 291 290 290 290 290 289 288 287 286 285 286 286 286 286 286 285 285 285 284 284 283 283 283 282 283 283 285 284 281 280 280 280 279 278 278 278 277 277 278 279 280
291 291 290 289 289 289 288 287 286 285 285 285 286 285 285 285 285 284 284 284 283 283 282 282 282 283 285 288 289 287 281 280 279 279 279 278 278 277 277 278 279 281
291 290 289 289 288 288 288 286 285 284 284 285 285 284 285 285 284 284 284 283 283 282 282 282 282 284 287 288 288 287 284 281 280 279 279 278 278 278 278 278 279 280
290 290 289 288 287 287 286 286 285 284 284 283 283 284 285 284 284 283 283 283 283 282 282 282 282 286 288 288 289 288 287 283 280 279 279 279 278 278 278 278 279 280
290 289 288 288 287 286 285 285 284 284 284 284 284 284 284 284 284 283 283 283 283 282 282 282 281 285 288 288 287 288 287 284 280 280 280 279 278 278 278 279 280 280
289 289 288 287 286 285 284 284 284 284 283 284 284 284 284 284 283 283 283 283 283 283 282 281 281 286 288 288 290 289 287 284 280 280 279 279 279 279 279 279 280 281
289 288 287 287 286 285 284 284 283 283 283 283 284 284 284 284 284 284 283 283 283 283 282 281 281 287 287 288 289 288 287 281 280 280 279 279 279 279 279 280 281 282
289 288 287 286 285 284 284 284 283 282 282 283 283 284 284 283 283 283 283 282 282 282 281 281 280 285 287 288 289 288 285 280 280 280 279 279 278 279 279 280 281 282
288 287 286 285 285 284 284 283 283 282 282 283 283 283 283 283 283 283 283 282 282 282 282 281 280 284 287 287 288 288 284 280 280 280 279 279 278 279 279 280 281 282
287 287 286 285 285 284 283 283 282 282 282 282 282 283 283 283 282 282 282 283 282 282 282 282 281 282 286 287 287 287 284 281 280 280 279 278 278 278 279 279 279 281
286 286 286 285 285 283 283 283 283 282 282 282 282 283 283 283 282 282 281 281 282 281 281 282 281 281 285 287 287 288 286 282 280 279 278 278 278 278 278 278 279 279

ECMWFNIL_sfc_thetae_087.txt.gz
Theta_e
304 304 305 305 305 306 305 303 303 302 300 299 298 298 298 298 298 298 299 300 301 303 304 305 305 306 304 305 304 303 302 301 299 297 297 296 295 293 292 291 289 289
303 303 304 305 305 304 304 304 303 303 301 300 300 299 299 298 298 298 298 299 299 300 301 301 303 304 303 303 303 302 301 300 297 296 296 295 294 293 292 290 288 286
302 302 303 304 305 304 303 303 303 303 302 300 300 300 298 298 297 297 298 299 299 299 299 299 299 300 301 301 301 300 298 296 295 293 294 293 292 291 290 288 286 284
301 302 303 303 304 304 302 302 301 301 301 299 299 299 298 297 296 296 297 296 298 299 298 298 298 298 298 298 298 296 296 296 295 293 293 291 290 290 287 286 284 283
301 302 303 303 303 303 301 301 300 300 300 300 299 298 296 295 295 295 295 295 296 295 295 296 296 295 295 295 295 294 293 293 291 291 291 289 288 288 286 285 283 282
299 301 302 303 302 302 301 301 300 300 300 299 299 297 296 295 294 293 293 292 292 292 292 292 292 292 292 293 293 294 292 292 290 290 290 289 287 286 285 284 283 281
298 299 300 301 301 301 300 300 299 298 299 299 297 296 295 293 293 293 292 293 292 292 292 291 291 291 291 291 291 292 291 291 289 289 289 287 286 284 283 283 283 281
296 296 298 298 299 300 299 298 297 297 297 296 296 295 294 293 293 292 292 292 292 292 292 291 291 291 290 290 291 290 289 289 288 288 288 286 285 283 281 281 281 280
294 293 294 293 294 296 297 297 297 297 296 295 294 293 292 293 292 292 291 291 291 291 291 291 291 290 290 290 290 290 289 288 288 288 287 285 284 282 280 280 280 280
292 292 291 292 293 294 295 295 296 296 295 295 294 292 292 292 292 291 291 290 290 290 290 290 289 289 289 289 290 289 289 288 287 287 287 285 284 282 280 279 280 279
291 291 291 292 293 293 293 293 294 294 293 294 293 291 291 291 290 291 290 290 290 289 289 289 289 289 289 288 289 289 288 288 287 286 285 285 284 281 281 280 280 279
291 291 291 292 292 292 292 292 292 293 293 293 293 291 290 290 290 289 290 289 289 289 289 289 289 289 289 288 288 288 287 287 286 285 285 284 283 281 280 280 280 279
291 292 292 292 292 292 291 291 290 291 291 292 291 291 290 289 289 289 289 289 289 288 288 288 288 288 288 288 288 287 287 286 285 284 283 283 282 281 280 279 279 279
293 292 292 292 292 291 291 290 290 289 289 290 289 290 290 290 289 288 288 288 288 288 288 287 287 287 287 287 287 286 286 285 284 283 282 281 280 280 279 279 279 279
293 292 292 291 290 290 290 290 289 288 288 288 288 289 290 290 289 289 288 287 288 287 287 286 286 286 286 286 285 285 285 284 283 282 281 280 279 279 279 278 279 279
292 291 291 290 290 290 290 290 289 288 288 287 288 288 289 289 289 288 288 288 287 287 286 286 286 286 286 287 287 285 284 284 283 282 280 280 279 278 278 278 278 279
290 291 290 290 290 290 289 289 288 288 287 287 287 287 288 288 287 287 287 287 287 286 285 285 285 285 286 288 288 288 284 283 282 281 280 280 279 279 278 278 278 279
291 290 289 289 289 289 289 288 287 287 287 287 287 287 287 287 286 287 287 286 286 285 285 284 284 285 288 288 289 288 286 282 282 281 280 279 279 279 279 278 278 279
291 290 289 289 289 289 288 288 287 287 286 286 286 287 286 286 286 286 286 286 286 285 284 284 284 286 288 288 288 288 287 284 282 281 280 280 279 279 279 279 279 279
290 289 289 289 289 288 287 287 287 286 286 286 286 286 286 286 286 286 286 285 285 285 284 284 284 285 288 288 288 288 289 285 282 281 281 280 279 279 279 279 280 280
290 290 290 289 288 287 287 287 287 287 286 285 285 285 285 285 286 285 285 285 285 284 284 283 283 286 288 288 289 289 288 286 282 281 281 280 279 279 279 280 280 281
290 290 290 289 288 287 287 287 287 286 285 284 284 284 284 285 286 286 285 285 285 284 284 283 283 286 287 288 289 290 288 283 281 281 280 280 279 279 279 280 281 281
290 289 289 288 287 286 286 286 286 285 285 284 283 283 283 284 284 285 285 285 284 284 283 283 283 285 287 288 289 290 287 282 281 280 280 279 279 279 279 280 281 282
289 289 288 288 287 286 286 286 286 285 284 283 284 283 283 283 283 284 284 284 284 284 284 283 283 284 287 288 288 289 285 282 281 280 279 279 279 279 279 280 281 283
288 288 288 287 287 287 286 286 285 284 284 283 283 283 283 283 283 283 284 284 284 284 284 284 283 283 287 288 288 288 285 281 281 280 279 279 278 278 279 280 281 283
287 287 287 287 287 287 286 286 284 283 282 282 282 282 282 281 282 282 282 283 284 283 283 283 282 282 285 288 288 288 285 282 281 280 279 279 278 278 278 279 280 282

ECMWFNIL_sfc_thetae_090.txt.gz
Theta_e
303 303 304 303 303 303 302 300 301 301 301 301 302 302 302 302 301 302 302 303 305 306 308 308 308 307 307 307 306 304 303 302 301 301 300 298 297 296 295 294 293 293
302 302 302 302 302 301 302 301 301 302 301 301 301 301 302 301 301 301 302 302 303 304 306 307 307 307 307 306 305 304 303 302 301 301 300 298 297 296 295 294 293 293
300 300 301 301 303 302 301 301 301 302 302 301 301 301 301 301 301 301 302 302 302 303 304 305 306 306 306 306 305 303 302 301 300 300 299 298 297 295 295 294 293 292
300 301 302 301 302 301 301 300 300 301 301 301 301 302 302 301 300 300 300 299 301 302 302 303 303 304 305 304 304 303 302 301 301 300 298 297 296 296 295 294 293 292
299 300 300 301 300 300 300 300 300 300 301 301 301 301 301 300 299 299 299 299 300 300 300 300 301 301 302 302 302 300 298 297 296 295 295 295 295 295 294 293 292 291
298 299 299 300 300 300 300 300 300 300 300 300 301 300 300 300 299 298 297 297 297 298 298 298 298 298 298 299 298 299 298 297 296 295 295 294 293 292 292 291 291 290
297 297 297 298 298 299 299 300 300 299 299 300 298 299 299 298 297 297 297 296 296 296 296 296 296 295 295 296 296 297 297 297 296 295 295 294 293 290 289 289 289 289
295 295 297 297 297 297 296 296 295 296 297 295 297 298 297 297 296 295 295 295 295 295 295 295 295 296 293 293 295 295 296 295 294 293 293 293 290 290 288 288 288 288
294 294 294 293 294 295 295 295 294 293 294 296 297 297 296 297 296 295 294 294 294 294 295 294 294 294 293 292 293 294 294 293 293 293 293 293 290 290 289 287 287 287
292 292 291 292 293 294 294 294 293 292 292 294 296 296 296 295 295 295 294 293 293 294 294 294 293 293 292 292 293 294 294 293 292 291 292 292 291 290 289 287 287 286
291 291 291 291 292 293 293 292 291 291 291 293 295 296 295 295 293 293 293 293 293 293 293 293 293 293 293 292 292 293 293 293 292 291 292 292 291 290 288 287 287 286
292 291 291 292 292 292 292 291 291 291 292 292 294 295 294 294 294 293 293 293 293 293 293 293 293 293 293 293 293 293 293 293 292 291 291 291 290 289 287 286 286 286
292 292 292 292 291 291 290 290 290 291 291 293 292 293 294 294 293 293 292 292 292 292 292 292 292 292 292 292 292 292 292 292 291 290 290 290 289 288 286 286 286 285
293 293 292 291 291 290 290 290 290 291 291 292 291 292 293 293 293 292 292 291 292 292 292 292 291 291 291 291 291 291 291 291 291 290 289 289 288 287 286 285 285 285
294 292 291 290 290 290 290 290 290 291 290 290 291 292 293 293 293 292 292 291 291 291 291 291 291 291 291 291 290 290 290 290 290 289 289 288 287 286 285 285 284 284
293 291 291 289 289 290 290 290 290 290 290 290 290 291 291 291 291 291 292 292 291 290 290 290 290 291 289 290 291 290 289 289 289 288 288 288 287 285 284 284 283 283
292 291 289 289 289 289 289 289 289 289 289 289 289 289 290 290 290 290 291 291 291 290 290 289 290 290 289 291 292 292 289 289 288 288 287 287 286 285 283 282 282 282
292 291 289 290 289 289 289 288 288 288 288 288 288 288 288 288 289 290 290 290 290 290 290 289 289 289 291 291 292 292 290 288 288 287 286 286 285 285 284 282 281 281
291 290 290 290 290 289 288 288 288 288 288 288 288 288 287 287 288 288 289 290 290 289 289 289 289 289 290 291 291 291 292 289 287 287 286 285 285 284 284 282 281 280
290 289 290 290 290 288 288 287 287 288 288 288 288 287 287 287 287 287 288 288 289 289 289 289 288 289 290 290 290 291 291 290 287 286 286 285 284 284 283 282 281 280
289 289 289 289 289 288 287 287 288 288 287 287 287 287 287 287 287 287 287 287 287 288 289 288 288 289 290 290 290 291 291 290 287 285 285 284 284 283 282 282 281 281
288 289 289 289 288 288 287 287 287 287 287 287 286 287 287 286 287 287 287 287 287 287 287 287 288 289 289 290 290 291 291 288 286 285 284 283 283 282 282 282 281 281
288 288 289 288 288 287 287 287 287 287 287 287 286 286 286 286 286 286 286 286 286 286 286 287 287 288 289 289 290 291 290 287 285 284 283 282 282 281 281 281 281 281
288 288 288 288 288 288 288 288 288 287 287 286 286 286 285 285 286 285 285 286 286 286 286 286 287 287 288 289 289 290 288 286 285 283 282 282 281 281 281 281 281 282
288 287 288 288 288 288 288 288 287 287 287 286 286 286 286 285 284 284 285 285 285 285 285 285 286 286 287 288 289 289 288 286 284 283 282 281 280 280 280 280 281 282
287 287 287 287 288 288 288 287 287 286 285 284 284 284 285 284 283 284 283 284 284 283 284 285 285 285 286 288 288 289 289 286 284 282 281 280 280 279 279 279 280 281

ECMWFNIL_sfc_thetae_093.txt.gz
Theta_e
302 302 303 302 302 302 302 300 300 300 301 301 302 302 302 303 301 301 302 303 305 307 309 310 310 309 309 309 308 307 305 304 303 303 302 301 300 299 298 298 297 297
301 301 300 301 300 299 300 300 300 300 301 301 301 301 301 300 300 301 301 302 302 304 307 308 308 309 309 308 308 306 305 304 303 303 302 300 300 299 299 298 297 297
300 299 300 300 301 300 300 299 300 300 300 300 300 299 299 299 299 299 300 301 303 304 305 306 307 307 308 307 307 306 304 303 303 302 301 300 300 299 299 298 297 295
299 300 300 300 300 300 299 298 298 298 298 298 299 299 299 299 298 298 299 299 302 303 304 304 305 306 307 307 306 305 304 304 303 302 301 300 299 299 298 297 296 295
298 299 299 299 299 298 297 298 298 298 298 299 298 297 298 297 297 297 297 298 299 300 302 302 303 304 305 305 305 304 304 303 302 302 300 298 298 297 297 296 295 295
296 298 298 298 298 298 298 298 299 298 298 297 298 297 297 297 297 297 296 296 297 299 300 300 301 302 302 303 303 303 302 300 299 299 298 298 298 297 297 297 296 295
296 296 296 297 297 297 297 298 298 297 297 297 293 296 294 295 295 296 297 296 297 298 298 298 298 298 299 299 299 299 299 299 298 298 297 297 297 296 295 295 295 294
295 294 296 295 295 295 295 296 295 295 294 291 293 294 293 295 295 296 296 296 297 298 297 297 297 299 297 296 297 297 298 299 298 297 297 297 296 296 295 294 293 293
292 293 293 292 293 293 293 294 293 291 290 292 293 292 291 293 294 294 295 295 296 297 297 296 296 296 296 295 295 296 297 297 297 297 297 296 296 296 295 294 292 292
292 291 289 290 291 292 292 292 291 291 290 292 293 292 292 292 293 294 294 294 295 296 296 296 295 294 294 294 295 295 296 297 297 297 297 297 297 296 296 294 293 292
290 289 289 290 291 291 291 291 290 290 290 291 292 292 292 292 292 293 293 294 295 296 296 295 295 294 294 294 294 294 295 296 296 296 296 296 296 296 294 294 293 292
290 289 290 290 291 290 290 290 289 289 290 290 291 292 292 292 292 292 293 294 294 295 296 296 295 295 295 295 295 294 294 294 295 295 295 295 295 295 295 294 293 292
291 291 290 290 290 290 289 289 289 289 290 291 290 291 292 292 291 292 292 293 294 294 295 295 295 295 294 294 294 294 294 294 294 294 294 294 294 294 294 293 292 292
291 290 289 289 289 289 289 289 289 289 289 289 288 290 291 292 292 292 292 291 293 293 294 294 294 294 294 293 293 294 294 293 294 293 293 293 293 293 293 293 292 292
290 289 288 288 288 289 289 289 289 288 288 288 289 290 291 291 292 292 291 291 292 292 292 293 293 294 294 293 293 293 293 293 293 293 293 292 292 292 291 291 291 291
289 289 289 288 288 289 289 289 288 288 287 288 289 289 290 290 290 291 291 292 292 291 291 292 292 293 291 292 293 292 293 293 292 292 292 292 291 291 291 290 290 290
288 289 288 288 289 288 288 288 288 288 287 288 288 288 289 289 289 290 291 291 291 292 291 291 292 292 292 293 294 294 292 292 292 291 291 291 291 290 290 290 289 289
288 288 288 288 288 288 288 287 287 287 287 288 288 288 288 288 288 289 290 290 291 291 291 292 292 292 293 293 294 294 293 291 291 290 290 291 291 290 291 290 289 288
287 287 288 288 288 288 288 287 287 287 287 287 287 288 287 287 288 288 289 290 290 290 290 291 291 293 293 293 293 293 294 292 291 290 290 290 290 290 289 289 288 287
287 287 287 288 288 288 287 287 287 287 288 288 287 287 287 287 287 288 288 288 289 290 290 291 291 291 293 293 293 293 293 293 290 290 289 289 289 289 289 289 288 287
286 287 287 287 287 287 287 287 287 287 287 287 287 287 287 287 288 287 288 288 288 288 289 290 291 291 292 293 293 293 293 293 291 290 289 289 289 289 289 288 288 287
287 287 287 287 287 287 287 287 287 287 287 287 287 287 287 287 287 287 287 287 287 287 288 288 289 291 292 292 292 293 293 290 290 289 289 288 288 288 288 288 287 286
287 287 287 287 287 287 287 287 287 287 287 286 286 287 287 287 287 287 287 287 287 287 287 287 288 289 291 291 292 292 291 289 289 288 288 287 287 287 287 286 286 285
287 286 287 287 287 287 287 287 288 287 287 287 286 287 287 287 287 287 287 287 287 287 287 287 287 288 290 291 291 292 290 288 288 288 287 287 287 286 286 285 285 284
286 286 286 286 286 287 287 287 287 287 288 286 286 286 287 287 286 286 286 286 286 286 286 286 287 287 289 290 291 291 290 288 288 288 287 287 286 285 285 284 283 283
286 285 286 286 286 286 287 287 287 287 287 286 286 286 286 286 286 285 285 286 286 285 285 286 286 286 287 289 290 290 291 288 288 287 286 286 285 284 283 281 282 282

ECMWFNIL_sfc_thetae_096.txt.gz
Theta_e
301 300 302 301 302 301 301 300 299 299 300 300 300 301 301 301 298 300 300 301 302 305 307 308 310 310 309 309 309 309 308 307 306 306 304 303 302 301 300 300 299 298
299 299 299 299 298 298 299 299 300 299 300 299 300 300 297 297 298 299 299 300 300 301 302 304 305 307 308 308 308 308 307 306 306 305 304 303 302 302 301 301 300 300
297 297 298 299 300 300 299 298 298 298 299 299 297 296 298 296 297 297 298 299 299 299 300 301 303 304 305 307 308 307 307 306 305 305 303 303 302 302 301 301 300 299
296 298 299 299 299 299 298 297 296 296 295 296 296 297 297 296 297 297 297 296 298 299 299 300 301 302 304 306 306 306 306 306 306 305 304 303 302 302 301 301 300 299
295 297 297 298 297 297 295 296 297 296 296 297 294 294 295 295 295 295 295 295 296 297 298 298 299 300 301 302 304 304 305 305 304 304 303 302 302 301 301 299 298 297
293 295 296 296 297 296 296 297 297 296 296 294 297 296 295 295 295 294 294 295 295 296 296 297 297 298 299 300 301 303 303 303 302 302 301 300 299 298 299 298 297 297
294 293 294 294 294 294 295 296 295 294 294 295 291 294 292 294 294 295 295 295 295 295 295 296 296 296 297 299 300 300 301 301 299 298 299 299 298 298 297 297 297 297
293 291 292 291 292 292 292 293 292 293 293 289 291 294 291 294 294 294 293 294 294 295 295 295 295 297 295 296 297 297 297 299 299 297 297 297 297 297 297 297 296 296
289 289 288 288 289 290 290 291 290 289 288 290 291 291 289 292 293 292 293 293 293 293 294 294 294 294 293 293 294 296 296 297 298 297 297 297 297 297 297 297 296 295
287 287 287 287 288 289 289 289 289 289 287 289 290 289 290 290 290 292 291 291 292 292 292 293 293 292 292 292 294 295 296 296 296 296 296 297 297 297 297 296 296 295
286 286 286 287 288 288 288 288 288 288 287 289 289 289 290 290 290 289 290 291 292 292 293 293 293 293 292 292 293 294 295 295 296 296 296 296 296 297 295 297 296 296
286 286 286 287 287 287 288 288 287 287 288 288 288 290 290 289 290 289 289 291 291 292 293 293 292 292 292 293 293 293 293 294 294 295 295 296 296 296 296 296 296 296
287 287 286 286 286 287 287 286 287 287 287 288 288 288 289 289 289 290 289 290 291 292 292 292 293 292 292 292 293 293 293 293 293 294 294 294 295 295 296 296 296 296
287 287 287 287 287 287 287 286 286 286 287 287 286 287 288 288 289 290 290 289 290 291 291 291 291 292 292 292 292 292 292 292 292 293 294 294 294 294 294 295 295 295
287 287 286 287 287 287 287 287 287 287 287 287 286 287 287 288 288 289 289 290 290 290 290 290 291 292 292 292 292 292 292 292 292 292 292 293 293 294 294 294 294 294
287 286 286 285 286 286 287 287 287 287 287 287 287 287 287 287 287 288 288 289 290 290 290 290 291 292 291 292 293 293 292 292 292 292 292 292 293 293 293 293 293 294
286 287 286 287 287 286 286 286 287 286 286 286 286 287 287 287 286 287 288 288 289 289 290 290 291 292 292 294 295 295 293 292 292 292 292 292 292 292 292 292 292 292
285 286 286 287 287 287 287 286 286 286 286 286 286 286 286 285 286 287 287 287 288 288 289 290 291 291 293 294 294 295 294 292 292 292 292 292 293 293 293 293 292 292
285 285 286 286 286 286 286 286 286 286 286 286 287 287 285 285 286 286 287 287 287 287 288 289 289 291 293 294 294 294 294 293 292 292 291 291 292 292 292 292 292 291
284 285 285 285 285 285 285 285 285 286 286 286 286 286 286 286 286 286 287 286 287 287 288 288 289 290 293 293 293 294 294 294 292 291 291 291 292 292 292 292 291 291
285 285 285 285 285 284 284 284 285 285 285 286 286 286 286 287 287 287 287 287 287 287 287 288 289 291 292 292 293 293 294 294 292 291 291 291 291 292 292 292 292 291
286 285 285 285 286 285 285 286 286 285 286 286 285 285 286 285 286 286 286 287 287 287 287 287 289 291 291 292 292 293 294 291 290 290 290 290 290 291 291 291 291 291
285 285 285 285 285 285 285 286 286 286 286 284 285 286 285 286 286 286 286 286 287 287 286 287 288 289 291 291 292 293 292 290 289 289 289 289 290 290 291 290 290 290
285 284 284 284 284 284 285 285 286 286 285 285 284 286 286 287 286 286 287 286 286 286 287 287 287 288 290 291 291 292 291 289 288 288 288 288 288 289 289 290 289 288
284 284 283 283 284 284 284 284 285 285 285 285 285 284 285 286 286 286 286 287 286 286 286 286 287 287 289 290 291 291 290 288 288 288 287 288 288 288 289 289 289 287
284 283 283 283 283 284 284 284 284 284 285 285 285 285 285 285 285 285 285 286 286 286 286 286 286 286 287 289 290 290 291 288 287 287 287 287 287 288 288 288 288 287

ECMWFNIL_sfc_thetae_099.txt.gz
Theta_e
303 303 305 305 306 306 306 305 305 305 305 305 305 306 306 307 305 306 308 309 310 311 312 313 314 314 314 314 313 312 311 311 310 310 308 307 307 306 305 304 303 303
301 301 302 302 303 303 304 304 304 304 304 304 304 305 304 304 304 304 305 305 306 307 308 310 311 312 313 313 312 311 311 310 310 309 308 306 306 306 305 305 304 303
299 300 300 301 303 303 303 302 302 303 303 303 302 302 304 302 303 302 304 304 304 304 305 306 307 308 309 310 311 310 309 309 308 308 306 306 306 305 305 305 304 304
298 299 300 301 301 302 302 301 301 301 300 300 302 302 301 302 301 302 302 300 303 303 304 304 304 305 306 307 308 308 308 308 309 308 307 307 306 306 305 305 304 303
297 298 298 299 300 300 299 300 300 300 300 301 300 300 300 300 300 299 300 300 301 301 302 302 303 303 303 304 305 306 306 306 306 306 306 306 306 305 305 304 303 302
295 296 297 298 298 298 298 298 299 299 299 299 300 299 299 299 299 299 299 299 299 299 300 300 301 301 301 302 303 304 304 304 304 305 304 304 305 304 303 302 302 301
295 295 295 295 295 296 297 297 298 297 298 299 296 297 297 297 297 298 298 298 298 298 299 299 299 300 300 301 301 302 303 303 303 303 302 302 302 300 299 299 299 299
293 292 293 293 293 293 294 294 295 295 295 293 295 297 295 297 297 298 297 297 297 298 298 298 298 299 299 299 300 301 301 302 302 300 299 299 299 299 298 298 298 297
290 291 290 290 291 292 291 292 292 292 292 293 294 295 293 295 296 296 296 296 296 296 297 297 298 297 297 297 297 298 298 299 300 299 298 298 298 298 298 298 297 296
290 289 290 289 290 291 291 291 291 291 290 291 292 292 292 293 293 294 294 294 294 295 295 295 295 295 295 295 297 297 297 297 297 297 297 298 298 298 298 298 297 297
290 289 289 289 289 289 289 290 290 290 290 290 291 291 292 292 292 291 292 293 294 294 294 294 294 295 294 295 295 296 296 296 297 297 297 297 297 298 295 298 297 297
289 289 289 289 289 289 289 289 289 289 290 290 290 291 291 291 291 291 291 292 293 293 293 294 294 294 294 295 295 295 295 295 295 296 296 296 297 297 297 297 297 297
289 289 289 289 289 289 289 289 289 289 289 289 289 289 290 290 290 291 291 291 292 292 292 293 293 294 294 294 294 295 295 295 295 295 295 295 296 296 296 297 297 297
288 288 288 288 288 288 289 289 289 289 289 289 288 289 289 289 290 290 291 291 291 291 292 292 292 293 293 294 294 294 294 294 295 294 294 295 295 295 295 296 296 297
288 288 288 288 288 288 288 289 289 289 288 288 288 289 289 289 289 289 290 290 291 291 291 291 291 292 293 293 293 293 294 294 294 294 294 294 294 294 295 295 295 296
288 288 288 288 289 289 289 288 289 288 288 288 288 288 288 289 288 289 289 289 289 290 290 291 291 292 290 291 292 293 293 294 294 294 294 294 293 293 294 295 295 296
288 288 287 288 288 288 288 288 288 288 288 288 288 288 288 288 288 288 288 289 289 289 290 290 291 291 290 292 293 294 293 293 293 293 294 294 294 293 293 294 295 295
287 287 287 287 287 287 287 287 287 287 287 287 288 288 288 288 288 288 288 289 289 289 289 289 290 290 292 292 293 294 293 293 293 293 293 293 293 293 294 294 294 294
286 286 286 286 287 286 286 286 286 286 286 286 287 287 287 287 288 288 288 288 288 288 289 289 289 290 291 292 292 293 294 293 294 293 293 292 293 293 293 293 293 293
286 286 286 286 286 286 286 285 285 286 286 286 286 286 286 287 287 287 288 288 288 288 289 289 289 289 291 292 292 292 293 293 293 292 292 292 293 293 293 293 293 293
285 285 285 285 285 285 285 285 285 285 285 286 286 286 286 286 287 287 287 287 288 287 288 288 289 290 291 291 292 292 293 293 293 292 292 292 292 292 293 293 293 293
285 285 285 285 285 284 284 285 285 285 285 286 285 286 286 286 286 286 286 286 287 286 287 287 289 290 290 291 292 292 293 291 291 290 290 291 291 292 292 293 293 293
285 284 284 284 284 284 284 284 284 285 285 285 285 285 285 286 286 286 286 286 286 286 286 287 288 288 290 290 291 292 291 290 289 289 289 289 290 291 291 292 292 292
284 284 283 283 283 283 283 284 284 284 284 284 284 284 284 285 285 285 286 286 285 286 286 286 287 287 289 290 290 291 290 288 288 288 288 288 289 290 290 291 291 288
283 283 282 282 282 282 282 282 283 283 284 284 284 284 284 285 285 285 285 285 286 285 285 285 286 286 288 289 290 290 290 288 288 288 287 288 288 288 289 290 290 289
282 281 281 281 281 282 282 282 283 283 283 283 283 283 283 284 284 284 283 284 285 285 285 286 286 286 287 288 289 289 290 288 288 287 287 287 287 288 288 288 289 289

ECMWFNIL_sfc_thetae_102.txt.gz
Theta_e
314 315 315 315 315 317 317 316 316 316 316 316 316 316 316 317 317 316 316 315 315 315 315 316 316 316 316 316 317 317 317 317 316 316 314 313 313 312 311 310 310 308
311 311 312 312 313 313 313 314 314 314 314 315 315 315 315 315 315 314 314 314 314 314 314 315 315 315 315 315 315 315 315 315 314 315 313 312 311 311 310 310 309 309
309 309 309 310 311 311 311 312 312 312 312 312 313 313 313 313 312 312 312 312 313 313 313 313 313 313 313 314 314 313 313 313 313 314 313 312 312 310 310 310 309 309
308 308 308 309 309 309 310 309 310 310 310 310 311 311 311 312 311 311 311 309 310 311 312 312 312 312 312 312 312 311 312 312 312 313 312 311 311 310 309 310 309 309
306 307 307 307 308 308 308 307 308 309 309 309 310 310 310 310 309 309 309 309 310 310 310 310 311 311 310 310 310 310 310 310 311 311 310 310 310 309 309 309 308 307
306 305 305 305 306 306 306 307 307 307 307 307 308 308 308 308 307 308 308 308 308 308 308 309 309 309 309 309 309 309 309 308 309 309 308 307 308 309 308 308 307 306
304 304 304 304 304 304 304 305 305 305 305 306 306 305 306 305 306 306 306 307 307 307 307 307 307 307 308 308 307 307 307 307 307 307 306 306 306 306 307 307 306 306
301 302 302 302 302 303 303 303 303 303 303 302 302 304 304 304 304 305 305 305 305 305 305 305 305 306 306 306 305 304 305 305 305 305 304 304 304 303 303 304 303 302
300 300 300 300 301 301 301 301 300 300 300 300 301 302 302 302 302 303 303 303 303 303 303 303 303 303 304 303 303 302 302 303 304 303 303 302 301 301 301 301 301 300
298 298 299 299 299 299 298 299 299 299 298 299 299 300 300 301 301 300 301 300 300 300 300 300 299 300 300 301 301 301 300 301 301 301 301 301 300 300 300 300 300 299
297 298 297 297 297 297 297 297 297 297 298 297 297 298 299 299 299 299 299 299 299 299 299 299 299 299 299 299 300 300 299 299 300 300 300 300 300 299 296 299 299 298
296 296 296 296 296 296 296 296 296 296 296 297 297 297 297 298 298 298 298 298 299 299 299 298 298 299 299 299 299 300 299 299 299 298 298 298 299 299 299 299 299 299
295 295 295 295 295 295 295 296 296 295 296 295 296 296 296 296 297 297 297 297 297 298 298 298 298 299 299 299 299 299 299 298 298 298 298 298 298 298 298 298 298 298
294 294 294 294 295 295 295 295 295 295 295 295 295 295 296 296 296 296 296 297 297 297 297 298 297 297 298 298 299 299 298 298 298 297 297 297 297 297 298 298 298 298
294 294 295 295 294 295 295 294 294 295 295 295 295 295 296 295 295 295 295 295 296 296 296 297 297 297 298 298 298 298 298 298 298 297 297 296 296 296 297 297 297 298
293 293 293 294 293 293 293 293 293 293 294 294 294 295 295 295 295 295 295 295 295 295 296 296 296 297 293 292 292 294 296 296 297 297 297 296 296 295 296 296 297 297
292 292 292 292 292 292 292 291 292 292 292 292 292 292 293 294 294 294 295 295 295 295 295 296 297 296 292 293 293 293 293 295 295 296 296 296 296 296 295 296 297 297
291 291 291 291 291 290 290 290 290 290 290 291 291 290 291 292 292 292 293 293 294 294 294 295 295 292 293 293 293 293 292 294 295 295 296 296 296 296 296 296 296 297
290 290 290 290 290 289 288 288 288 289 289 289 289 289 289 290 291 291 291 292 293 292 292 293 293 292 292 292 292 292 292 292 294 295 295 295 296 296 296 296 296 296
289 289 289 289 289 288 289 288 288 288 288 289 289 289 289 289 289 289 290 291 291 291 291 292 292 291 292 292 291 292 292 292 294 294 294 295 295 295 295 296 296 295
288 288 288 288 288 287 287 287 287 287 287 287 288 288 288 288 288 288 288 288 289 289 290 290 291 290 291 291 291 292 292 292 293 294 294 294 295 295 295 295 295 296
287 287 287 287 286 286 286 286 286 286 286 287 287 287 287 288 288 288 287 287 288 288 288 289 290 290 290 290 291 291 292 291 292 292 293 293 293 294 294 295 295 295
286 286 285 285 285 285 284 285 285 285 286 287 286 286 286 286 286 287 287 287 287 287 287 288 289 289 289 290 290 291 291 290 290 290 290 291 292 292 293 293 294 294
285 284 283 283 284 283 283 284 284 285 285 285 285 285 285 286 286 286 287 287 286 286 287 286 287 288 288 289 289 290 289 289 289 289 289 289 290 291 292 292 292 288
284 283 282 282 282 282 282 283 283 284 284 285 285 285 285 286 286 286 286 286 286 286 285 286 286 287 288 289 289 289 289 289 289 288 288 288 289 290 291 292 292 290
282 281 281 281 281 281 282 282 283 283 283 283 283 284 284 285 285 285 284 285 286 286 286 287 287 287 287 288 289 289 289 288 288 288 287 288 288 288 288 289 290 291

ECMWFNIL_sfc_thetae_105.txt.gz
Theta_e
319 319 318 318 318 319 319 319 319 318 317 318 318 318 318 319 319 318 318 317 317 316 316 316 317 317 317 317 317 317 317 317 318 319 317 315 313 312 312 312 311 310
315 315 315 315 315 316 315 316 316 315 315 316 316 316 317 316 317 316 316 315 316 315 315 315 315 315 315 315 315 315 315 315 315 317 317 316 314 313 312 312 312 311
313 313 313 313 313 314 313 314 313 313 313 314 314 314 314 314 314 314 314 314 313 314 314 314 314 314 314 314 314 313 313 313 313 314 314 314 314 313 313 313 312 311
311 311 311 311 312 312 312 311 312 312 312 312 312 313 312 313 312 312 312 310 312 312 312 313 313 313 313 312 312 311 312 312 312 313 312 312 313 312 312 311 311 310
310 310 310 310 310 310 310 310 310 311 310 311 311 311 311 311 311 310 310 310 310 310 310 311 311 311 311 311 311 310 310 310 311 311 310 309 310 311 311 310 309 308
308 308 308 308 308 308 309 308 309 308 308 309 309 309 309 308 308 308 308 308 308 309 308 309 309 309 310 309 309 309 309 308 309 309 308 308 308 309 309 309 308 307
306 306 306 306 307 306 306 306 306 306 306 306 305 306 306 306 306 307 307 307 306 306 307 307 307 307 308 308 307 307 307 307 307 307 306 306 306 306 307 307 306 305
303 304 304 305 305 304 303 303 303 303 303 303 304 305 305 304 304 305 305 305 305 305 305 305 305 305 306 306 305 305 305 305 305 304 304 304 305 304 304 304 304 303
302 302 302 302 302 301 301 301 301 302 301 301 302 302 303 303 303 303 303 303 303 303 303 303 303 303 303 303 303 303 302 302 303 302 302 302 302 302 302 302 301 300
300 300 300 300 300 299 299 299 300 300 300 300 300 301 301 302 302 302 301 301 301 301 301 301 301 301 300 300 300 300 300 300 301 301 301 301 301 301 301 300 299 298
298 298 298 298 298 298 298 298 298 298 299 299 299 299 300 300 300 300 300 300 301 300 301 300 301 300 300 300 301 301 300 300 300 300 300 300 300 300 297 299 298 298
297 297 297 296 297 297 297 297 297 297 297 298 297 297 298 299 299 298 299 298 299 299 299 300 300 300 299 299 300 300 300 300 300 300 299 299 299 298 298 298 298 298
296 296 296 296 296 296 297 296 296 296 296 296 296 297 297 297 297 297 298 298 298 298 298 298 299 299 299 300 300 300 300 299 299 299 298 298 298 298 298 298 298 298
295 295 295 295 296 296 296 295 296 295 295 296 296 296 295 295 295 295 296 296 297 297 298 298 297 297 297 298 298 298 298 298 298 297 297 297 297 297 297 297 297 297
295 295 295 295 294 294 294 293 294 294 294 294 294 294 295 295 295 295 295 295 295 296 296 297 298 298 298 298 297 296 296 295 296 296 296 296 296 296 296 296 297 297
294 293 294 293 293 292 292 292 292 292 292 292 292 293 293 293 293 293 294 294 294 295 295 297 297 298 295 292 293 294 294 294 294 294 294 294 294 294 295 295 296 296
292 292 292 292 291 291 291 290 290 291 291 291 291 291 291 292 292 292 293 293 293 293 293 294 295 296 292 294 294 293 293 292 292 293 293 294 294 294 294 294 295 296
291 291 291 291 290 290 290 290 290 289 290 290 290 290 290 291 291 291 292 292 293 292 292 293 293 291 293 293 293 293 292 291 292 292 292 292 293 293 293 294 294 294
290 290 290 290 289 289 289 287 288 287 287 288 288 289 290 290 290 290 290 290 291 291 290 291 291 291 292 292 292 292 292 291 291 291 291 291 292 292 292 293 293 293
289 290 289 289 288 288 288 287 287 287 287 288 288 288 288 288 288 288 289 289 289 289 289 289 290 290 291 291 291 291 292 291 291 290 290 291 291 291 291 291 292 292
288 288 287 287 287 286 286 286 286 286 286 286 287 287 287 287 287 287 288 287 288 288 288 288 289 290 291 291 291 291 291 291 290 290 290 290 290 291 291 291 291 292
287 286 286 286 285 285 285 285 285 285 285 286 286 286 286 287 287 287 286 286 287 287 287 287 288 289 290 290 290 290 291 289 288 288 289 289 289 290 290 291 291 291
286 285 284 284 284 284 284 284 284 284 285 286 285 285 285 285 285 286 286 286 286 286 285 286 286 288 288 289 289 290 289 287 287 287 287 287 288 289 289 290 290 290
284 283 282 282 282 282 282 282 283 284 284 285 284 283 283 284 285 286 286 286 285 285 285 285 285 286 288 288 289 289 288 287 287 287 286 287 287 288 289 289 289 288
283 282 281 280 280 281 281 281 281 282 283 283 283 283 283 285 285 285 284 284 285 285 285 285 285 286 287 288 288 289 288 287 287 286 286 286 286 286 288 288 288 288
281 281 280 279 279 279 280 280 281 281 281 281 281 282 283 283 283 283 282 283 284 284 285 285 285 285 286 288 288 289 289 287 286 286 285 285 286 286 286 286 287 287

ECMWFNIL_sfc_thetae_108.txt.gz
Theta_e
314 311 310 309 309 310 310 309 307 308 307 308 307 308 308 308 310 308 307 307 308 309 309 310 310 310 312 312 312 313 312 312 312 312 314 314 312 312 311 310 310 310
309 308 307 307 307 307 307 306 306 306 306 306 307 306 307 307 306 305 305 305 305 305 306 307 307 308 308 308 308 309 310 310 309 310 309 307 307 308 309 309 310 310
305 305 305 304 305 305 305 305 304 304 304 304 304 305 306 304 304 303 303 303 303 304 304 305 304 305 307 308 309 308 308 308 308 309 308 307 307 307 309 309 308 308
304 304 304 303 304 303 303 303 302 302 302 303 302 303 303 303 302 302 302 300 301 301 302 303 302 304 304 305 306 305 306 306 307 307 307 307 306 306 306 307 306 306
302 303 303 303 303 302 302 302 302 302 301 301 302 302 302 302 301 300 299 298 298 298 299 300 301 302 302 301 301 300 301 302 303 303 301 301 303 303 304 305 304 304
301 302 301 302 301 301 302 301 300 300 300 299 299 299 299 298 297 296 296 295 296 297 297 297 298 299 299 298 299 298 298 300 301 300 301 300 300 300 303 303 302 302
299 299 300 300 300 300 299 299 299 298 297 296 295 296 295 295 294 295 295 295 294 294 294 295 295 296 296 295 295 295 296 295 295 295 296 298 299 300 301 301 301 301
298 298 299 298 298 297 296 296 295 295 293 293 293 293 294 294 294 293 293 293 293 293 293 292 293 294 293 294 294 293 293 296 296 294 296 297 298 297 297 299 299 300
296 295 295 294 294 294 293 293 292 292 292 293 294 293 292 293 292 292 292 292 292 291 292 292 292 292 291 292 291 291 292 292 293 292 293 293 293 294 294 294 296 297
294 293 292 292 292 292 291 290 291 292 292 292 291 291 292 291 291 291 290 290 290 290 290 290 290 290 290 290 292 290 290 292 291 291 292 292 293 293 293 292 293 294
291 291 291 290 291 290 290 290 290 290 290 290 290 290 289 289 289 289 289 290 292 290 290 289 290 290 291 290 290 289 290 291 291 291 291 292 292 292 291 292 292 292
290 289 289 289 290 290 289 289 289 289 287 287 288 289 288 288 288 288 288 289 288 289 289 289 289 288 289 289 289 289 290 290 291 290 290 291 291 291 291 291 291 292
289 289 289 289 289 289 289 289 288 287 287 288 287 288 287 287 287 287 288 288 288 288 288 289 289 289 289 289 289 288 288 288 289 289 289 290 290 290 290 290 291 291
290 289 289 289 289 288 287 287 287 286 286 286 286 286 286 286 287 287 286 286 287 287 288 288 287 287 287 287 287 287 288 287 287 288 288 288 288 289 289 289 290 290
289 288 288 288 287 286 286 286 286 284 285 284 284 285 287 285 285 286 286 286 286 287 287 288 289 290 289 289 289 288 287 287 287 287 287 287 287 287 288 288 289 290
288 287 287 286 285 285 285 284 284 284 284 283 284 284 284 285 284 285 285 286 287 287 287 288 289 290 289 291 292 290 288 287 287 286 286 286 286 287 287 287 288 289
286 286 285 286 285 284 283 284 284 284 284 284 284 284 285 285 285 285 285 285 285 285 285 287 288 289 290 292 293 293 290 286 285 285 285 285 285 286 286 286 287 287
285 285 285 285 284 284 283 283 283 283 284 284 284 284 285 284 284 284 284 284 285 283 283 285 285 288 291 291 292 292 291 288 286 285 285 285 285 285 285 286 286 286
284 284 284 284 283 283 283 283 283 283 283 283 283 283 283 283 283 283 283 283 283 282 282 283 283 287 290 291 291 291 291 289 286 285 284 284 284 285 285 285 285 286
284 283 283 282 282 282 283 283 283 283 282 282 282 282 282 282 281 281 282 282 282 282 282 282 283 286 289 290 290 290 291 290 286 285 284 284 284 284 285 285 285 285
283 282 282 281 282 281 281 281 281 280 280 281 282 281 281 281 281 280 281 281 281 281 281 282 284 287 289 289 290 290 290 290 285 284 284 284 284 284 284 284 284 285
281 280 280 280 280 280 280 280 279 279 279 280 280 280 280 280 280 279 280 280 280 280 281 281 282 286 288 288 289 290 290 286 283 283 283 283 283 283 284 284 284 284
280 279 279 279 278 278 277 277 277 278 278 279 278 279 278 279 278 278 279 280 280 280 279 280 280 283 287 288 288 289 288 284 283 283 282 282 283 283 283 283 284 284
279 278 277 277 276 276 276 276 276 276 277 278 277 277 277 278 278 279 278 278 279 279 279 279 280 282 286 287 288 288 287 283 282 282 282 282 282 282 283 283 283 284
278 277 276 275 275 275 275 275 274 275 276 276 275 274 276 277 279 278 277 277 276 278 280 280 280 281 285 286 287 288 286 283 282 281 281 281 281 281 282 282 283 283
276 276 275 275 274 274 274 274 275 275 273 273 273 274 274 275 275 276 276 277 277 278 279 279 279 280 282 286 286 286 286 284 282 280 280 280 280 281 281 282 283 283

ECMWFNIL_sfc_thetae_111.txt.gz
Theta_e
312 311 310 308 306 307 307 305 303 306 304 302 305 305 305 301 303 303 302 303 303 303 303 303 306 306 306 307 308 310 310 309 310 307 306 307 309 309 309 308 308 308
312 310 308 306 304 304 303 304 303 304 302 302 303 303 301 301 301 302 301 300 300 300 300 301 302 303 304 305 304 304 305 307 307 308 307 306 305 306 306 306 306 306
309 307 306 304 304 303 302 302 302 302 302 300 301 302 302 299 301 299 300 300 300 300 300 300 300 301 302 304 303 302 303 304 304 305 305 305 305 305 305 305 305 305
304 304 303 302 302 301 301 301 300 300 300 300 299 300 300 299 298 298 298 297 298 298 297 298 297 298 297 297 298 297 298 298 299 300 299 298 298 298 301 300 301 302
301 301 301 301 300 300 300 300 298 298 298 297 297 297 298 298 297 296 295 294 295 294 295 295 296 296 296 296 294 294 294 293 295 295 293 292 292 294 298 298 298 298
298 299 299 299 299 299 298 297 296 296 296 297 296 296 295 294 293 293 292 293 292 292 293 292 293 292 293 292 292 292 292 293 292 291 291 291 290 291 293 293 293 295
298 298 297 297 297 296 296 295 294 294 294 293 292 292 292 292 292 290 289 291 291 291 290 290 290 291 290 290 289 290 289 289 290 290 290 289 288 291 289 289 290 292
296 296 296 296 295 294 293 292 291 291 290 291 292 289 291 291 290 289 289 290 291 289 288 286 288 290 287 289 288 288 288 289 288 288 288 288 287 289 289 288 288 290
293 293 293 292 292 291 291 290 290 289 289 290 290 290 289 289 289 290 289 289 289 288 288 287 287 286 285 287 287 287 288 287 286 286 287 288 288 289 289 288 288 288
291 291 291 290 289 289 289 288 289 288 288 289 289 288 290 289 289 289 288 288 288 287 286 285 286 285 286 285 288 288 288 287 287 286 286 286 287 288 288 288 288 288
289 289 289 288 288 287 287 287 287 288 288 288 289 289 288 288 288 287 287 288 288 287 287 286 287 286 286 286 286 286 287 287 286 286 285 286 286 287 288 287 287 287
287 287 287 287 287 287 287 287 287 288 288 287 288 288 287 287 287 286 286 286 285 286 286 286 286 285 286 286 286 285 285 284 284 285 284 285 285 286 285 285 286 286
287 287 287 287 286 286 286 286 287 286 287 287 286 286 286 286 285 285 284 284 285 285 285 286 286 285 285 285 285 284 284 283 283 283 284 283 284 284 285 285 285 285
286 286 286 286 286 285 286 286 286 286 286 286 286 286 285 284 284 283 283 283 284 284 285 284 284 284 284 284 284 284 283 283 283 283 283 283 283 284 284 284 285 285
286 286 286 286 285 286 286 285 285 285 285 285 285 285 285 283 283 283 284 284 283 284 284 284 286 286 285 285 285 285 284 284 283 283 283 283 283 283 283 284 284 284
286 285 285 285 285 285 285 285 285 284 284 284 284 283 283 282 282 283 283 284 284 284 284 285 285 285 286 289 290 286 284 284 283 282 282 282 283 283 283 283 283 283
285 285 285 284 284 284 284 284 284 284 283 283 283 282 283 283 283 283 282 283 283 284 283 284 284 284 288 290 291 291 286 283 282 283 282 282 282 282 282 282 282 282
284 284 284 283 283 283 283 282 282 282 282 282 281 281 281 281 282 282 282 282 283 282 282 283 283 286 290 290 290 291 290 286 283 283 283 282 282 282 282 282 282 282
283 283 283 282 282 282 282 282 281 281 281 280 280 280 280 281 280 281 281 281 281 282 282 282 281 286 288 289 289 290 290 288 283 281 282 281 281 281 281 281 281 281
282 282 282 281 281 281 281 281 281 281 280 280 279 280 279 280 279 279 280 280 280 280 281 281 281 284 288 288 288 289 290 289 281 281 281 280 280 280 281 280 281 281
281 281 281 280 280 280 280 280 280 279 279 278 278 279 278 278 279 278 280 278 280 280 280 281 282 285 287 287 288 288 288 287 281 281 280 279 280 279 280 280 280 281
281 281 280 280 280 279 279 279 278 277 277 278 277 277 276 277 278 277 277 278 278 278 279 279 280 284 286 287 287 287 287 283 280 280 279 279 279 278 279 279 279 280
280 280 280 279 279 278 278 278 277 276 276 277 275 275 275 276 276 277 277 278 277 277 277 278 278 282 285 286 286 287 285 280 279 279 279 279 279 279 279 279 279 280
279 279 279 278 277 277 277 276 275 275 275 276 275 275 275 275 277 277 277 276 276 276 277 276 276 280 284 284 285 285 285 280 279 278 278 278 278 279 279 279 280 281
278 278 277 277 276 276 275 275 275 275 275 274 274 274 275 276 276 275 274 274 274 275 278 276 274 277 282 283 284 284 283 279 279 277 277 277 278 278 279 279 279 280
277 277 277 276 276 275 275 275 275 275 274 274 274 273 273 274 273 273 272 274 275 275 275 274 274 273 278 282 282 283 283 280 277 276 276 277 278 278 278 279 279 280

ECMWFNIL_sfc_thetae_114.txt.gz
Theta_e
310 309 309 308 307 307 305 304 303 303 299 299 302 299 301 299 301 302 301 302 300 299 299 299 299 300 304 307 308 308 307 306 306 305 305 305 305 305 305 304 305 305
309 308 305 304 302 301 302 304 302 303 301 300 301 300 297 299 298 300 300 299 298 298 298 299 299 299 303 304 302 302 301 304 304 305 303 302 303 302 302 302 303 303
307 306 306 306 305 302 301 301 302 301 301 299 298 298 298 297 298 297 297 298 297 297 297 297 298 298 299 298 298 298 298 297 298 297 297 296 296 297 296 297 298 299
305 306 306 305 304 302 302 302 300 299 299 298 296 297 298 296 296 296 295 295 296 295 295 296 295 295 295 294 294 294 293 293 292 291 291 289 290 290 291 291 292 292
303 303 304 303 302 302 302 301 299 298 298 296 295 295 296 295 295 293 292 291 293 291 292 292 293 292 292 292 292 291 290 289 289 288 287 286 286 288 290 288 287 288
302 303 302 302 300 300 299 298 297 297 296 295 294 293 293 292 291 291 290 290 289 290 289 289 290 289 289 289 288 288 286 288 285 286 286 286 287 285 287 286 286 287
301 301 299 298 297 296 296 295 294 294 294 292 291 290 289 290 290 290 290 289 289 288 289 288 289 287 286 286 286 286 285 285 285 285 286 285 285 286 284 284 285 287
298 297 296 296 295 294 293 292 291 291 289 290 290 288 289 289 290 288 288 289 289 289 288 287 288 289 285 286 286 286 285 285 283 285 285 285 284 286 286 285 284 285
294 292 292 292 292 290 290 290 289 288 288 290 289 288 287 288 288 288 288 288 287 286 288 287 287 286 285 286 285 285 286 285 284 285 286 286 285 285 285 284 284 284
291 290 290 290 290 289 289 288 288 288 287 288 288 288 288 286 287 288 287 287 287 287 287 286 287 286 285 284 286 285 286 287 286 285 285 286 286 285 284 283 283 283
289 289 289 288 288 288 287 287 287 287 287 287 287 287 287 287 287 286 287 288 288 287 287 287 286 285 286 286 285 284 286 286 286 285 285 285 285 284 285 283 283 283
288 288 288 288 287 287 287 287 287 287 286 286 287 287 286 286 287 286 287 287 286 286 286 285 285 285 285 284 284 284 283 283 283 284 284 284 283 283 283 283 283 283
287 287 287 287 287 286 286 286 286 286 286 286 285 286 286 286 285 285 284 286 285 286 286 286 285 284 284 283 284 284 284 283 283 282 283 282 283 282 282 283 282 283
286 286 286 286 286 286 286 285 285 285 285 285 285 285 285 285 285 285 284 285 284 285 284 284 284 283 283 283 283 283 283 283 282 282 281 281 281 281 281 281 282 281
285 285 285 285 285 285 285 285 285 284 284 285 285 285 285 284 284 284 284 284 284 284 284 284 284 284 284 284 284 284 283 283 282 282 281 281 281 281 281 281 281 281
285 285 285 285 285 285 284 284 284 284 284 284 284 284 283 283 284 283 284 284 283 283 282 283 283 283 285 289 290 285 284 283 283 282 281 280 280 280 280 281 281 280
285 284 284 284 284 284 283 283 283 283 283 283 283 282 283 282 283 283 282 282 282 282 282 282 283 283 288 290 290 290 286 283 282 282 281 280 280 279 279 279 279 280
284 284 284 283 283 283 283 283 283 283 282 282 282 282 281 282 282 282 282 282 282 282 282 282 282 286 288 288 289 289 289 284 281 281 281 280 279 278 279 278 278 279
283 283 283 283 283 282 282 282 282 282 281 281 281 280 281 281 281 281 281 281 282 281 281 281 280 286 287 288 288 288 289 286 281 280 279 279 278 277 277 277 277 278
283 283 282 282 282 282 281 281 281 281 280 280 280 280 281 280 280 280 281 281 281 280 280 280 280 285 286 287 287 288 287 285 279 279 278 278 277 277 277 277 277 277
282 282 282 281 281 281 281 281 281 280 280 280 280 280 280 280 280 280 280 279 279 279 279 279 280 284 285 286 286 287 286 284 278 279 277 277 277 277 276 276 277 278
282 282 282 281 281 281 281 280 280 280 280 279 278 278 278 278 278 279 278 278 278 278 278 278 279 283 284 285 285 286 285 279 277 277 276 276 276 276 277 277 277 277
282 282 281 281 280 280 280 280 279 278 278 277 278 278 278 278 277 277 277 277 277 277 277 277 277 280 283 284 284 285 282 275 275 273 274 275 276 277 277 277 277 278
282 281 281 280 280 280 279 279 278 278 278 277 278 278 277 277 277 277 277 277 276 276 277 276 275 278 282 283 283 284 282 275 274 273 272 274 277 278 279 279 280 281
281 280 280 279 279 279 278 278 278 278 277 276 276 276 276 276 276 276 276 277 277 276 278 276 276 277 280 282 283 283 281 274 274 272 273 276 278 278 279 279 280 280
280 279 279 279 278 277 277 277 277 276 276 275 275 274 275 275 275 276 276 277 277 276 276 277 276 276 277 281 281 282 282 277 273 273 275 277 278 278 278 278 279 278

ECMWFNIL_sfc_thetae_117.txt.gz
Theta_e
313 313 313 312 311 311 309 308 306 308 305 303 307 301 303 302 302 302 301 302 300 299 299 299 300 302 305 308 308 307 307 306 305 303 302 303 303 303 302 301 301 301
311 310 309 310 307 306 307 308 306 306 302 301 301 300 298 301 299 300 300 299 298 298 297 297 297 300 303 303 300 301 301 301 300 300 299 297 298 299 299 299 298 297
308 308 308 308 308 306 305 304 305 303 302 299 298 299 298 297 297 297 298 298 298 297 296 296 296 296 298 297 297 297 296 296 294 294 294 293 293 293 292 293 293 293
307 308 308 307 306 304 303 303 301 300 299 299 298 298 298 296 297 296 296 295 296 294 293 294 294 294 294 294 294 293 293 292 291 289 289 288 288 289 288 287 287 287
306 305 305 305 304 303 303 303 300 300 300 298 296 295 296 296 296 295 294 293 293 291 292 292 292 291 291 291 291 290 289 288 287 287 287 287 286 287 286 285 284 285
303 304 304 304 303 303 303 302 299 299 297 296 296 295 295 294 293 292 291 290 289 290 289 289 289 288 289 288 288 287 286 287 285 286 286 286 285 284 285 284 284 284
302 302 302 303 303 303 301 299 298 297 297 295 292 292 291 291 291 291 290 290 289 289 289 288 288 286 285 287 287 286 286 286 284 285 287 284 284 284 283 284 284 284
299 299 300 301 301 300 299 297 295 294 292 292 292 288 291 291 290 289 289 289 290 289 288 287 288 288 285 286 287 286 285 285 283 284 286 284 284 285 284 284 283 284
298 298 298 298 297 296 295 294 293 291 291 292 290 288 288 290 289 289 289 289 288 287 288 287 287 286 285 286 286 286 286 285 285 285 285 285 284 284 283 282 283 282
296 295 295 295 295 293 292 291 290 289 289 290 289 288 288 287 288 288 288 288 287 287 287 287 286 286 285 286 286 286 286 286 285 285 285 284 284 283 283 282 282 282
294 294 294 293 292 291 290 289 288 288 289 289 288 288 287 287 286 287 287 287 288 287 287 286 286 286 286 286 285 285 285 285 285 284 284 283 283 283 283 282 282 281
292 292 292 291 290 289 288 288 288 288 288 287 288 288 287 287 287 286 287 286 286 286 286 286 285 285 285 285 285 285 285 284 283 283 283 283 282 282 282 282 282 281
291 291 290 289 288 288 287 287 287 287 287 287 287 287 287 286 286 286 285 286 285 285 285 285 285 285 284 284 284 284 284 283 283 282 282 282 281 282 281 281 281 281
289 288 288 288 288 287 287 287 287 286 287 286 286 286 286 286 285 285 284 285 285 284 284 284 284 284 284 284 284 284 283 283 283 282 282 281 281 281 281 281 281 281
287 287 287 287 287 287 286 286 286 285 285 285 285 285 285 284 284 285 284 284 284 284 284 284 284 285 285 285 284 283 283 283 282 282 282 282 281 281 281 281 281 281
286 286 286 286 286 286 286 285 285 284 284 284 284 284 283 283 283 283 284 283 283 283 283 283 284 285 287 289 288 285 284 283 283 282 282 281 281 281 280 280 280 280
286 286 286 286 286 285 284 284 284 284 284 283 283 283 283 283 283 283 282 282 282 282 282 283 284 286 289 290 290 289 285 283 283 282 282 281 280 279 279 279 279 279
286 285 285 285 284 284 284 284 283 283 283 283 282 282 282 282 282 282 282 282 282 281 281 282 284 288 289 289 289 289 286 282 282 282 281 280 279 279 278 278 278 279
285 285 285 284 284 283 283 283 283 283 282 282 282 282 282 282 281 281 281 281 281 280 280 281 282 288 288 288 288 288 286 283 281 281 280 279 278 278 278 278 278 279
285 285 284 284 283 283 282 282 282 282 282 282 281 281 281 281 281 280 280 280 280 280 280 280 282 286 287 287 287 286 285 283 280 280 279 278 278 277 277 278 278 278
284 284 284 283 282 282 282 282 282 281 281 281 281 281 281 281 280 280 279 279 279 279 279 280 282 286 286 287 287 285 284 282 279 279 278 278 278 278 278 278 278 278
284 283 283 282 282 281 281 281 281 281 281 280 280 280 279 279 279 279 279 278 278 279 278 278 281 285 285 285 285 284 283 280 279 278 278 278 278 279 279 279 279 279
284 283 282 282 281 281 281 281 281 280 280 279 279 279 279 279 278 278 278 278 277 278 277 277 278 282 284 284 284 283 281 278 278 277 278 278 278 279 279 279 279 279
283 283 282 281 281 281 281 281 280 279 279 279 279 279 278 278 277 277 277 278 277 277 277 277 277 280 283 283 284 283 280 278 277 277 277 278 278 279 279 279 279 280
282 282 282 281 281 281 281 280 279 279 278 278 278 278 278 278 278 277 277 277 277 277 278 276 275 278 282 283 283 282 280 278 277 276 277 278 277 277 278 278 278 279
281 281 281 281 280 280 279 279 278 277 277 277 277 277 277 277 277 277 276 276 276 275 275 275 275 276 279 282 282 282 281 279 278 276 277 277 277 277 276 277 278 278

ECMWFNIL_sfc_thetae_120.txt.gz
Theta_e
317 315 315 314 314 314 311 311 310 311 311 311 312 310 309 308 303 307 306 306 304 301 299 301 303 305 307 308 307 306 305 304 303 302 303 303 303 302 301 299 298 298
315 313 311 313 312 310 311 312 310 311 309 309 310 308 305 303 303 305 305 304 303 300 299 299 300 302 304 305 304 304 302 302 299 300 300 299 298 297 296 296 295 294
313 313 313 313 312 310 310 310 311 310 309 307 305 304 304 304 303 303 304 304 302 300 298 297 298 299 300 300 300 300 298 295 294 294 293 293 293 292 291 292 290 290
313 313 313 313 312 310 309 309 308 306 304 303 303 303 303 301 302 301 301 299 300 297 296 297 297 296 296 296 295 294 294 292 291 290 289 289 289 288 287 286 286 285
311 311 312 312 311 310 308 308 306 305 305 304 301 300 299 299 299 298 298 296 297 295 296 296 295 294 293 293 293 290 289 287 288 289 287 286 286 286 285 284 283 283
309 310 310 310 308 308 307 307 306 305 303 301 301 299 300 299 297 295 294 293 292 293 293 293 293 291 290 289 288 288 287 286 286 287 286 286 284 284 284 283 283 283
306 307 307 307 306 307 307 306 304 302 302 301 298 298 296 295 294 293 293 292 291 291 292 291 290 288 287 287 287 286 286 285 286 286 285 283 283 283 282 283 283 283
304 305 306 305 305 305 304 302 300 300 297 296 297 293 294 293 292 291 291 291 291 290 289 288 288 288 287 288 287 286 284 284 284 285 284 283 283 283 283 283 283 283
301 301 302 303 302 301 299 298 297 295 295 296 294 292 291 292 291 290 290 291 290 289 289 288 288 287 286 287 286 286 285 284 284 284 284 284 283 283 283 282 283 283
299 299 300 300 299 298 297 295 294 294 294 294 293 292 291 289 290 290 290 290 289 288 288 287 287 286 286 286 286 285 285 285 284 284 284 284 283 283 283 283 282 282
296 297 297 297 296 295 293 293 293 293 293 292 291 290 290 289 288 289 289 289 289 288 288 287 287 286 286 285 285 285 285 284 284 284 283 283 283 283 283 282 282 282
295 295 295 294 293 292 292 292 292 292 292 291 291 290 289 289 289 288 289 288 288 288 287 287 286 286 286 285 285 284 284 284 284 283 283 283 282 282 282 282 282 282
293 293 293 292 292 292 291 292 292 291 292 291 290 290 289 288 288 288 288 288 287 287 286 286 285 285 285 284 284 284 284 284 283 283 283 282 282 282 282 282 282 282
291 291 292 292 291 291 292 291 291 291 291 290 289 289 289 288 288 287 286 287 286 286 285 285 285 284 284 284 284 284 284 283 283 283 282 282 282 282 282 281 281 281
291 291 291 291 290 291 290 290 290 290 289 289 288 288 288 287 287 286 285 285 284 284 284 284 285 284 284 284 284 284 284 283 283 282 282 281 281 281 281 281 281 281
290 290 290 290 290 290 290 289 289 288 287 287 287 286 286 285 285 285 284 284 283 283 284 285 285 285 285 287 286 284 283 283 282 282 282 281 281 280 280 280 280 280
290 290 290 290 290 289 288 287 286 286 286 285 285 284 284 284 284 283 283 283 283 283 284 285 285 286 288 289 289 287 283 282 281 281 281 281 280 280 280 280 280 280
290 289 289 289 288 287 286 286 285 285 285 284 283 283 283 283 283 282 282 282 282 283 284 284 285 289 290 289 288 287 285 282 281 281 281 280 280 280 280 279 279 279
289 288 288 287 287 286 285 284 284 283 283 282 282 282 282 282 282 282 281 281 282 282 283 284 285 290 289 288 287 287 285 283 281 281 280 280 280 280 280 279 279 279
288 288 287 286 284 284 283 283 283 283 282 282 281 281 281 281 281 281 280 280 281 281 282 283 284 288 289 287 286 286 285 283 280 280 280 280 280 279 279 279 279 279
286 286 285 284 283 282 282 282 282 281 281 281 281 281 280 280 280 280 280 279 280 281 282 283 284 288 288 287 286 285 284 282 280 280 280 279 279 279 279 279 279 279
285 284 284 283 282 282 282 282 281 281 280 280 280 279 279 279 278 279 279 278 279 280 281 282 285 288 287 286 285 285 283 280 279 279 279 279 279 279 279 279 279 279
284 284 283 282 282 282 281 281 281 280 280 280 279 279 279 278 278 278 278 278 278 279 280 281 282 285 286 285 284 284 281 279 279 279 279 278 278 278 279 279 279 279
284 284 283 282 282 282 281 281 280 280 279 279 279 278 278 277 277 277 276 276 277 277 278 279 279 283 285 284 283 282 280 279 279 278 278 278 278 278 278 279 279 279
283 283 283 282 281 281 281 280 280 279 278 278 278 278 277 276 276 276 275 275 275 276 278 278 279 282 285 284 283 282 280 279 278 278 278 278 277 277 278 278 278 279
282 282 282 281 281 280 280 279 279 278 277 277 277 277 276 276 275 275 274 274 274 275 275 276 277 279 282 284 282 282 281 279 278 278 277 277 277 277 276 277 278 277

ECMWFNIL_sfc_thetae_123.txt.gz
Theta_e
322 323 322 320 320 320 318 317 316 317 316 317 315 316 316 317 313 314 314 314 313 312 312 313 312 312 311 311 310 309 308 307 307 307 308 307 306 305 303 302 302 301
321 321 320 320 319 318 317 318 316 317 316 316 317 317 316 313 311 313 312 310 307 306 308 309 310 310 310 309 308 307 306 305 304 305 305 304 302 301 299 299 297 297
319 319 318 318 319 317 317 316 317 317 316 315 315 314 311 310 309 310 310 308 305 305 305 306 307 308 308 307 306 305 304 301 299 299 299 298 298 297 295 295 294 295
317 318 318 318 319 317 316 315 315 315 313 311 311 310 309 308 309 308 307 304 305 304 304 304 304 305 305 304 303 301 297 296 296 295 293 293 293 293 292 291 290 289
316 316 317 318 317 316 315 314 313 312 311 312 309 306 305 306 306 305 305 304 304 302 302 302 301 301 301 300 299 294 293 293 294 294 293 291 290 290 289 289 289 288
313 315 315 316 315 314 314 314 313 312 310 308 307 304 306 306 305 304 302 301 300 301 300 299 298 297 298 296 294 293 291 291 291 291 290 289 287 288 288 288 288 287
311 312 313 314 314 314 313 313 312 310 310 309 304 304 304 303 302 302 301 300 300 299 300 298 296 294 294 293 292 291 291 290 290 290 288 287 286 286 287 288 287 286
310 311 312 312 312 311 311 311 309 308 306 303 303 302 302 302 301 300 300 299 299 299 298 297 295 293 292 293 291 290 289 290 289 288 287 286 287 286 286 287 287 286
307 307 308 308 308 307 307 306 304 303 301 302 300 298 300 301 300 299 298 299 298 297 297 295 295 293 292 293 291 290 288 288 288 287 287 286 286 286 286 286 286 285
303 302 303 303 304 303 302 300 299 299 298 299 298 298 298 297 298 298 297 297 296 294 295 294 293 292 291 291 290 289 288 287 287 287 287 287 286 286 285 286 285 285
299 299 301 300 300 299 298 297 297 297 297 297 297 297 296 295 294 295 296 296 295 294 294 293 292 291 290 289 288 288 287 286 286 286 286 286 286 286 285 285 285 285
297 297 298 298 297 297 296 296 295 296 296 296 297 296 294 294 294 294 295 295 294 293 293 292 291 290 289 288 287 287 286 286 286 286 285 285 285 285 285 285 285 284
296 297 297 296 296 295 294 294 294 294 294 294 294 294 294 294 293 294 293 294 292 292 291 290 289 288 287 287 286 286 286 285 285 285 285 285 285 285 285 284 284 284
295 294 294 294 293 292 293 293 293 293 293 293 293 294 294 294 293 293 291 292 291 290 289 288 287 287 286 286 286 286 285 285 285 284 284 284 284 284 284 284 283 283
292 292 292 291 291 292 292 292 292 292 292 292 292 293 293 292 292 291 290 289 288 288 287 287 287 286 286 286 286 285 286 285 284 284 283 283 283 283 283 283 283 283
291 292 291 291 291 291 291 291 291 291 291 291 291 291 290 290 290 289 289 288 287 286 286 286 286 286 285 287 287 285 285 285 284 284 283 283 282 282 282 282 282 282
290 291 291 291 291 291 291 291 290 291 291 290 289 289 289 288 289 288 287 287 286 286 285 286 286 286 287 288 288 287 285 284 284 283 283 282 282 282 281 281 281 281
291 290 290 290 290 290 290 290 289 289 289 289 288 287 287 287 287 286 285 285 285 285 285 285 286 287 289 289 288 287 285 284 284 283 283 282 282 281 281 281 281 280
290 290 290 290 290 289 289 288 288 288 287 287 287 287 286 286 285 284 284 284 285 285 285 286 287 289 290 289 288 287 286 284 283 283 282 282 281 281 281 281 280 280
290 290 290 290 289 288 288 287 287 287 287 287 286 285 285 285 284 283 283 284 284 285 285 287 288 289 289 288 288 287 286 284 282 282 281 281 281 281 281 280 280 280
290 290 290 289 288 287 287 287 287 286 286 285 285 285 284 283 283 282 282 283 284 285 286 286 287 289 288 288 287 287 285 283 282 281 281 281 281 281 280 280 280 280
290 290 289 288 287 287 287 287 286 285 285 284 283 283 283 282 282 282 281 282 283 284 285 285 287 288 288 287 287 286 285 281 281 281 280 280 280 280 280 280 280 280
290 290 289 288 287 286 286 286 285 284 283 282 282 282 281 281 281 280 281 282 282 284 284 285 286 287 287 287 287 286 283 281 281 280 280 279 279 279 279 280 280 280
289 289 288 287 286 286 286 285 285 284 283 282 282 281 281 280 280 279 280 281 282 283 284 284 284 285 287 286 286 284 282 281 280 280 279 279 279 279 279 279 280 280
288 288 287 286 286 286 286 284 283 283 281 280 281 281 280 279 279 279 279 279 280 281 281 283 283 284 286 286 285 284 282 281 280 279 279 278 278 278 279 279 279 279
286 286 286 286 285 285 284 284 282 280 280 280 279 279 278 278 278 278 277 278 278 280 281 282 283 283 284 285 285 284 283 280 280 279 278 278 278 278 277 278 278 278